     2              OBSERVATION DATA    GPS                 RINEX VERSION / TYPE
teqc 2000Feb29 20021016 17:29:00UTC                         PGM / RUN BY / DATE
                                                            COMMENT
L2: 1 -> 1; 5 -> 5; 60 -> 9                                 COMMENT
L2: 1 -> 1; 5 -> 5; 60 -> 9                                 COMMENT
L2: 1 -> 1; 5 -> 5; 60 -> 9                                 COMMENT
L2: 1 -> 1; 5 -> 5; 60 -> 9                                 COMMENT
L2: 1 -> 1; 5 -> 5; 60 -> 9                                 COMMENT
Original Marker Name: BIRD                                  COMMENT
Campaign Name: Yolo County Subsidence 2002                  COMMENT
4-Character Station Name: BIRD                              COMMENT
6-Character Antenna Code: TRMCMP                            COMMENT
Vertical Measurement Point: BPA                             COMMENT
Vertical Offset to Rinex Ref. Point: 0.0000                 COMMENT
Radial Measurement Point: RRP                               COMMENT
Radial Offset to Rinex Ref. Point: 0.0000                   COMMENT
Antenna Height from Field Measurement: 2.0000 m             COMMENT
Additional Antenna Identification Info.:                    COMMENT
Model 22020.00+GP                                           COMMENT
Original XYZ: -2639005.6342 -4216124.4282 3979275.3437      COMMENT
New XYZ position is based on association with SCEC monument COMMENT
E1O4H3K3+0011. Position of that monument is believed to be  COMMENT
valid to within 1 m horizontally; vertical accuracy         COMMENT
should be no worse than 3-times this value.                 COMMENT
                                                            COMMENT
Revised Rinex header created by UCSD GPS archive for        COMMENT
GSAC on 27-Jun-2003 (2003:178) 16:41:37 GMT                 COMMENT
For assistance contact dagnew@ucsd.edu                      COMMENT
or anderson@python.ucsd.edu                                 COMMENT
                                                            COMMENT
BIRD 1999                                                   MARKER NAME
BIRD                                                        MARKER NUMBER
-Unknown- YOLO_COUNTY                                       OBSERVER / AGENCY
16898 TRIMBLE 4000 SSI NP 7.32; SP 3.08                     REC # / TYPE / VERS
68628 TR GEOD L1/L2 GP                                      ANT # / TYPE
 -2639007.5984 -4216126.6890  3979275.7756                  APPROX POSITION XYZ
        2.0000        0.0000        0.0000                  ANTENNA: DELTA H/E/N
     1     1     0                                          WAVELENGTH FACT L1/2
     7    C1    L1    L2    P1    P2    S1    S2            # / TYPES OF OBSERV
     0                                                      INTERVAL
  2002     7     8    18    27   15.000000                  TIME OF FIRST OBS
  2002     7     8    19    31   15.000000                  TIME OF LAST OBS
                                                            END OF HEADER
 02  7  8 18 27 15.0000000  0  8G31G 3G 9G14G15G17G18G21
  23999535.7664     -89879.48255
        11.2504
  21678232.9694      14704.37857      5312.27856                  21678240.8594
        25.2504         23.7504
  24292645.7584     -51973.77755     -6417.91055                  24292657.6914
         9.0004          9.5004
  22864899.6334    -140006.64056    -47309.24156                  22864908.5204
        18.5004         17.7504
  20975520.6724     138700.94658     35359.25957                  20975527.7424
        29.5004         27.0004
  21568668.6334     159083.90057     38222.62556                  21568676.8524
        20.7504         21.2504
  20923306.7894     137678.26758     35084.76157                  20923312.7894
        29.2504         27.2504
  21172484.3524      29605.69457      8871.53257                  21172491.4924
        26.7504         26.5004
 02  7  8 18 27 30.0000000  0  8G31G 3G 9G14G15G17G18G21
  23994608.0084    -115770.73845     -9370.33755                  23994614.5124
         8.2504          7.7504
  21679206.4064      19819.04247      9297.72246                  21679214.3794
        25.0004         24.0004
  24290368.0314     -63942.14545    -15743.84345                  24290378.0314
         9.5004          8.7504
  22858351.3054    -174419.47546    -74124.36146                  22858360.5664
        18.0004         17.5004
  20982814.8134     177032.03148     65227.60847                  20982821.9654
        29.7504         27.2504
  21576998.6414     202857.97147     72332.25946                  21577006.5084
        21.2504         21.5004
  20930541.6564     175697.14748     64709.85147                  20930547.5984
        29.2504         27.5004
  21174208.7034      38665.95447     15931.48047                  21174216.1484
        26.5004         26.0004
 02  7  8 18 27 45.0000000  0  8G31G 3G 9G14G15G17G18G21
  23989764.4844    -141227.68745    -29206.85745                  23989772.6214
        11.0004         10.0004
  21680272.6564      25422.48747     13664.03346                  21680280.6764
        24.5004         24.0004
  24288173.1724     -75474.76845    -24730.24745                  24288182.0474
         8.2504          9.0004
  22851880.2734    -208422.87346   -100620.44446                  22851889.6994
        18.0004         17.2504
  20990191.1334     215795.66748     95433.01247                  20990198.1564
        29.7504         27.0004
  21585409.7584     247057.61747    106773.50746                  21585417.5434
        21.5004         21.5004
  20937855.6644     214132.04448     94659.11147                  20937861.5594
        29.5004         27.2504
  21176010.9924      48137.19347     23311.66847                  21176018.4964
        26.0004         26.0004
 02  7  8 18 28  0.0000000  0  8G31G 3G 9G14G15G17G18G21
  23984995.5634    -166282.05245    -48729.73145                  23985005.8444
         8.7504          8.7504
  21681425.9924      31482.75447     18386.29446                  21681433.7194
        24.7504         24.0004
  24286055.6724     -86603.31645    -33401.85045                  24286064.8054
         9.0004          9.2504
  22845481.3204    -242048.50446   -126822.16146                  22845491.0984
        17.5004         17.2504
  20997643.8524     254959.75548    125950.46047                  20997650.7704
        29.7504         26.7504
  21593895.5784     291650.82247    141521.42746                  21593903.3874
        21.7504         21.5004
  20945242.6414     252950.61548    124907.34747                  20945248.6644
        29.5004         27.0004
  21177885.5394      57987.12647     30986.94547                  21177893.3364
        25.7504         26.0004
 02  7  8 18 28 15.0000000  0  8G31G 3G 9G14G15G17G18G21
  23980300.5704    -190958.75045    -67958.30545                  23980309.8554
        10.2504         10.2504
  21682661.4774      37974.69347     23444.94946                  21682669.0864
        25.0004         23.7504
  24284011.0394     -97352.72045    -41777.96945                  24284020.5124
         9.5004          9.2504
  22839149.8054    -275321.38746   -152749.01146                  22839159.6294
        16.2504         16.5004
  21005168.1724     294498.99848    156760.23847                  21005175.2074
        29.2504         27.0004
  21602451.3524     336612.24847    176556.27646                  21602459.3364
        21.5004         21.7504
  20952697.4844     292127.45848    155434.73447                  20952703.3794
        29.5004         27.5004
  21179827.0314      68190.36447     38937.52247                  21179835.1094
        25.5004         25.7504
 02  7  8 18 28 30.0000000  0  8G31G 3G 9G14G15G17G18G21
  23975671.9844    -215282.06645    -86911.43045                  23975681.4454
        11.0004          9.7504
  21683974.2504      44873.89747     28820.94746                  21683981.7544
        24.7504         23.7504
  24282032.6884    -107747.08445    -49877.40745                  24282042.4654
         9.0004          9.0004
  22832880.8284    -308265.65546   -178419.80346                  22832890.0664
        16.7504         16.5004
  21012758.8524     334388.95148    187843.29447                  21012766.1564
        29.5004         27.0004
  21611072.5864     381917.48847    211859.03046                  21611080.6294
        21.7504         22.0004
  20960216.1724     331637.84748    186222.04247                  20960222.1604
        29.5004         27.5004
  21181831.0474      78722.15547     47144.11546                  21181838.5394
        25.7504         25.5004
 02  7  8 18 28 45.0000000  0  8G31G 3G 9G14G15G17G18G21
  23971107.6954    -239268.19945   -105602.01145                  23971116.0904
        10.5004         10.0004
  21685361.5084      52163.81447     34501.39646                  21685368.9304
        24.7504         23.5004
  24280118.5314    -117802.62645    -57712.86245                  24280129.5394
         9.0004          9.0004
  22826670.8834    -340897.65846   -203847.26646                  22826680.5314
        17.0004         16.7504
  21020413.3204     374612.95048    219186.64347                  21020420.4734
        30.0004         27.2504
  21619756.4064     427549.76647    247416.61846                  21619764.1564
        22.2504         22.2504
  20967795.0004     371464.90248    217256.10847                  20967801.0234
        29.5004         27.2504
  21183894.4694      89565.67947     55593.60947                  21183902.0204
        25.7504         25.7504
 02  7  8 18 29  0.0000000  0  8G31G 3G 9G14G15G17G18G21
  23966604.4924    -262937.45446   -124045.48845                  23966613.7664
        13.0004         10.2504
  21686819.1724      59824.07947     40470.42146                  21686826.5124
        25.2504         23.7504
  24278265.9844    -127539.44245    -65299.98345                  24278274.8714
         8.7504          8.5004
  22820517.1414    -373237.54646   -229047.11046                  22820526.1094
        17.5004         16.7504
  21028127.5704     415150.47948    250774.30447                  21028134.7464
        30.2504         27.5004
  21628498.2814     473488.69847    283213.15646                  21628505.8794
        22.7504         22.2504
  20975430.1024     411588.03048    248520.86247                  20975435.9964
        29.0004         27.5004
  21186013.4224     100700.39247     64270.01847                  21186020.7504
        26.0004         26.0004
 02  7  8 18 29 15.0000000  0  8G31G 3G 9G14G15G17G18G21
  23962157.1094    -286303.57645   -142252.89445                  23962166.3364
         9.5004          9.7504
  21688344.7424      67840.67147     46717.11046                  21688352.3054
        25.2504         23.5004
  24276471.6334    -136971.32445    -72649.44545                  24276479.1374
         9.0004          8.0004
  22814415.9534    -405299.14946   -254030.10946                  22814424.6414
        17.7504         17.0004
  21035898.2974     455987.48248    282595.31847                  21035905.7304
        30.2504         27.7504
  21637295.9534     519720.20947    319237.67746                  21637303.9964
        22.7504         22.2504
  20983119.0634     451992.99148    280005.24447                  20983124.9574
        29.0004         27.2504
  21188185.0394     112112.11947     73162.27047                  21188192.4844
        26.0004         26.2504
 02  7  8 18 29 30.0000000  0  8G31G 3G 9G14G15G17G18G21
  23957765.6024    -309382.76645   -160236.62845                  23957774.9224
        10.7504         10.2504
  21689934.7344      76197.15547     53228.64646                  21689942.2384
        25.2504         23.7504
  24274731.4534    -146114.52145    -79774.01745                  24274740.0824
         9.7504          8.7504
  22808364.5864    -437098.61746   -278808.84546                  22808373.5664
        18.0004         17.5004
  21043723.4454     497107.52848    314636.88847                  21043730.6454
        30.0004         27.5004
  21646146.0784     566227.70147    355477.25046                  21646153.8874
        22.2504         22.2504
  20990858.1564     492663.03448    311696.17147                  20990864.2154
        29.5004         27.2504
  21190406.1724     123784.54747     82257.66847                  21190413.6764
        26.2504         26.2504
 02  7  8 18 29 45.0000000  0  8G31G 3G 9G14G15G17G18G21
  23953426.6954    -332181.07145   -178001.56045                  23953436.4494
        10.0004          9.5004
  21691588.6174      84887.27447     60000.15646                  21691596.3094
        24.7504         23.5004
  24273045.1884    -154974.96945    -86678.18645                  24273052.9844
         9.5004          8.2504
  22802361.7974    -468642.02646   -303388.05346                  22802370.6374
        18.2504         17.2504
  21051600.9924     538504.31448    346894.10047                  21051608.3094
        29.7504         27.5004
  21655047.3524     613004.94247    391927.02346                  21655055.1254
        22.5004         21.7504
  20998646.6174     533591.62748    343588.56247                  20998652.3714
        29.0004         27.2504
  21192675.6954     135711.11747     91551.09947                  21192683.0124
        26.7504         26.5004
 02  7  8 18 30  0.0000000  0  8G31G 3G 9G14G15G17G18G21
  23949139.9384    -354706.00845   -195553.41245                  23949150.8874
         7.7504         10.5004
  21693304.1644      93903.27547     67025.59946                  21693311.9024
        25.5004         23.7504
  24271411.5234    -163560.08845    -93367.87045                  24271421.2074
         9.0004          8.7504
  22796406.5164    -499936.82546   -327773.54846                  22796415.3554
        18.2504         17.5004
  21059529.5634     580169.89248    379360.76047                  21059536.6564
        30.2504         27.5004
  21663998.5704     660043.83947    428580.67046                  21664006.5204
        22.5004         21.7504
  21006482.7114     574770.77248    375676.19447                  21006488.6414
        29.0004         27.5004
  21194992.2814     147883.84747    101036.34747                  21194999.6804
        27.0004         26.7504
 02  7  8 18 30 15.0000000  0  8G31G 3G 9G14G15G17G18G21
  23944904.2664    -376968.02345   -212900.42045                  23944911.8984
        10.5004          9.7504
  21695079.8914     103234.50847     74296.68746                  21695087.3954
        26.0004         23.7504
  24269828.7504    -171880.25845    -99851.07145                  24269838.0354
         9.5004          8.0004
  22790496.4534    -530993.56446   -351973.53746                  22790505.3984
        17.7504         17.2504
  21067507.4534     622093.47148    412028.46047                  21067514.5234
        30.0004         27.5004
  21672997.5944     707333.86147    465430.01046                  21673005.3554
        22.7504         21.5004
  21014364.5474     616189.59748    407950.59547                  21014370.5824
        28.7504         27.2504
  21197353.2664     160291.97947    110705.02147                  21197360.5474
        27.7504         26.7504
 02  7  8 18 30 30.0000000  0  8G31G 3G 9G14G15G17G18G21
  23940715.3134    -398978.34845   -230051.28645                  23940724.9494
         9.7504         10.0004
  21696913.3754     112869.54247     81804.49746                  21696921.1374
        25.0004         23.5004
  24268293.3984    -179946.72445   -106136.59945                  24268303.2344
         9.0004          9.0004
  22784629.7194    -561823.39046   -375996.70546                  22784638.9804
        17.5004         17.5004
  21075532.2814     664263.55948    444888.24647                  21075539.3754
        29.7504         27.2504
  21682042.2274     754863.58847    502466.13546                  21682050.1524
        22.0004         21.5004
  21022289.7974     657836.27048    440402.53847                  21022295.8444
        28.7504         27.2504
  21199757.2734     172923.92047    120548.09847                  21199764.6604
        27.7504         27.0004
 02  7  8 18 30 45.0000000  0  8G31G 3G 9G14G15G17G18G21
  23936573.3204    -420744.07145   -247011.54545                  23936581.0704
         9.5004          9.7504
  21698803.2814     122800.99347     89543.27346                  21698811.1954
        25.7504         23.7504
  24266805.0704    -187766.55445   -112229.96945                  24266814.4964
         8.7504          9.0004
  22778804.5864    -592433.49746   -399848.67146                  22778813.9774
        17.7504         18.0004
  21083602.4534     706672.65248    477934.26647                  21083609.4534
        29.7504         27.5004
  21691130.8134     802625.31247    539683.02446                  21691138.4694
        22.0004         21.5004
  21030256.7114     699703.10248    473026.02547                  21030262.6644
        29.0004         27.2504
  21202202.1564     185772.00047    130559.59247                  21202209.7894
        27.2504         26.7504
 02  7  8 18 31  0.0000000  0  8G31G 3G 9G14G15G17G18G21
  23932477.4144    -442273.79145   -263787.95445                  23932485.2934
        10.0004         10.2504
  21700748.0394     133020.07947     97506.18346                  21700756.0234
        25.7504         23.7504
  24265361.6644    -195348.26945   -118137.76745                  24265371.9344
         8.5004          9.7504
  22773020.1334    -622832.37846   -423536.04246                  22773028.9264
        18.2504         18.0004
  21091716.2034     749311.98748    511159.69747                  21091723.2974
        29.2504         27.2504
  21700262.5554     850610.26747    577073.86346                  21700270.3284
        22.7504         21.7504
  21038263.7894     741781.12348    505814.08547                  21038269.7664
        29.2504         27.5004
  21204686.4694     198827.33447    140732.58247                  21204693.8674
        27.0004         26.5004
 02  7  8 18 31 15.0000000  0  8G31G 3G 9G14G15G17G18G21
  23928424.8914    -463564.43045   -280378.05045                  23928433.3204
         9.7504         10.0004
  21702747.9924     143529.63647    105695.43446                  21702755.6374
        26.2504         24.0004
  24263965.0864    -202688.74745   -123857.59745                  24263976.9024
         7.7504          8.7504
  22767276.2504    -653016.99646   -447056.46246                  22767285.1844
        19.0004         17.7504
  21099874.7664     792184.31148    544566.67547                  21099882.0474
        30.0004         27.2504
  21709436.7034     898821.20647    614640.79746                  21709444.2194
        23.5004         21.7504
  21046311.9844     784072.94648    538768.73347                  21046317.9734
        29.0004         27.5004
  21207210.7424     212092.54547    151069.11147                  21207217.9304
        27.7504         26.0004
 02  7  8 18 31 30.0000000  0  8G31G 3G 9G14G15G17G18G21
  23924418.1484    -484620.54145   -296785.34445                  23924426.7774
         9.0004          9.7504
  21704802.2114     154324.82747    114107.26046                  21704810.0314
        26.0004         23.7504
  24262613.5394    -209792.53345   -129392.99845                  24262625.8484
         8.7504          9.0004
  22761572.3674    -682991.87646   -470413.45046                  22761580.6214
        19.2504         17.7504
  21108076.2894     835284.69048    578151.36047                  21108083.4414
        30.0004         27.5004
  21718653.1334     947253.20547    652379.99046                  21718660.4384
        23.2504         21.5004
  21054399.3364     826573.43548    571885.99447                  21054405.2664
        29.7504         27.5004
  21209773.9614     225562.68647    161565.32147                  21209780.9144
        27.5004         26.0004
 02  7  8 18 31 45.0000000  0  8G31G 3G 9G14G15G17G18G21
  23920453.4924    -505456.28545   -313020.98845                  23920462.0984
        10.0004          9.5004
  21706907.9064     165391.34347    122730.50646                  21706915.3634
        25.7504         23.5004
  24261304.6254    -216673.68945   -134754.94345                  24261315.7854
         9.0004          9.2504
  22755905.2034    -712771.09346   -493617.96646                  22755913.5744
        19.2504         18.0004
  21116319.0084     878598.77548    611902.57247                  21116326.1954
        30.0004         27.5004
  21727908.5084     995891.91047    690280.25946                  21727916.3404
        22.0004         21.5004
  21062523.8524     869268.08148    605154.54147                  21062529.8054
        29.5004         27.5004
  21212373.4694     239223.33747    172209.98747                  21212380.6914
        27.2504         25.7504
 02  7  8 18 32  0.0000000  0  8G31G 3G 9G14G15G17G18G21
  23916528.3594    -526080.20045   -329091.52145                  23916537.8324
         8.7504          9.7504
  21709063.6804     176720.39347    131558.32546                  21709070.8794
        26.2504         23.7504
  24260035.3054    -223340.71245   -139949.99345                  24260046.5124
         9.2504          8.7504
  22750274.1564    -742363.16546   -516676.66746                  22750282.6914
        19.2504         17.7504
  21124600.3444     922117.62748    645813.34047                  21124607.3914
        29.2504         27.2504
  21737201.8444    1044728.44247    728334.66546                  21737209.6294
        21.2504         21.5004
  21070683.5864     912147.79748    638567.28847                  21070689.6454
        29.5004         27.5004
  21215007.5474     253065.48247    182996.07146                  21215014.7584
        27.2504         25.5004
 02  7  8 18 32 15.0000000  0  8G31G 3G 9G14G15G17G18G21
  23912645.7034    -546486.03745   -344992.17845                  23912655.2584
         9.5004          9.7504
  21711271.0234     188318.03547    140595.44246                  21711278.3754
        27.0004         24.0004
  24258809.2584    -229787.36145   -144973.31745                  24258819.4574
         9.5004          9.0004
  22744679.5864    -771761.95046   -539584.74646                  22744688.2624
        19.2504         18.0004
  21132921.6804     965847.15948    679888.28047                  21132929.0664
        28.7504         27.2504
  21746533.7814    1093768.62647    766547.76946                  21746541.6954
        20.7504         21.2504
  21078879.6644     955218.30448    672128.71047                  21078885.5594
        30.0004         27.7504
  21217677.3754     267094.95047    193928.12647                  21217684.5044
        27.5004         25.7504
 02  7  8 18 32 30.0000000  0  8G31G 3G 9G14G15G17G18G21
  23908802.8054    -566678.45645   -360726.46345                  23908811.7734
        10.5004         10.0004
  21713527.9614     200179.42347    149838.07546                  21713535.3954
        26.2504         24.0004
  24257624.0634    -236018.18845   -149828.48145                  24257633.9924
         9.7504          9.2504
  22739121.1024    -800972.16746   -562345.89646                  22739129.8134
        18.2504         17.5004
  21141282.2584    1009782.46448    714123.56447                  21141289.6334
        28.7504         27.0004
  21755903.6334    1143007.66347    804915.83046                  21755911.4884
        21.0004         21.0004
  21087111.1884     998474.56848    705834.87747                  21087117.1294
        30.0004         27.7504
  21220381.5234     281306.55047    205002.10947                  21220388.8164
        27.7504         26.0004
 02  7  8 18 32 45.0000000  0  8G31G 3G 9G14G15G17G18G21
  23904999.9454    -586663.77845   -376299.47445                  23905008.0824
        10.0004         10.2504
  21715833.9844     212297.97247    159281.08946                  21715841.5704
        26.2504         24.0004
  24256477.7734    -242039.41145   -154520.35345                  24256488.1844
         9.2504          8.7504
  22733597.2894    -830000.07746   -584964.97146                  22733606.1174
        17.7504         17.2504
  21149680.6954    1053916.88648    748514.00047                  21149688.1414
        28.2504         27.0004
  21765309.8674    1192438.81647    843433.58346                  21765318.1214
        20.5004         20.7504
  21095376.4924    1041909.70748    739680.43147                  21095382.4694
        30.0004         27.7504
  21223119.7664     295693.80148    216212.96047                  21223127.1524
        28.5004         26.0004
 02  7  8 18 33  0.0000000  0  8G31G 3G 9G14G15G17G18G21
  23901236.5634    -606442.75645   -391711.62545                  23901244.4304
        10.7504         10.0004
  21718189.0164     224672.68047    168923.71046                  21718196.3794
        26.5004         24.2504
  24255371.4384    -247851.88645   -159049.50145                  24255380.1954
         9.0004          8.5004
  22728107.6644    -858846.35846   -607442.54646                  22728116.6334
        17.7504         17.0004
  21158116.9694    1098249.30647    783058.71947                  21158124.3554
        27.7504         26.7504
  21774752.9224    1242061.00447    882100.19146                  21774761.0594
        20.0004         20.2504
  21103675.7584    1085522.48148    773664.40747                  21103681.7344
        29.7504         27.5004
  21225890.4064     310255.37648    227559.64247                  21225897.5704
        28.5004         26.0004
 02  7  8 18 33 15.0000000  0  8G31G 3G 9G14G15G17G18G21
  23897513.3674    -626009.51345   -406958.47245                  23897522.0204
        10.0004          9.7504
  21720593.5784     237309.16447    178770.31146                  21720601.2934
        26.5004         24.2504
  24254305.9304    -253449.61345   -163411.31945                  24254315.1214
         8.7504          8.0004
  22722654.1804    -887505.10246   -629773.96346                  22722662.8794
        18.5004         17.5004
  21166591.9694    1142785.41547    817762.15447                  21166599.3554
        27.7504         26.7504
  21784233.1334    1291879.90047    920920.07846                  21784241.2234
        21.0004         20.2504
  21112009.7814    1129318.24948    807790.96347                  21112015.8284
        30.0004         27.2504
  21228695.6724     324996.79548    239046.46847                  21228702.9304
        28.7504         26.2504
 02  7  8 18 33 30.0000000  0  8G31G 3G 9G14G15G17G18G21
  23893827.0394    -645373.74045   -422047.42845                  23893835.3524
         8.7504          9.0004
  21723046.1954     250197.51547    188813.16946                  21723053.5704
        26.2504         24.0004
  24253280.2424    -258842.11145   -167613.25645                  24253291.0514
         8.7504          7.7504
  22717234.3054    -915985.99646   -651966.80546                  22717243.4384
        18.0004         17.2504
  21175103.7664    1187515.20147    852616.51047                  21175111.0124
        27.7504         26.5004
  21793749.2504    1341885.40447    959885.37546                  21793756.6954
        21.2504         20.2504
  21120376.6724    1173286.77948    842052.14147                  21120382.6484
        29.7504         27.2504
  21231533.2344     339907.97248    250665.57347                  21231540.3164
        29.7504         26.5004
 02  7  8 18 33 45.0000000  0  8G31G 3G 9G14G15G17G18G21
  23890180.2114    -664542.13345   -436983.83145                  23890188.9574
         8.2504          9.0004
  21725545.3594     263330.74847    199046.84846                  21725552.5944
        26.7504         24.5004
  24252290.9774    -264036.18645   -171660.56545                  24252298.3634
         8.2504          8.2504
  22711847.1334    -944295.83746   -674026.37146                  22711856.4884
        18.5004         17.5004
  21183650.9774    1232431.58347    887616.26147                  21183658.2814
        27.2504         26.5004
  21803298.8914    1392070.47747    998990.59246                  21803306.6414
        21.2504         20.5004
  21128775.2344    1217420.87748    876442.33247                  21128781.2234
        29.7504         27.2504
  21234401.6174     354981.93148    262411.51147                  21234408.6174
        30.0004         26.5004
 02  7  8 18 34  0.0000000  0  8G31G 3G 9G14G15G17G18G21
  23886569.7894    -683511.00245   -451764.69545                  23886579.2624
         9.5004          9.0004
  21728092.0004     276712.38147    209474.09146                  21728099.4344
        26.5004         24.2504
  24251340.3364    -269028.02345   -175550.28745                  24251350.8164
         7.5004          8.0004
  22706493.2194    -972430.80046   -695949.66146                  22706502.3874
        18.5004         17.7504
  21192234.5394    1277537.95448    922764.06447                  21192241.7034
        28.0004         26.5004
  21812883.7424    1442438.59547   1038238.44246                  21812891.3524
        21.2504         20.7504
  21137205.8364    1261723.87648    910964.13447                  21137211.7774
        29.5004         27.2504
  21237301.8204     370222.06648    274286.94547                  21237308.8324
        29.5004         26.7504
 02  7  8 18 34 15.0000000  0  8G31G 3G 9G14G15G17G18G21
  23882998.2894    -702281.95245   -466391.39445                  23883007.6564
         9.0004         10.0004
  21730685.0864     290340.48347    220093.39046                  21730692.4734
        26.0004         24.2504
  24250429.4614    -273819.22545   -179283.65145                  24250439.4494
         8.2504          7.7504
  22701172.1174   -1000392.51446   -717737.94546                  22701181.0864
        18.7504         18.0004
  21200853.8524    1322832.36047    958058.38447                  21200861.1564
        27.7504         26.2504
  21822502.9774    1492987.86847   1077627.44946                  21822510.7974
        20.5004         20.5004
  21145668.1954    1306193.62548    945615.87747                  21145674.2544
        30.2504         27.5004
  21240233.1414     385626.26948    286290.22847                  21240240.1994
        30.0004         26.7504
 02  7  8 18 34 30.0000000  0  8G31G 3G 9G14G15G17G18G21
  23879462.4384    -720864.39145   -480871.21545                  23879471.7114
        10.7504          9.5004
  21733323.4454     304205.41347    230897.21946                  21733331.1024
        26.0004         24.5004
  24249553.8834    -278419.22045   -182868.04645                  24249564.1414
         8.2504          7.7504
  22695882.2194   -1028190.55546   -739398.69146                  22695891.1994
        19.0004         18.2504
  21209507.1804    1368305.09147    993491.66247                  21209514.3794
        27.7504         26.2504
  21832154.7814    1543708.38847   1117149.91346                  21832162.9534
        20.7504         20.5004
  21154160.3984    1350820.18948    980389.81247                  21154166.4104
        30.0004         27.5004
  21243193.7344     401184.46848    298413.50847                  21243201.0044
        30.0004         27.0004
 02  7  8 18 34 45.0000000  0  8G31G 3G 9G14G15G17G18G21
  23875962.4064    -739256.90945   -495203.03145                  23875970.4844
        10.5004         10.0004
  21736007.4384     318308.41447    241886.55046                  21736015.3524
        26.7504         24.5004
  24248715.3134    -282826.49945   -186302.24645                  24248725.3134
         9.0004          8.5004
  22690623.9694   -1055823.33846   -760930.68046                  22690632.8794
        19.2504         18.2504
  21218194.4614    1413957.23248   1029064.73147                  21218201.9064
        28.2504         26.5004
  21841839.2664    1594601.35347   1156806.73646                  21841847.4614
        20.2504         20.5004
  21162682.5864    1395604.51248   1015286.66647                  21162688.5164
        30.0004         27.2504
  21246184.0944     416897.78948    310657.65347                  21246191.2704
        29.7504         26.7504
 02  7  8 18 35  0.0000000  0  8G31G 3G 9G14G15G17G18G21
  23872497.9774    -757461.33045   -509388.26045                  23872506.3834
        11.2504          9.2504
  21738735.9924     332647.38547    253059.76346                  21738743.3674
        27.2504         24.7504
  24247913.1174    -287042.76545   -189587.68245                  24247924.3014
         9.2504          8.5004
  22685396.8524   -1083292.67546   -782335.29346                  22685405.6454
        19.2504         18.5004
  21226915.4064    1459786.78348   1064776.04747                  21226922.9574
        28.7504         26.7504
  21851556.2734    1645664.72347   1196596.34946                  21851564.8914
        20.5004         20.5004
  21171234.3364    1440544.40448   1050304.74947                  21171240.1254
        30.5004         27.5004
  21249202.9694     432764.00448    323020.94547                  21249210.1454
        29.2504         26.7504
 02  7  8 18 35 15.0000000  0  8G31G 3G 9G14G15G17G18G21
  23869069.3984    -775478.86645   -523427.90145                  23869078.5314
         9.7504          9.7504
  21741509.2664     347220.83647    264415.68146                  21741516.7234
        27.2504         24.5004
  24247147.1804    -291069.32545   -192725.21945                  24247156.9344
         9.0004          8.5004
  22680200.2194   -1110599.81346   -803613.52746                  22680208.8954
        19.7504         18.0004
  21235669.8134    1505792.13348   1100624.35147                  21235677.2584
        29.5004         27.0004
  21861305.7114    1696896.81047   1236517.43046                  21861314.4344
        21.0004         20.7504
  21179815.5554    1485638.05748   1085442.65447                  21179821.4024
        30.2504         27.5004
  21252251.1564     448781.67648    335502.24747                  21252258.3554
        28.7504         26.7504
 02  7  8 18 35 30.0000000  0  8G31G 3G 9G14G15G17G18G21
  23865675.0944    -793315.07145   -537326.19345                  23865684.4144
        10.2504          9.2504
  21744325.9614     362023.02947    275949.85146                  21744333.3834
        27.0004         24.5004
  24246415.9774    -294911.58645   -195719.17945                  24246425.0744
         9.2504          9.2504
  22675033.8444   -1137750.31147   -824769.70746                  22675042.2734
        20.5004         18.2504
  21244456.8914    1551967.43348   1136605.08447                  21244464.1954
        29.5004         27.2504
  21871085.5314    1748291.87247   1276565.49546                  21871094.4884
        21.0004         20.7504
  21188424.6254    1530879.46948   1120695.68347                  21188430.5904
        30.0004         27.5004
  21255326.7814     464944.84048    348096.92847                  21255333.8984
        28.5004         26.5004
 02  7  8 18 35 45.0000000  0  8G31G 3G 9G14G15G17G18G21
  23862315.0234    -810971.73245   -551084.58645                  23862326.1374
         9.5004          9.2504
  21747185.7894     377051.94847    287660.68046                  21747193.3634
        26.7504         24.5004
  24245718.9844    -298571.38445   -198570.92445                  24245728.7734
         9.7504          9.0004
  22669896.6644   -1164745.95147   -845805.22146                  22669904.6724
        20.5004         18.2504
  21253275.5944    1598310.49248   1172716.53647                  21253283.1804
        29.5004         27.2504
  21880896.7734    1799847.80647   1316738.91746                  21880905.4844
        21.5004         21.0004
  21197061.4224    1576266.27048   1156062.01147                  21197067.3524
        30.2504         27.2504
  21258430.0554     481251.37148    360803.32047                  21258437.2774
        29.0004         26.2504
 02  7  8 18 36  0.0000000  0  8G31G 3G 9G14G15G17G18G21
  23858988.5864    -828454.51745   -564707.56545                  23858997.9884
        10.5004          9.5004
  21750087.7274     392301.76247    299543.63746                  21750095.4774
        26.7504         24.5004
  24245056.3754    -302054.23245   -201284.78745                  24245066.7384
         9.5004          8.5004
  22664787.9924   -1191592.37047   -866724.47246                  22664795.8834
        20.2504         18.2504
  21262125.4454    1644815.42848   1208954.12347                  21262133.2774
        28.5004         27.0004
  21890737.0784    1851558.56047   1357032.96846                  21890745.2034
        21.7504         20.7504
  21205724.8444    1621792.58348   1191537.04247                  21205730.7034
        30.2504         27.5004
  21261558.8914     497695.03047    373616.55947                  21261566.2194
        27.7504         26.0004
 02  7  8 18 36 15.0000000  0  8G31G 3G 9G14G15G17G18G21
  23855695.2504    -845760.58645   -578192.75745                  23855704.7464
        10.5004          9.7504
  21753032.3594     407774.88747    311600.59846                  21753040.3444
        26.5004         24.5004
  24244427.8284    -305357.31045   -203858.56945                  24244437.0314
         9.7504          8.2504
  22659707.9454   -1218286.73147   -887525.21446                  22659715.9774
        20.0004         18.2504
  21271006.0944    1691484.75948   1245319.80947                  21271014.0084
        28.2504         27.2504
  21900607.1024    1903426.65447   1397449.62446                  21900615.1454
        22.0004         20.7504
  21214415.1334    1667460.54748   1227122.44947                  21214421.0164
        30.0004         27.2504
  21264714.7814     514278.36747    386538.64647                  21264722.2384
        27.7504         26.0004
 02  7  8 18 36 30.0000000  0  8G31G 3G 9G14G15G17G18G21
  23852435.6174    -862889.76945   -591540.17145                  23852443.1454
        11.5004         10.0004
  21756019.0944     423471.33647    323831.58746                  21756027.0084
        27.0004         24.7504
  24243833.4384    -308480.35545   -206292.10545                  24243845.2194
         9.5004          8.5004
  22654657.2034   -1244828.80446   -908207.29846                  22654665.8674
        19.7504         18.5004
  21279918.4694    1738318.37448   1281813.51147                  21279926.3364
        28.5004         26.7504
  21910507.2734    1955452.02647   1437988.84146                  21910515.1884
        21.2504         20.5004
  21223132.3754    1713269.98048   1262818.09947                  21223138.3404
        30.0004         27.5004
  21267896.9384     531001.09148    399569.35147                  21267904.1024
        28.5004         26.0004
 02  7  8 18 36 45.0010000  0  8G31G 3G 9G14G15G17G18G21
  23849209.7244    -879840.73145   -604748.68545                  23849218.1884
        10.5004         10.0004
  21759049.3644     439394.34147    336239.10846                  21759057.3254
        27.0004         24.5004
  24243273.6614    -311421.07145   -208583.52145                  24243283.7554
         9.5004          8.2504
  22649635.3884   -1271217.95846   -928770.21846                  22649644.3334
        19.7504         19.0004
  21288862.6384    1785321.59248   1318439.37347                  21288870.4114
        28.2504         26.5004
  21920438.2004    2007640.24247   1478654.95246                  21920446.2204
        20.7504         20.5004
  21231877.3024    1759225.86448   1298627.86347                  21231883.2554
        30.2504         27.5004
  21271106.2244     547866.54648    412711.26547                  21271113.4354
        28.5004         26.2504
 02  7  8 18 37  0.0010000  0  8G31G 3G 9G14G15G17G18G21
  23846017.3414    -896618.01145   -617821.87345                  23846026.1694
        11.7504         10.2504
  21762120.5214     455534.74947    348816.04546                  21762128.2004
        26.7504         24.5004
  24242747.8644    -314185.88345   -210737.91045                  24242760.1734
         9.7504          8.5004
  22644642.3414   -1297457.41447   -949216.50146                  22644651.0874
        20.2504         19.0004
  21297837.0754    1832481.02148   1355186.94747                  21297844.7674
        28.7504         26.7504
  21930397.7784    2059977.25847   1519437.00546                  21930406.0324
        20.7504         20.7504
  21240647.7944    1805314.81748   1334541.31847                  21240653.6884
        30.0004         27.0004
  21274341.1064     564864.99148    425956.81347                  21274348.3174
        29.0004         26.2504
 02  7  8 18 37 15.0010000  0  8G31G 3G 9G14G15G17G18G21
  23842856.7784    -913225.02345   -630762.35945                  23842864.3174
        10.5004          9.5004
  21765233.2084     471891.13547    361561.27346                  21765240.7244
        26.0004         24.5004
  24242254.4664    -316777.27945   -212757.14045                  24242265.9314
         9.7504          8.5004
  22639676.7164   -1323551.29946   -969549.34546                  22639685.1104
        19.5004         18.5004
  21306841.0914    1879797.16048   1392056.64247                  21306848.5834
        29.7504         26.5004
  21940385.5054    2112463.97747   1560335.71646                  21940394.0404
        20.5004         20.7504
  21249443.6224    1851536.94248   1370558.55447                  21249449.5994
        29.7504         27.2504
  21277600.8804     581995.05148    439304.91947                  21277608.2784
        29.0004         26.5004
 02  7  8 18 37 30.0010000  0  8G31G 3G 9G14G15G17G18G21
  23839729.4114    -929659.31445   -643568.30545                  23839737.8414
        10.2504          9.5004
  21768387.2634     488465.61247    374476.43346                  21768395.0954
        27.0004         24.7504
  24241795.0214    -319192.67645   -214639.17845                  24241806.3924
         9.2504          8.5004
  22634739.1614   -1349497.06146   -989766.76246                  22634747.4854
        19.7504         18.7504
  21315874.9974    1927272.12648   1429050.10047                  21315882.3844
        29.5004         26.5004
  21950402.3414    2165102.59247   1601352.79446                  21950410.5714
        20.7504         20.5004
  21258265.2784    1897894.40748   1406681.23647                  21258271.2554
        29.5004         27.2504
  21280886.2394     599258.95048    452757.31447                  21280893.6034
        28.5004         26.5004
 02  7  8 18 37 45.0010000  0  8G31G 3G 9G14G15G17G18G21
  23836634.2784    -945923.57545   -656241.71945                  23836642.3334
         9.7504          9.5004
  21771582.2474     505255.30047    387559.29646                  21771589.9034
        27.7504         25.2504
  24241367.8024    -321434.67645   -216386.22245                  24241377.6734
         9.5004          8.7504
  22629829.6384   -1375297.38147  -1009870.86246                  22629837.4704
        20.0004         18.7504
  21324938.9504    1974902.97248   1466165.01647                  21324946.1384
        28.7504         26.2504
  21960447.4424    2217889.96747   1642485.77946                  21960455.8374
        21.0004         20.7504
  21267111.9034    1944384.04248   1442906.90247                  21267117.8334
        30.0004         27.2504
  21284196.0284     616653.58648    466311.58347                  21284203.4854
        28.7504         26.5004
 02  7  8 18 38  0.0010000  0  8G31G 3G 9G14G15G17G18G21
  23833572.3334    -962016.35445   -668781.52445                  23833580.6104
        11.2504         10.0004
  21774818.3104     522261.34447    400810.74846                  21774826.0134
        27.2504         25.0004
  24240975.0524    -323501.87345   -217996.97145                  24240986.7634
        10.0004          8.2504
  22624947.8724   -1400950.82347  -1029860.50246                  22624956.0324
        20.2504         18.7504
  21334032.8964    2022690.80748   1503402.26547                  21334040.1184
        28.7504         26.2504
  21970521.2084    2270827.29147   1683735.60746                  21970529.5674
        21.2504         20.7504
  21275984.0444    1991006.81348   1479236.31947                  21275989.9154
        30.2504         27.5004
  21287531.3564     634180.01448    479968.54447                  21287538.7904
        28.2504         26.5004
 02  7  8 18 38 15.0010000  0  8G31G 3G 9G14G15G17G18G21
  23830543.1534    -977933.72645   -681184.65845                  23830551.9114
        11.0004         10.2504
  21778096.5444     539487.41047    414233.65046                  21778104.2124
        27.0004         25.2504
  24240615.6464    -325390.28645   -219468.41345                  24240625.0484
        10.5004          8.7504
  22620094.7864   -1426453.50747  -1049732.66546                  22620102.7824
        21.0004         19.0004
  21343157.0674    2070639.25648   1540764.66747                  21343164.2784
        28.5004         26.2504
  21980624.2244    2323918.15247   1725105.07546                  21980632.3604
        21.5004         20.7504
  21284881.9744    2037766.12948   1515672.13747                  21284887.7164
        30.0004         27.0004
  21290892.0284     651841.74648    493730.94547                  21290899.5094
        28.0004         26.5004
 02  7  8 18 38 30.0010000  0  8G31G 3G 9G14G15G17G18G21
  23827546.4354    -993682.59345   -693456.49245                  23827554.9814
        11.5004         10.5004
  21781414.9194     556926.29847    427822.38746                  21781422.7744
        27.2504         25.0004
  24240289.1694    -327106.87145   -220805.97245                  24240297.2474
        11.2504          8.2504
  22615268.9744   -1451812.31547  -1069492.72546                  22615277.0634
        21.0004         19.0004
  21352310.4744    2118741.05048   1578246.56047                  21352318.0834
        28.5004         26.2504
  21990754.8884    2377155.39447   1766588.60146                  21990762.7084
        21.2504         20.2504
  21293804.7004    2084654.57748   1552208.57447                  21293810.4424
        30.0004         27.2504
  21294277.4274     669631.43248    507593.04147                  21294284.7904
        28.0004         26.5004
 02  7  8 18 38 45.0010000  0  8G31G 3G 9G14G15G17G18G21
  23824580.2554   -1009269.42645   -705602.04545                  23824588.2284
        11.0004         10.2504
  21784772.8334     574571.45047    441571.84846                  21784780.7594
        27.2504         25.0004
  24239993.8884    -328657.97045   -222014.59945                  24240002.5874
        11.0004          9.0004
  22610469.8884   -1477033.55847  -1089145.59146                  22610478.0834
        21.0004         19.2504
  21361491.9354    2166989.47548   1615842.71047                  21361499.4854
        28.2504         26.0004
  22000912.4424    2430532.16347   1808180.84346                  22000920.2984
        21.2504         20.0004
  21302750.3414    2131665.34448   1588840.33347                  21302756.3174
        30.0004         27.0004
  21297685.6464     687542.36248    521549.61047                  21297692.8454
        28.0004         26.0004
 02  7  8 18 39  0.0010000  0  8G31G 3G 9G14G15G17G18G21
  23821646.6464   -1024687.55845   -717616.16045                  23821656.8334
        11.2504         10.2504
  21788170.9354     592429.17447    455486.94546                  21788178.6034
        27.5004         25.2504
  24239732.1694    -330036.89345   -223089.04445                  24239741.3254
        11.7504          9.0004
  22605697.5604   -1502110.63947  -1108686.13246                  22605705.6384
        21.2504         19.5004
  21370702.3254    2215390.83847   1653558.03447                  21370709.8064
        27.7504         26.2504
  22011097.1464    2484054.84247   1849886.79246                  22011104.8964
        20.5004         19.5004
  21311720.7084    2178804.60148   1625572.20147                  21311726.5914
        30.5004         27.0004
  21301118.3254     705580.74647    535605.49347                  21301125.3724
        27.0004         26.2504
 02  7  8 18 39 15.0010000  0  8G31G 3G 9G14G15G17G18G21
  23818743.0444   -1039941.27845   -729502.16045                  23818751.6734
        10.2504         10.0004
  21791608.9504     610494.99247    469564.20346                  21791616.9814
        27.7504         25.2504
  24239501.0994    -331247.83146   -224032.60845                  24239509.4114
        12.2504          9.0004
  22600952.3254   -1527047.90047  -1128117.71746                  22600960.7084
        21.2504         19.2504
  21379941.1224    2263940.57248   1691388.97847                  21379948.7554
        28.2504         26.0004
  22021309.4354    2537718.90247   1891702.90346                  22021317.5014
        20.0004         19.5004
  21320714.5674    2226067.58448   1662400.48747                  21320720.3334
        30.5004         27.2504
  21304574.1384     723741.70447    549756.89147                  21304581.2674
        27.2504         25.7504
 02  7  8 18 39 30.0010000  0  8G31G 3G 9G14G15G17G18G21
  23815871.7864   -1055032.72345   -741261.69445                  23815879.4544
        10.7504          9.5004
  21795085.6694     628766.41847    483801.62046                  21795093.7004
        27.5004         23.0004
  24239302.4034    -332292.92745   -224846.94545                  24239310.8684
        11.5004          9.5004
  22596233.0054   -1551847.51947  -1147442.04846                  22596241.7394
        21.5004         19.7504
  21389207.6464    2312636.12448   1729333.54047                  21389215.0914
        28.2504         25.7504
  22031547.5444    2591521.87546   1933627.25546                  22031555.7164
        19.5004         19.2504
  21329731.3564    2273451.56548   1699323.05247                  21329737.0874
        30.5004         27.2504
  21308052.9744     742022.74347    564001.89446                  21308060.0914
        26.2504         24.2504
 02  7  8 18 39 45.0010000  0  8G31G 3G 9G14G15G17G18G21
  23813030.6924   -1069958.21345   -752891.93045                  23813039.1104
        10.7504          9.7504
  21798602.4274     647246.97547    498202.09946                  21798610.3414
        27.2504         25.0004
  24239135.7164    -333168.39646   -225529.07445                  24239142.6104
        12.7504          9.5004
  22591540.7784   -1576505.63847  -1166656.11546                  22591548.8454
        21.2504         19.0004
  21398502.4664    2361480.99347   1767394.46347                  21398510.1344
        27.7504         25.7504
  22041812.7864    2645467.14546   1975662.50446                  22041820.9814
        19.7504         19.5004
  21338771.9354    2320959.90648   1736342.52747                  21338777.8644
        30.5004         27.2504
  21311555.1614     760427.46347    578343.20147                  21311562.5364
        26.2504         26.0004
 02  7  8 18 40  0.0010000  0  8G31G 3G 9G14G15G17G18G21
  23810223.1854   -1084715.63245   -764391.20045                  23810232.2004
        11.7504         10.2504
  21802159.1694     665938.51847    512766.92046                  21802166.8134
        27.2504         24.7504
  24239001.8564    -333872.15045   -226077.45545                  24239009.4074
        11.7504          9.2504
  22586875.4664   -1601020.28047  -1185758.39046                  22586883.8374
        21.5004         19.7504
  21407826.1924    2410476.95747   1805573.10846                  21407833.7554
        27.2504         25.5004
  22052105.8174    2699556.48546   2017810.00646                  22052114.0364
        19.5004         19.5004
  21347836.4424    2368594.20448   1773460.14647                  21347842.2674
        30.2504         27.0004
  21315081.2864     778957.48247    592782.18347                  21315088.5794
        26.2504         25.7504
 02  7  8 18 40 15.0010000  0  8G31G 3G 9G14G15G17G18G21
  23807446.3644   -1099311.68345   -775764.71145                  23807454.6654
        11.2504         10.7504
  21805755.0134     684833.97247    527490.64146                  21805762.8334
        27.2504         25.2504
  24238899.1774    -334410.86345   -226497.18545                  24238905.7044
        11.5004          9.0004
  22582236.7474   -1625398.16547  -1204754.08946                  22582244.9314
        21.5004         19.7504
  21417177.0994    2459617.07047   1843864.09046                  21417184.7314
        26.7504         25.5004
  22062424.5994    2753782.69846   2060064.16646                  22062432.7354
        19.5004         20.2504
  21356923.5994    2416347.23848   1810670.28947                  21356929.5054
        30.2504         27.0004
  21318630.0054     797605.52047    607313.12047                  21318637.4384
        26.2504         26.0004
 02  7  8 18 40 30.0010000  0  8G31G 3G 9G14G15G17G18G21
  23804699.8174   -1113743.96146   -787010.65645                  23804707.6734
        12.2504         10.2504
  21809389.8564     703935.54647    542374.97146                  21809397.9704
        26.7504         25.0004
  24238828.4274    -334782.08145   -226786.44045                  24238835.7434
        11.0004          9.2504
  22577624.1694   -1649636.78447  -1223641.28546                  22577632.4934
        20.5004         19.5004
  21426556.1854    2508903.38947   1882268.99246                  21426563.9704
        26.5004         25.5004
  22072770.2714    2808148.05946   2102426.73946                  22072778.7944
        19.5004         19.7504
  21366033.6304    2464220.87148   1847974.41247                  21366039.6064
        30.5004         27.0004
  21322201.2634     816373.64047    621937.63347                  21322208.6384
        26.7504         25.7504
 02  7  8 18 40 45.0010000  0  8G31G 3G 9G14G15G17G18G21
  23801984.6614   -1128012.17846   -798128.71445                  23801993.6304
        12.2504         10.7504
  21813064.2394     723243.26547    557419.93246                  21813072.0244
        27.2504         25.0004
  24238789.0994    -334985.43045   -226944.82845                  24238797.8564
        11.2504          9.7504
  22573038.3804   -1673735.80347  -1242419.69546                  22573046.1654
        20.2504         19.5004
  21435962.5754    2558335.94347   1920787.83846                  21435970.5364
        27.0004         25.5004
  22083141.8884    2862652.64846   2144897.80646                  22083150.3414
        19.5004         19.5004
  21375166.6224    2512215.10148   1885372.48347                  21375172.5754
        30.5004         27.0004
  21325795.9034     835261.81247    636655.68847                  21325803.2784
        27.0004         26.2504
 02  7  8 18 41  0.0010000  0  8G31G 3G 9G14G15G17G18G21
  23799298.7714   -1142122.39145   -809123.67345                  23799308.1964
        11.0004         10.7504
  21816776.1854     742750.75247    572620.56346                  21816783.6534
        27.7504         25.0004
  24238781.5444    -335026.91245   -226977.13345                  24238791.1464
        11.5004         10.2504
  22568477.4504   -1697701.25246  -1261094.00946                  22568485.6694
        19.7504         19.5004
  21445396.0284    2607908.24647   1959415.58247                  21445403.9424
        27.2504         25.7504
  22093539.2634    2917289.93546   2187472.27746                  22093547.3534
        19.5004         19.2504
  21384321.4034    2560323.36548   1922859.42147                  21384327.2744
        30.5004         27.0004
  21329411.6854     854263.62647    651462.30047                  21329419.0364
        27.0004         26.2504
 02  7  8 18 41 15.0010000  0  8G31G 3G 9G14G15G17G18G21
  23796643.3254   -1156078.39745   -819998.43145                  23796651.9424
        11.2504         10.2504
  21820525.3804     762453.91848    587973.66546                  21820532.8604
        28.0004         25.0004
  24238804.5364    -334910.37245   -226886.28645                  24238813.0014
        11.7504         10.2504
  22563941.5754   -1721537.03747  -1279667.29246                  22563950.0634
        20.2504         19.7504
  21454855.0444    2657616.17247   1998149.01347                  21454863.0054
        26.7504         25.7504
  22103960.6614    2972055.74546   2230146.89846                  22103968.6694
        19.2504         19.2504
  21393497.0214    2608541.42648   1960431.92047                  21393503.0324
        30.7504         27.0004
  21333048.4894     873375.01647    666354.29847                  21333055.5134
        27.5004         26.0004
 02  7  8 18 41 30.0010000  0  8G31G 3G 9G14G15G17G18G21
  23794017.1854   -1169876.37445   -830750.09745                  23794026.6344
        10.5004         10.7504
  21824312.8804     782356.35848    603482.04646                  21824320.6184
        28.0004         25.0004
  24238857.2714    -334631.90146   -226669.27045                  24238865.4544
        12.2504         10.5004
  22559431.5674   -1745239.18947  -1298136.45246                  22559439.7514
        21.0004         20.2504
  21464340.7714    2707463.28347   2036990.89547                  21464348.5674
        26.7504         25.7504
  22114407.7314    3026953.85746   2272924.60446                  22114415.9974
        19.0004         19.0004
  21402694.0834    2656872.65548   1998092.60647                  21402700.1064
        30.7504         27.0004
  21336706.9424     892599.46847    681334.39147                  21336713.9664
        27.5004         26.0004
 02  7  8 18 41 45.0010000  0  8G31G 3G 9G14G15G17G18G21
  23791421.7944   -1183515.43545   -841377.90745                  23791429.9664
        10.0004         10.2504
  21828138.2474     802458.67148    619146.18046                  21828145.7864
        28.2504         25.2504
  24238941.2714    -334190.72545   -226325.46245                  24238950.3804
        11.7504         10.5004
  22554946.6534   -1768806.99247  -1316500.92446                  22554954.9314
        21.0004         20.2504
  21473853.0914    2757450.11747   2075941.65447                  21473861.1814
        26.5004         25.7504
  22124879.7084    3081984.62946   2315805.69446                  22124888.2084
        19.5004         19.0004
  21411912.8804    2705317.20648   2035841.58847                  21411918.7744
        30.7504         26.7504
  21340386.7784     911937.32647    696402.85947                  21340394.1424
        27.5004         26.2504
 02  7  8 18 42  0.0010000  0  8G31G 3G 9G14G15G17G18G21
  23788857.8254   -1196992.45445   -851879.45945                  23788866.3494
        11.2504         10.2504
  21832002.3104     822763.81348    634968.35746                  21832009.8254
        28.2504         25.0004
  24239056.5914    -333583.56046   -225852.30845                  24239064.5404
        12.2504         10.5004
  22550487.7394   -1792237.17547  -1334758.16446                  22550495.8174
        21.7504         20.2504
  21483392.4114    2807579.63747   2115003.59647                  21483400.1264
        26.7504         26.0004
  22135377.4814    3137150.92346   2358792.37846                  22135386.0404
        19.2504         18.7504
  21421153.7084    2753878.04348   2073681.18547                  21421159.5914
        30.7504         27.0004
  21344088.7554     931391.32647    711561.82747                  21344095.7784
        27.5004         26.0004
 02  7  8 18 42 15.0010000  0  8G31G 3G 9G14G15G17G18G21
  23786323.7634   -1210306.78845   -862254.22845                  23786331.2784
        11.5004         10.5004
  21835904.9034     843272.09748    650948.82846                  21835912.2904
        28.5004         25.2504
  24239203.7944    -332809.71745   -225249.29045                  24239212.3764
        11.2504         11.0004
  22546055.8024   -1815529.07847  -1352907.65046                  22546063.7514
        22.0004         20.5004
  21492958.9034    2857852.08347   2154176.90847                  21492966.7824
        27.0004         26.0004
  22145900.9974    3192453.04946   2401884.90446                  22145909.6854
        19.5004         19.0004
  21430416.6694    2802555.32148   2111611.52347                  21430422.6924
        30.7504         26.7504
  21347812.8564     950961.81947    726811.56547                  21347819.9384
        27.5004         26.0004
 02  7  8 18 42 30.0010000  0  8G31G 3G 9G14G15G17G18G21
  23783819.6774   -1223467.17945   -872509.09345                  23783828.3414
        11.2504         10.5004
  21839844.5914     863974.42348    667080.50746                  21839851.9424
        28.5004         25.5004
  24239380.7634    -331878.06745   -224523.30045                  24239389.6264
        11.5004         11.0004
  22541647.8884   -1838691.47447  -1370956.22346                  22541656.0134
        21.5004         20.0004
  21502551.0604    2908258.30347   2193454.46247                  21502558.8924
        27.7504         26.2504
  22156448.9194    3247881.96447   2445076.22846                  22156457.4074
        20.0004         19.5004
  21439699.9814    2851339.73248   2149625.32847                  21439706.0174
        30.5004         26.5004
  21351557.5284     970639.65847    742144.95047                  21351564.6344
        27.7504         26.0004
 02  7  8 18 42 45.0010000  0  8G31G 3G 9G14G15G17G18G21
  23781344.9034   -1236472.25345   -882642.89645                  23781353.1464
        11.7504         10.7504
  21843821.0444     884871.94848    683364.27746                  21843828.2674
        28.5004         25.5004
  24239588.4584    -330787.03546   -223673.11345                  24239597.6964
        12.5004         11.2504
  22537264.8804   -1861723.05847  -1388902.86946                  22537273.0634
        21.2504         20.2504
  21512168.5914    2958799.52347   2232837.21147                  21512176.4114
        27.2504         26.2504
  22167021.1774    3303438.77247   2488367.21646                  22167029.4424
        20.0004         19.2504
  21449003.9034    2900232.24048   2187723.38447                  21449009.9034
        30.5004         26.5004
  21355322.4274     990425.86847    757562.78047                  21355329.6144
        27.0004         25.7504
 02  7  8 18 43  0.0010000  0  8G31G 3G 9G14G15G17G18G21
  23778900.5284   -1249316.13945   -892651.09445                  23778908.7594
        11.0004         11.0004
  21847835.8564     905970.31548    699804.55346                  21847843.4074
        28.0004         25.5004
  24239827.3024    -329530.73045   -222694.16945                  24239837.7124
        11.5004         11.2504
  22532908.2244   -1884617.94147  -1406742.99146                  22532916.6184
        21.0004         20.2504
  21521813.0914    3009481.29247   2272329.47447                  21521820.7714
        27.7504         26.0004
  22177618.7164    3359129.04246   2531762.18746                  22177626.8764
        19.7504         19.5004
  21458329.4814    2949238.26948   2225909.87347                  21458335.4354
        30.5004         26.5004
  21359109.2944    1010325.81547    773069.24047                  21359116.3174
        27.5004         25.7504
 02  7  8 18 43 15.0010000  0  8G31G 3G 9G14G15G17G18G21
  23776486.9504   -1261998.17645   -902533.17545                  23776495.1464
        10.7504         11.0004
  21851889.1144     927269.91248    716401.63246                  21851896.8174
        28.5004         25.5004
  24240098.0994    -328108.59245   -221585.99545                  24240108.4854
        11.5004         10.5004
  22528577.7244   -1907375.41747  -1424476.03346                  22528586.0134
        21.2504         20.2504
  21531484.2394    3060303.83248   2311931.43447                  21531491.7674
        28.0004         25.7504
  22188241.7164    3414953.06846   2575261.38746                  22188249.7354
        19.7504         19.2504
  21467676.5524    2998357.87448   2264184.88847                  21467682.5284
        30.2504         26.0004
  21362917.8254    1030339.82947    788664.57547                  21362925.0484
        27.0004         25.7504
 02  7  8 18 43 30.0010000  0  8G31G 3G 9G14G15G17G18G21
  23774103.6924   -1274524.51045   -912293.92945                  23774113.2824
        11.0004         11.0004
  21855979.4894     948764.33248    733150.51646                  21855986.8994
        28.5004         25.5004
  24240398.8724    -326526.58845   -220353.24245                  24240409.5754
        11.0004         11.0004
  22524271.8964   -1930001.57147  -1442106.75346                  22524279.9384
        21.7504         20.5004
  21541181.2714    3111260.85948   2351638.18247                  21541188.9034
        28.0004         25.7504
  22198888.8564    3470904.39946   2618859.78546                  22198897.3454
        19.0004         19.2504
  21477044.3024    3047584.57948   2302543.33947                  21477050.3604
        29.7504         26.0004
  21366746.9664    1050461.59547    804343.88247                  21366754.4704
        26.7504         26.0004
 02  7  8 18 43 45.0010000  0  8G31G 3G 9G14G15G17G18G21
  23771749.8884   -1286893.33645   -921931.97045                  23771760.3684
        10.2504         11.7504
  21860107.0134     970455.05147    750052.36846                  21860114.6104
        27.7504         25.5004
  24240730.9504    -324782.91045   -218994.51945                  24240742.2284
        10.7504         11.2504
  22519991.9504   -1952494.55147  -1459633.69746                  22520000.0754
        21.7504         20.7504
  21550903.6384    3162353.84847   2391450.87647                  21550911.1534
        27.7504         26.0004
  22209560.6384    3526984.57746   2662558.57746                  22209568.9974
        19.0004         19.0004
  21486432.4894    3096919.80048   2340986.34747                  21486438.4544
        29.5004         26.2504
  21370596.6304    1070692.44147    820108.18247                  21370604.2984
        26.7504         25.7504
 02  7  8 18 44  0.0010000  0  8G31G 3G 9G14G15G17G18G21
  23769426.3414   -1299102.82945   -931445.81645                  23769436.1064
        11.5004         11.2504
  21864272.0674     992343.68247    767108.42646                  21864280.0174
        27.7504         25.2504
  24241093.3964    -322875.70845   -217508.36245                  24241105.4814
        10.5004         11.5004
  22515737.1854   -1974852.51547  -1477055.43746                  22515744.9354
        22.0004         20.7504
  21560652.6694    3213584.29947   2431370.68647                  21560660.1614
        27.7504         26.0004
  22220257.1384    3583195.04046   2706358.89546                  22220265.8254
        18.7504         18.7504
  21495841.2314    3146364.83248   2379514.93547                  21495847.2434
        29.7504         26.0004
  21374467.4114    1091033.60547    835958.44447                  21374474.7284
        27.2504         26.0004
 02  7  8 18 44 15.0010000  0  8G31G 3G 9G14G15G17G18G21
  23767132.5914   -1311155.82645   -940837.74145                  23767141.4544
        11.5004         11.5004
  21868474.4814    1014426.93547    784316.13746                  21868482.3494
        27.2504         25.2504
  24241487.4424    -320807.83845   -215897.02745                  24241498.0754
        11.5004         11.5004
  22511507.7244   -1997078.49347  -1494374.33546                  22511515.9664
        22.2504         21.0004
  21570426.9894    3264949.00747   2471395.10147                  21570434.6694
        27.5004         26.2504
  22230977.8174    3639532.60746   2750258.25646                  22230986.5404
        18.5004         18.5004
  21505270.8494    3195916.26948   2418126.43147                  21505276.8724
        29.7504         26.0004
  21378358.6144    1111481.95947    851892.22947                  21378365.9194
        27.2504         26.0004
 02  7  8 18 44 30.0010000  0  8G31G 3G 9G14G15G17G18G21
  23764869.8644   -1323048.75745   -950104.95045                  23764878.8104
        11.5004         11.0004
  21872714.7244    1036708.24747    801678.18046                  21872722.1344
        27.5004         25.0004
  24241912.4894    -318575.56246   -214157.57845                  24241922.9704
        12.2504         11.2504
  22507303.8804   -2019168.76347  -1511587.48346                  22507312.1104
        21.7504         20.7504
  21580227.5994    3316451.29347   2511526.72847                  21580235.4194
        27.2504         26.2504
  22241723.3804    3696000.66646   2794259.29446                  22241732.4074
        18.5004         18.7504
  21514720.8564    3245577.44348   2456823.43947                  21514726.9034
        29.7504         26.0004
  21382271.0444    1132040.96047    867912.23547                  21382278.1384
        27.2504         26.0004
 02  7  8 18 44 45.0010000  0  8G31G 3G 9G14G15G17G18G21
  23762636.4744   -1334783.36945   -959248.79345                  23762644.8804
        11.2504         11.0004
  21876991.8334    1059185.66048    819193.03146                  21876999.1614
        28.0004         25.0004
  24242367.6774    -316180.66445   -212291.41845                  24242377.0914
        11.5004         11.5004
  22503125.7474   -2041125.06147  -1528696.23046                  22503134.0364
        21.7504         20.5004
  21590054.1064    3368089.03747   2551763.91047                  21590062.1854
        27.5004         26.2504
  22252493.4664    3752597.15946   2838360.40846                  22252502.1064
        19.2504         18.7504
  21524191.8884    3295346.06848   2495604.16547                  21524197.9234
        29.7504         25.7504
  21386203.6464    1152708.35947    884016.70647                  21386210.9384
        27.5004         26.2504
 02  7  8 18 45  0.0010000  0  8G31G 3G 9G14G15G17G18G21
  23760433.4584   -1346361.14545   -968270.43745                  23760441.1854
        11.0004         10.7504
  21881306.3024    1081857.36148    836859.28246                  21881313.4424
        28.5004         25.0004
  24242854.5134    -313624.62445   -210299.68045                  24242865.1694
        11.5004         11.2504
  22498972.7714   -2062948.85047  -1545701.73046                  22498981.2474
        21.2504         20.7504
  21599905.7554    3419860.49347   2592105.27847                  21599913.7164
        27.7504         26.7504
  22263287.7634    3809320.26346   2882560.18446                  22263296.0174
        19.7504         18.7504
  21533682.4354    3345220.14348   2534467.06647                  21533688.3994
        29.5004         26.0004
  21390156.9504    1173482.11047    900204.05347                  21390164.2314
        27.7504         26.2504
 02  7  8 18 45 15.0010000  0  8G31G 3G 9G14G15G17G18G21
  23758259.7004   -1357783.56245   -977170.97745                  23758267.9894
        11.2504         11.2504
  21885657.3254    1104721.53648    854675.50346                  21885664.6064
        28.2504         25.0004
  24243370.9194    -310908.94745   -208183.55845                  24243381.3644
        11.0004         11.0004
  22494844.6384   -2084641.61647  -1562605.14146                  22494852.9034
        21.0004         20.2504
  21609782.7314    3471763.87448   2632549.44347                  21609790.7634
        28.2504         26.5004
  22274105.4584    3866168.15147   2926857.19646                  22274113.8764
        20.0004         19.0004
  21543192.8104    3395197.83348   2573410.70547                  21543198.6924
        29.2504         25.7504
  21394129.9354    1194360.42948    916472.87647                  21394136.9114
        28.0004         26.2504
 02  7  8 18 45 30.0010000  0  8G31G 3G 9G14G15G17G18G21
  23756114.6144   -1369056.22745   -985954.86345                  23756123.7594
        11.0004         11.0004
  21890043.5214    1127772.41148    872637.20046                  21890050.9664
        28.2504         25.0004
  24243917.3024    -308039.20345   -205947.38145                  24243927.6534
        10.7504         11.2504
  22490740.6774   -2106208.84147  -1579410.71846                  22490748.7904
        21.5004         20.2504
  21619683.6694    3523793.27547   2673091.80947                  21619691.7004
        27.7504         26.5004
  22284945.8804    3923134.96246   2971246.88446                  22284954.1574
        19.7504         19.0004
  21552722.0674    3445273.03448   2612430.32747                  21552727.9974
        29.7504         26.0004
  21398121.7474    1215337.41648    932818.59247                  21398128.8414
        28.7504         26.5004
 02  7  8 18 45 45.0010000  0  8G31G 3G 9G14G15G17G18G21
  23753999.7164   -1380169.11045   -994614.23945                  23754008.8604
        10.5004         11.5004
  21894467.5994    1151019.66648    890751.92946                  21894475.3134
        28.0004         25.2504
  24244494.3254    -305005.22445   -203583.24845                  24244504.6184
        10.5004         11.2504
  22486662.2634   -2127640.60047  -1596110.73846                  22486670.2944
        22.2504         20.5004
  21629610.4974    3575958.36748   2713739.90547                  21629618.3994
        28.0004         26.5004
  22295810.6854    3980230.34246   3015736.74746                  22295819.2314
        18.7504         18.7504
  21562271.3804    3495455.32248   2651533.40047                  21562277.4504
        29.5004         26.0004
  21402134.1224    1236422.82548    949248.78247                  21402141.2514
        28.7504         26.7504
 02  7  8 18 46  0.0010000  0  8G31G 3G 9G14G15G17G18G21
  23751914.2634   -1391130.61545  -1003155.65345                  23751922.9854
        11.7504         11.7504
  21898926.8884    1174454.48648    909012.80146                  21898934.2514
        28.0004         24.7504
  24245101.5914    -301815.44745   -201097.68145                  24245113.1494
        10.5004         11.2504
  22482608.3964   -2148945.29147  -1612711.75546                  22482616.0524
        23.0004         20.7504
  21639561.1854    3628250.45148   2754486.96747                  21639569.0284
        28.0004         26.2504
  22306698.1774    4037445.54146   3060319.98946                  22306706.9814
        17.7504         18.5004
  21571839.2784    3545735.78748   2690712.97247                  21571845.2434
        29.5004         26.0004
  21406165.5444    1257607.71748    965756.50047                  21406172.6614
        28.7504         26.7504
 02  7  8 18 46 15.0010000  0  8G31G 3G 9G14G15G17G18G21
  23749856.8644   -1401941.57145  -1011579.74745                  23749865.4584
        11.7504         11.7504
  21903421.8024    1198075.88647    927419.07046                  21903429.2354
        27.0004         24.7504
  24245738.1064    -298470.66945   -198491.35945                  24245748.7044
        10.5004         11.0004
  22478578.2944   -2170123.74247  -1629214.40946                  22478586.1034
        23.7504         21.2504
  21649536.0994    3680668.47747   2795332.15947                  21649543.9194
        27.7504         26.0004
  22317608.4974    4094779.61746   3104995.84246                  22317617.6184
        17.2504         18.2504
  21581425.9354    3596113.32248   2729968.18747                  21581431.8994
        29.5004         26.0004
  21410215.7474    1278890.99048    982340.87547                  21410222.9114
        29.0004         26.7504
 02  7  8 18 46 30.0010000  0  8G31G 3G 9G14G15G17G18G21
  23747830.0444   -1412592.64646  -1019879.27346                  23747839.4114
        12.7504         12.0004
  21907954.3494    1221892.98647    945977.83546                  21907962.1464
        27.0004         25.0004
  24246405.5524    -294961.53045   -195756.98845                  24246416.4784
        10.5004         11.0004
  22474573.8414   -2191166.63347  -1645611.41546                  22474581.4974
        24.0004         21.2504
  21659536.6224    3733221.42747   2836282.49047                  21659544.6774
        27.7504         26.0004
  22328543.1774    4152241.33746   3149771.17246                  22328551.8994
        17.0004         18.0004
  21591032.4974    3646596.69448   2769305.87447                  21591038.4384
        29.2504         26.0004
  21414286.0134    1300281.37848    999008.71447                  21414292.9894
        28.7504         26.5004
 02  7  8 18 46 45.0010000  0  8G31G 3G 9G14G15G17G18G21
  23745832.1854   -1423091.01946  -1028059.79245                  23745841.6814
        12.5004         11.7504
  21912522.2314    1245898.24947    964683.21546                  21912530.2394
        27.0004         25.0004
  24247102.9744    -291295.15545   -192900.03645                  24247112.6924
        10.0004         10.5004
  22470593.6534   -2212081.10747  -1661908.36146                  22470601.6144
        23.5004         21.5004
  21669561.3104    3785901.84647   2877332.13947                  21669569.2354
        27.7504         25.7504
  22339500.8564    4209823.47646   3194640.33546                  22339509.5444
        17.7504         17.5004
  21600657.9894    3697178.33948   2808720.12647                  21600664.1064
        28.7504         25.7504
  21418375.4354    1321771.78648   1015754.49247                  21418382.3994
        28.7504         26.5004
 02  7  8 18 47  0.0010000  0  8G31G 3G 9G14G15G17G18G21
  23743863.3644   -1433438.04146  -1036122.39345                  23743872.4974
        12.2504         11.5004
  21917125.8964    1270090.04947    983533.95846                  21917134.2314
        26.5004         25.2504
  24247831.1614    -287472.87645   -189921.66445                  24247842.3104
        10.0004         10.5004
  22466637.8494   -2232868.52547  -1678106.30146                  22466646.0564
        23.0004         21.7504
  21679610.0674    3838708.04947   2918479.80947                  21679617.8414
        27.5004         25.7504
  22350480.6774    4267524.13946   3239601.85146                  22350489.4934
        17.7504         17.7504
  21610301.6144    3747856.48248   2848209.58647                  21610307.5794
        28.7504         26.0004
  21422483.6384    1343360.27548   1032576.70047                  21422490.5214
        28.5004         26.2504
 02  7  8 18 47 15.0010000  0  8G31G 3G 9G14G15G17G18G21
  23741922.9814   -1443634.96346  -1044068.04145                  23741931.7394
        12.2504         11.2504
  21921764.5054    1294466.86547   1002528.86246                  21921772.7594
        27.2504         25.5004
  24248587.0834    -283495.95245   -186822.79345                  24248597.0834
        10.5004         10.7504
  22462705.9894   -2253530.09247  -1694206.17846                  22462713.8924
        22.7504         21.0004
  21689682.4664    3891638.40747   2959724.20946                  21689690.0994
        27.7504         25.5004
  22361483.6534    4325341.93146   3284654.62146                  22361492.0364
        18.5004         17.5004
  21619963.4814    3798629.32048   2887772.82647                  21619969.4584
        28.7504         26.0004
  21426610.1694    1365045.22248   1049474.06347                  21426617.2164
        28.7504         26.5004
 02  7  8 18 47 30.0010000  0  8G31G 3G 9G14G15G17G18G21
  23740012.5834   -1453673.46846  -1051890.24445                  23740020.4154
        12.0004         11.0004
  21926440.1144    1319036.61647   1021674.11546                  21926448.1464
        27.5004         25.5004
  24249375.3884    -279355.96745   -183596.81045                  24249384.8494
         9.7504         10.0004
  22458799.8964   -2274057.42747  -1710201.44946                  22458807.8454
        22.7504         21.2504
  21699780.0994    3944700.94347   3001071.61847                  21699788.0364
        27.7504         25.7504
  22372509.6854    4383284.75146   3329804.81646                  22372518.1614
        18.5004         17.7504
  21629644.7864    3849504.77048   2927416.02847                  21629650.7284
        29.2504         26.2504
  21430756.4814    1386834.61448   1066452.81747                  21430763.6224
        28.5004         26.5004
 02  7  8 18 47 45.0010000  0  8G31G 3G 9G14G15G17G18G21
  23738130.7314   -1463561.20845  -1059594.96145                  23738138.0714
        11.7504         11.0004
  21931150.5524    1343791.38247   1040963.52946                  21931158.2784
        27.0004         25.2504
  24250193.1854    -275060.63945   -180249.80845                  24250202.0364
        10.7504          9.7504
  22454917.4744   -2294458.19747  -1726098.11446                  22454925.1774
        23.7504         21.2504
  21709901.1464    3997887.78147   3042515.87947                  21709908.8374
        27.5004         25.7504
  22383557.7864    4441344.68846   3375046.28046                  22383566.6854
        18.5004         18.0004
  21639344.1064    3900474.73348   2967132.87547                  21639350.0834
        29.7504         26.2504
  21434921.1924    1408720.48748   1083506.74947                  21434928.3104
        28.2504         26.2504
 02  7  8 18 48  0.0010000  0  8G31G 3G 9G14G15G17G18G21
  23736277.2634   -1473302.82946  -1067185.83745                  23736284.3104
        12.5004         11.5004
  21935895.7864    1368726.29047   1060393.31146                  21935903.5364
        27.5004         25.2504
  24251038.5214    -270614.46845   -176785.27845                  24251048.3334
        10.0004          9.7504
  22451058.6144   -2314736.95147  -1741899.69546                  22451066.3294
        24.2504         21.7504
  21720044.9664    4051193.99048   3084053.16447                  21720052.7044
        28.0004         25.7504
  22394628.0524    4499516.89646   3420375.23046                  22394637.0794
        18.0004         18.0004
  21649060.2634    3951534.10848   3006919.38847                  21649066.2284
        29.7504         26.7504
  21439103.5674    1430697.92948   1100632.02847                  21439110.4274
        28.2504         26.2504
 02  7  8 18 48 15.0010000  0  8G31G 3G 9G14G15G17G18G21
  23734452.5674   -1482891.77646  -1074657.71545                  23734459.8374
        12.2504         11.0004
  21940676.1064    1393847.56348   1079968.31446                  21940683.5524
        28.0004         25.0004
  24251914.4274    -266011.00245   -173198.10245                  24251924.0404
        11.0004         10.0004
  22447224.4034   -2334887.27547  -1757601.19946                  22447232.1064
        24.2504         21.7504
  21730212.6694    4104625.66548   3125688.21746                  21730220.2554
        28.0004         25.5004
  22405720.2634    4557807.51646   3465796.44046                  22405729.4544
        17.7504         18.0004
  21658794.5674    4002688.92148   3046780.27047                  21658800.4504
        30.5004         26.5004
  21443304.3564    1452773.02948   1117833.41347                  21443311.3104
        28.0004         26.2504
 02  7  8 18 48 30.0010000  0  8G31G 3G 9G14G15G17G18G21
  23732656.7554   -1492326.91446  -1082009.75445                  23732664.6694
        12.2504         11.2504
  21945492.0994    1419156.09348   1099689.23846                  21945499.3334
        28.0004         25.0004
  24252820.3494    -261248.97045   -169487.46445                  24252831.0404
        10.5004         10.0004
  22443414.2944   -2354907.95247  -1773201.68646                  22443421.6924
        23.7504         22.0004
  21740404.4894    4158183.85547   3167421.84646                  21740412.1464
        27.5004         25.5004
  22416835.1534    4616217.38546   3511310.57646                  22416843.9584
        17.5004         17.7504
  21668547.4274    4053939.86748   3086716.05847                  21668553.4624
        30.2504         26.5004
  21447523.6464    1474946.59748   1135111.51747                  21447530.6464
        28.2504         26.2504
 02  7  8 18 48 45.0010000  0  8G31G 3G 9G14G15G17G18G21
  23730891.2944   -1501605.69946  -1089239.94345                  23730899.6304
        12.2504         11.5004
  21950344.2554    1444654.07547   1119557.77946                  21950351.6534
        27.7504         25.2504
  24253757.9814    -256325.86145   -165651.24045                  24253767.2904
        10.5004         10.0004
  22439629.7164   -2374796.47747  -1788699.19446                  22439637.7824
        23.7504         22.0004
  21750620.6614    4211870.64147   3209255.68146                  21750628.4234
        26.7504         25.2504
  22427973.2634    4674748.63446   3556919.29546                  22427981.9504
        18.0004         18.0004
  21678319.0444    4105289.28348   3126728.58547                  21678325.0794
        30.2504         26.5004
  21451762.4354    1497220.75347   1152468.00047                  21451769.4814
        27.5004         26.2504
 02  7  8 18 49  0.0010000  0  8G31G 3G 9G14G15G17G18G21
  23729155.2164   -1510725.44945  -1096346.21245                  23729164.0214
        11.7504         11.0004
  21955232.8334    1470344.09847   1139575.95346                  21955240.5714
        26.7504         25.2504
  24254725.9274    -251238.82345   -161687.30545                  24254734.6144
        10.5004         10.0004
  22435870.5364   -2394550.09647  -1804091.57446                  22435878.5444
        23.0004         21.7504
  21760861.9034    4265688.53347   3251191.67146                  21760869.5604
        27.2504         25.0004
  22439135.3104    4733403.77546   3602624.57446                  22439143.9854
        18.0004         17.7504
  21688109.7554    4156739.41548   3166819.59047                  21688115.7554
        30.5004         26.7504
  21456020.4664    1519597.74847   1169904.62447                  21456027.4074
        27.2504         26.0004
 02  7  8 18 49 15.0010000  0  8G31G 3G 9G14G15G17G18G21
  23727449.5444   -1519690.83446  -1103332.22545                  23727458.6424
        12.0004         11.2504
  21960157.1614    1496220.95647   1159739.72346                  21960165.0874
        27.2504         25.0004
  24255723.6384    -245992.77345   -157599.45445                  24255732.1494
        10.2504         10.0004
  22432136.3334   -2414173.61447  -1819382.57346                  22432144.5054
        23.5004         21.7504
  21771127.0444    4319632.46547   3293225.88546                  21771134.6884
        27.0004         24.7504
  22450319.0994    4792177.73246   3648422.40246                  22450327.9154
        18.0004         17.7504
  21697918.3174    4208285.07348   3206985.01847                  21697924.2594
        30.5004         26.7504
  21460297.2244    1542072.54248   1187417.45847                  21460304.1424
        28.2504         26.5004
 02  7  8 18 49 30.0010000  0  8G31G 3G 9G14G15G17G18G21
  23725772.7244   -1528501.78645  -1110197.87345                  23725781.2474
        11.5004         11.2504
  21965116.9354    1522284.43847   1180048.91046                  21965124.7204
        26.7504         25.0004
  24256752.3104    -240587.50945   -153387.55445                  24256760.7284
        11.0004         10.2504
  22428427.0284   -2433666.69747  -1834571.94046                  22428435.0714
        24.2504         22.0004
  21781416.4744    4373702.26947   3335358.17146                  21781424.1884
        27.0004         25.0004
  22461526.6614    4851070.41446   3694312.75746                  22461535.1734
        18.2504         17.7504
  21707745.4274    4259925.86948   3247224.60447                  21707751.4504
        30.7504         27.0004
  21464592.6854    1564644.81348   1205006.24147                  21464599.9074
        28.0004         26.2504
 02  7  8 18 49 45.0010000  0  8G31G 3G 9G14G15G17G18G21
  23724125.6224   -1537159.18146  -1116943.87945                  23724134.0404
        12.2504         11.2504
  21970112.0214    1548533.43847   1200502.66046                  21970119.3134
        27.5004         25.0004
  24257811.5914    -235023.87545   -149052.22445                  24257820.1034
        10.7504         10.5004
  22424742.1854   -2453030.31847  -1849660.44146                  22424749.9114
        24.0004         22.0004
  21791729.1854    4427896.69647   3377587.56546                  21791736.8644
        27.2504         25.0004
  22472756.1064    4910080.42446   3740294.52446                  22472764.5014
        18.2504         18.0004
  21717590.1694    4311660.34448   3287537.17247                  21717596.2284
        30.5004         26.5004
  21468906.3174    1587313.53347   1222670.17747                  21468913.5524
        27.2504         26.2504
 02  7  8 18 50  0.0010000  0  8G31G 3G 9G14G15G17G18G21
  23722505.9114   -1545671.15745  -1123576.56545                  23722513.5324
        11.7504         11.0004
  21975140.6854    1574959.45947   1221094.35546                  21975147.8604
        27.0004         24.7504
  24258898.4114    -229310.00645   -144599.87145                  24258908.3884
        11.0004         10.0004
  22421080.6064   -2472272.67547  -1864654.43946                  22421088.3334
        24.2504         21.7504
  21802064.1694    4482207.20447   3419907.40846                  21802071.8844
        27.2504         25.2504
  22484005.9584    4969199.45246   3786361.24546                  22484014.1654
        18.2504         17.7504
  21727451.0364    4363480.04348   3327916.15547                  21727457.1184
        30.0004         26.5004
  21473236.8564    1610069.98848   1240402.48847                  21473243.8924
        28.0004         26.5004
 02  7  8 18 50 15.0010000  0  8G31G 3G 9G14G15G17G18G21
  23720915.7004   -1554027.69946  -1130088.13845                  23720922.7474
        12.2504         11.0004
  21980204.9424    1601572.21947   1241831.56246                  21980212.5874
        27.0004         25.0004
  24260016.5994    -223435.78145   -140022.53545                  24260026.3884
        10.7504         10.7504
  22417443.6064   -2491383.70347  -1879546.10546                  22417450.9814
        24.2504         22.0004
  21812423.1384    4536643.64947   3462325.38446                  21812430.9704
        27.7504         25.2504
  22495278.6774    5028437.09546   3832520.40646                  22495286.8024
        18.2504         17.5004
  21737330.0674    4415394.65248   3368369.08147                  21737336.2314
        30.0004         26.7504
  21477585.5834    1632923.88648   1258210.72447                  21477592.5484
        28.0004         26.5004
 02  7  8 18 50 30.0010000  0  8G31G 3G 9G14G15G17G18G21
  23719353.8334   -1562234.88946  -1136483.33745                  23719361.1854
        12.2504         11.0004
  21985303.3964    1628365.49347   1262709.41746                  21985311.3684
        26.7504         25.0004
  24261163.8724    -217407.19945   -135324.89845                  24261172.8064
        11.5004         10.2504
  22413830.7394   -2510369.32347  -1894340.05346                  22413838.2784
        24.2504         22.0004
  21822804.8334    4591199.72147   3504836.58146                  21822812.6774
        27.7504         25.2504
  22506572.2944    5087787.20446   3878767.18046                  22506580.8644
        17.5004         17.2504
  21747225.8104    4467397.61048   3408890.85847                  21747232.1264
        29.7504         26.5004
  21481951.9114    1655869.08747   1276090.10447                  21481958.9234
        27.7504         26.5004
 02  7  8 18 50 45.0010000  0  8G31G 3G 9G14G15G17G18G21
  23717820.5834   -1570290.22346  -1142760.22445                  23717827.1814
        12.0004         10.7504
  21990436.8414    1655341.35347   1283729.54746                  21990444.8374
        27.2504         25.2504
  24262340.8724    -211221.87845   -130505.18145                  24262350.1344
        11.0004         10.7504
  22410242.4114   -2529227.17347  -1909034.44546                  22410249.9624
        24.7504         22.0004
  21833209.5604    4645877.43047   3547442.56646                  21833217.5094
        27.2504         25.5004
  22517888.1144    5147251.83946   3925103.21946                  22517897.1304
        17.5004         17.7504
  21757138.9424    4519490.82848   3449482.97247                  21757145.1064
        29.7504         26.5004
  21486335.9584    1678907.45448   1294042.08747                  21486343.0404
        28.2504         26.5004
 02  7  8 18 51  0.0010000  0  8G31G 3G 9G14G15G17G18G21
  23716317.3334   -1578192.61445  -1148917.90545                  23716325.0714
        11.2504         11.2504
  21995605.2474    1682500.65947   1304892.62746                  21995613.0914
        27.7504         25.5004
  24263548.1464    -204878.66645   -125562.36645                  24263558.1464
        11.5004         10.7504
  22406678.3644   -2547956.10247  -1923628.37646                  22406685.9274
        24.7504         22.2504
  21843637.6144    4700677.60247   3590143.96946                  21843645.5754
        26.5004         25.2504
  22529225.9744    5206831.69146   3971529.03646                  22529234.6964
        17.2504         17.7504
  21767069.1694    4571675.09348   3490146.03147                  21767075.3214
        30.2504         26.5004
  21490738.1774    1702039.78648   1312067.27947                  21490745.4114
        28.0004         26.5004
 02  7  8 18 51 15.0010000  0  8G31G 3G 9G14G15G17G18G21
  23714842.8964   -1585939.37845  -1154954.31545                  23714852.4384
        11.5004         11.2504
  22000808.9034    1709845.83747   1326200.54946                  22000816.5364
        27.7504         25.5004
  24264785.4504    -198374.82645   -120494.41445                  24264795.3214
        11.2504         10.7504
  22403139.4194   -2566553.35947  -1938119.69746                  22403147.2514
        24.5004         22.7504
  21854089.7314    4755602.64947   3632942.67946                  21854097.9624
        27.0004         25.5004
  22540585.9814    5266529.30046   4018046.60846                  22540595.1964
        17.5004         18.0004
  21777017.3884    4623952.78048   3530881.87347                  21777023.4114
        30.0004         26.2504
  21495158.2944    1725268.54047   1330167.61347                  21495165.5994
        27.7504         26.5004
 02  7  8 18 51 30.0010000  0  8G31G 3G 9G14G15G17G18G21
  23713398.9424   -1593528.62045  -1160868.00945                  23713407.5954
        11.5004         11.7504
  22006048.1304    1737378.37047   1347654.45646                  22006055.6224
        27.7504         25.2504
  24266054.3334    -191708.54345   -115299.86145                  24266063.4544
        11.7504         10.2504
  22399625.7084   -2585017.24847  -1952507.10546                  22399633.4584
        24.2504         23.0004
  21864565.4974    4810654.13447   3675839.91446                  21864573.5404
        27.2504         25.5004
  22551968.8334    5326346.14046   4064657.09446                  22551977.9314
        18.0004         18.0004
  21786983.6064    4676325.23348   3571691.57447                  21786989.5364
        30.0004         26.0004
  21499597.2714    1748595.06747   1348344.13347                  21499604.4704
        27.7504         26.5004
 02  7  8 18 51 45.0010000  0  8G31G 3G 9G14G15G17G18G21
  23711983.8724   -1600963.86746  -1166661.67346                  23711992.9704
        12.2504         12.2504
  22011322.2474    1765094.52447   1369251.44746                  22011329.9154
        27.7504         25.5004
  24267353.0444    -184883.25145   -109981.43645                  24267361.6264
        11.2504         10.0004
  22396137.0524   -2603351.12747  -1966793.19846                  22396144.9424
        24.5004         23.0004
  21875064.9504    4865828.29147   3718832.73646                  21875072.5604
        27.5004         25.5004
  22563373.6694    5386278.45246   4111357.54646                  22563382.7084
        18.2504         18.2504
  21796966.9114    4728788.62248   3612572.12647                  21796972.8884
        30.0004         26.2504
  21504053.9814    1772015.75648   1366594.02447                  21504061.1344
        28.0004         26.2504
 02  7  8 18 52  0.0010000  0  8G31G 3G 9G14G15G17G18G21
  23710598.9504   -1608241.41645  -1172332.47646                  23710607.9894
        11.5004         12.0004
  22016632.1614    1792997.63847   1390994.12246                  22016639.6184
        27.5004         25.2504
  24268682.6534    -177895.21145   -104536.18145                  24268692.2904
        11.0004         10.5004
  22392673.2314   -2621551.29947  -1980975.10246                  22392680.7944
        24.5004         22.5004
  21885588.1854    4921128.57747   3761923.84346                  21885596.0054
        27.2504         25.2504
  22574801.1854    5446329.56846   4158150.56446                  22574810.2824
        18.2504         18.0004
  21806968.3254    4781346.14848   3653526.03247                  21806974.2674
        30.2504         26.0004
  21508529.1464    1795533.71848   1384919.71447                  21508536.4974
        28.2504         26.2504
 02  7  8 18 52 15.0010000  0  8G31G 3G 9G14G15G17G18G21
  23709242.6384   -1615366.85045  -1177884.75246                  23709251.6424
        11.5004         12.0004
  22021976.4034    1821081.86847   1412877.92746                  22021984.0834
        27.2504         25.2504
  24270041.6464    -170749.97345    -98968.45045                  24270052.5244
        10.0004          9.7504
  22389234.3564   -2639623.27047  -1995057.11446                  22389242.1884
        24.5004         22.7504
  21896134.6534    4976549.10847   3805108.64046                  21896142.3104
        27.2504         25.0004
  22586250.1144    5506493.73746   4205031.68246                  22586258.8844
        18.0004         18.0004
  21816986.5444    4833991.76448   3694548.58047                  21816992.5564
        30.0004         25.7504
  21513022.0054    1819143.13347   1403316.66447                  21513029.2284
        27.5004         26.2504
 02  7  8 18 52 30.0010000  0  8G31G 3G 9G14G15G17G18G21
  23707917.0754   -1622332.51345  -1183312.52246                  23707926.1384
        11.7504         12.2504
  22027356.4744    1849354.45547   1434908.50346                  22027364.0364
        27.0004         25.2504
  24271433.0524    -163439.97745    -93272.30745                  24271442.9114
        10.0004         10.0004
  22385821.2084   -2657559.42047  -2009033.30146                  22385828.7714
        24.2504         23.0004
  21906705.0524    5032097.17247   3848392.82046                  21906712.7784
        27.5004         25.2504
  22597721.8254    5566778.04846   4252006.42046                  22597730.3374
        17.7504         17.7504
  21827022.7164    4886732.60048   3735645.34047                  21827028.7044
        30.0004         25.7504
  21517533.5914    1842851.20447   1421790.49547                  21517541.0244
        27.2504         26.2504
 02  7  8 18 52 45.0020000  0  8G31G 3G 9G14G15G17G18G21
  23706619.8304   -1629151.03246  -1188625.64445                  23706627.6624
        12.5004         11.7504
  22032770.1504    1877804.94947   1457077.69746                  22032777.9824
        27.2504         25.2504
  24272853.1824    -155976.69345    -87456.74145                  24272864.2254
         9.7504          9.7504
  22382431.3854   -2675373.10047  -2022914.04846                  22382439.1934
        23.7504         23.0004
  21917298.0184    5087764.15147   3891769.65346                  21917305.4514
        27.0004         25.0004
  22609214.8074    5627174.22346   4299068.30846                  22609223.1314
        17.0004         17.7504
  21837075.6044    4939559.75448   3776809.34847                  21837081.6274
        30.2504         25.7504
  21522061.9084    1866647.12747   1440332.77647                  21522069.0964
        27.7504         26.2504
 02  7  8 18 53  0.0020000  0  8G31G 3G 9G14G15G17G18G21
  23705350.1824   -1635824.19046  -1193825.48346                  23705357.8384
        12.2504         12.0004
  22038217.0494    1906426.60147   1479380.26846                  22038224.6234
        27.2504         25.0004
  24274301.6274    -148363.79345    -81524.59045                  24274313.3614
        10.0004         10.2504
  22379064.7444   -2693064.64047  -2036699.61846                  22379072.6114
        24.2504         23.0004
  21927911.8614    5143539.51647   3935230.95146                  21927919.3304
        26.7504         25.0004
  22620726.7754    5687671.29346   4346208.83746                  22620735.2754
        16.7504         17.0004
  21847142.5414    4992463.03648   3818032.67746                  21847148.5184
        30.2504         25.5004
  21526605.4474    1890524.72947   1458938.70447                  21526612.6004
        26.7504         26.2504
 02  7  8 18 53 15.0020000  0  8G31G 3G 9G14G15G17G18G21
  23704109.9164   -1642340.94446  -1198903.48146                  23704116.8814
        12.2504         12.2504
  22043698.5024    1935232.32847   1501826.27446                  22043705.9474
        26.7504         24.7504
  24275781.0644    -140589.43345    -75466.62045                  24275790.7834
         9.5004          9.5004
  22375723.1974   -2710623.66547  -2050381.93546                  22375731.3114
        24.2504         23.2504
  21938548.8384    5199438.10947   3978788.26846                  21938556.3184
        26.2504         25.0004
  22632261.1434    5748284.47346   4393439.84146                  22632270.6744
        16.5004         17.2504
  21857227.0414    5045457.03048   3859326.69146                  21857233.1234
        29.7504         25.2504
  21531167.2604    1914496.56647   1477618.06747                  21531174.5184
        26.7504         26.2504
 02  7  8 18 53 30.0020000  0  8G31G 3G 9G14G15G17G18G21
  23702899.2214   -1648702.27046  -1203860.31446                  23702907.5454
        13.0004         12.0004
  22049215.0104    1964220.87847   1524414.73046                  22049222.6074
        27.2504         24.7504
  24277291.4394    -132654.55145    -69283.57745                  24277301.0414
        10.5004         10.2504
  22372407.0104   -2728051.14747  -2063961.74746                  22372415.1114
        24.5004         23.2504
  21949209.1504    5255458.62647   4022440.59546                  21949217.0534
        26.0004         25.0004
  22643817.3144    5809012.27546   4440760.16146                  22643826.9044
        16.7504         17.7504
  21867328.3854    5098540.33248   3900690.29646                  21867334.5374
        30.0004         25.5004
  21535746.5804    1938561.34147   1496369.85147                  21535753.8734
        27.0004         26.0004
 02  7  8 18 53 45.0020000  0  8G31G 3G 9G14G15G17G18G21
  23701718.2754   -1654909.38846  -1208697.01446                  23701727.0454
        13.0004         12.5004
  22054765.7134    1993390.75647   1547144.48246                  22054773.2174
        27.2504         24.7504
  24278831.5494    -124560.35545    -62976.38045                  24278840.3774
        10.2504          9.7504
  22369115.3224   -2745348.37347  -2077440.05946                  22369123.1194
        24.7504         23.5004
  21959892.3144    5311599.55947   4066186.75446                  21959900.3224
        25.2504         25.0004
  22655395.0334    5869853.24746   4488168.66946                  22655404.5764
        17.5004         17.7504
  21877446.5254    5151711.30948   3942122.20946                  21877452.6664
        30.2504         25.2504
  21540343.2834    1962717.63047   1515192.93147                  21540350.6824
        27.7504         26.2504
 02  7  8 18 54  0.0020000  0  8G31G 3G 9G14G15G17G18G21
  23700565.9084   -1660963.71446  -1213414.67746                  23700574.7254
        13.0004         13.0004
  22060350.6744    2022740.25747   1570014.21046                  22060357.8854
        27.5004         25.0004
  24280401.3694    -116308.15945    -56546.06445                  24280410.7834
        10.0004         10.2504
  22365848.2294   -2762516.54647  -2090817.81946                  22365855.7214
        25.2504         23.7504
  21970598.1824    5367859.26747   4110025.46246                  21970606.3304
        25.0004         24.7504
  22666994.1584    5930805.82946   4535664.15546                  22667003.5614
        18.2504         18.0004
  21887581.0334    5204968.15648   3983621.04446                  21887587.0924
        30.0004         25.2504
  21544957.2214    1986963.54647   1534085.85647                  21544964.6434
        27.2504         26.2504
 02  7  8 18 54 15.0020000  0  8G31G 3G 9G14G15G17G18G21
  23699442.9944   -1666865.71046  -1218013.61746                  23699451.5184
        12.7504         12.7504
  22065969.8384    2052268.60047   1593023.29146                  22065977.1314
        27.7504         25.0004
  24282002.3224    -107898.43245    -49992.99345                  24282012.2404
        10.0004          9.5004
  22362605.7294   -2779556.29447  -2104095.50146                  22362613.3144
        25.2504         23.7504
  21981326.6114    5424236.92247   4153956.07746                  21981334.6074
        25.0004         24.5004
  22678614.3074    5991869.11146   4583245.88046                  22678622.7134
        18.5004         18.0004
  21897731.5644    5258310.07948   4025186.16646                  21897737.8934
        30.5004         25.2504
  21549587.8544    2011298.47347   1553048.14247                  21549595.0884
        27.2504         26.2504
 02  7  8 18 54 30.0020000  0  8G31G 3G 9G14G15G17G18G21
  23698348.2214   -1672617.95146  -1222495.86546                  23698356.3934
        12.7504         12.5004
  22071622.4084    2081972.96048   1616169.52646                  22071629.9594
        28.2504         25.5004
  24283631.3464     -99333.68645    -43319.12445                  24283641.8144
        10.0004         10.2504
  22359387.1744   -2796470.08947  -2117275.04746                  22359394.4794
        25.0004         23.5004
  21992077.1194    5480729.76847   4197976.45346                  21992084.7294
        24.7504         24.2504
  22690254.7214    6053040.29546   4630911.68846                  22690263.4084
        18.5004         18.0004
  21907897.7294    5311733.91748   4066815.11946                  21907903.9284
        30.0004         25.5004
  21554235.1274    2035719.40947   1572077.44847                  21554242.1044
        27.2504         26.2504
 02  7  8 18 54 45.0020000  0  8G31G 3G 9G14G15G17G18G21
  23697283.1274   -1678215.02246  -1226857.19946                  23697290.6194
        13.5004         12.5004
  22077309.3304    2111858.37748   1639456.86346                  22077317.0104
        28.0004         25.5004
  24285292.3304     -90608.58045    -36520.31545                  24285302.4714
        10.2504         10.2504
  22356193.3934   -2813252.54047  -2130352.24046                  22356200.7794
        24.5004         23.2504
  22002850.1044    5537342.79247   4242090.47446                  22002857.7714
        25.0004         24.0004
  22701916.7684    6114324.44746   4678665.51846                  22701925.5494
        18.2504         18.0004
  21918080.4394    5365244.71848   4108511.83846                  21918086.6624
        30.0004         25.0004
  21558899.4714    2060231.23147   1591177.58047                  21558906.7174
        27.2504         26.5004
 02  7  8 18 55  0.0020000  0  8G31G 3G 9G14G15G17G18G21
  23696247.6434   -1683657.04146  -1231097.71646                  23696255.6744
        13.2504         12.5004
  22083030.6584    2141924.34847   1662884.87246                  22083038.4324
        27.5004         25.5004
  24286983.2914     -81723.21545    -29596.62845                  24286994.3224
        11.0004         10.2504
  22353024.8934   -2829903.73347  -2143327.16146                  22353032.5614
        23.5004         23.2504
  22013645.8694    5594075.63747   4286297.85846                  22013653.2794
        25.5004         24.0004
  22713600.3694    6175721.06146   4726506.98046                  22713609.3384
        17.7504         17.5004
  21928279.8464    5418842.01248   4150275.94146                  21928285.9164
        30.0004         25.0004
  21563581.2364    2084833.70747   1610348.34247                  21563588.4244
        27.5004         26.7504
 02  7  8 18 55 15.0020000  0  8G31G 3G 9G14G15G17G18G21
  23695240.5184   -1688948.00046  -1235220.55046                  23695248.0214
        13.2504         12.5004
  22088785.6354    2172166.63147   1686450.27146                  22088793.4324
        27.2504         25.2504
  24288703.1664     -72681.48345    -22551.09645                  24288712.8854
        10.5004         10.5004
  22349880.3144   -2846427.61147  -2156202.85446                  22349887.9594
        24.7504         23.5004
  22024463.7684    5650924.02947   4330595.28146                  22024471.1544
        25.0004         23.7504
  22725303.8934    6237226.03146   4774432.88046                  22725312.3814
        17.5004         17.0004
  21938494.7444    5472521.33648   4192103.97346                  21938500.7794
        30.0004         25.0004
  21568279.3934    2109522.46347   1629586.34047                  21568286.6274
        27.7504         26.7504
 02  7  8 18 55 30.0020000  0  8G31G 3G 9G14G15G17G18G21
  23694263.1274   -1694086.13646  -1239224.26946                  23694270.5724
        13.2504         12.2504
  22094574.3224    2202586.67747   1710154.18246                  22094581.9674
        27.5004         25.5004
  24290454.1274     -63481.58745    -15382.33945                  24290462.5104
        10.0004         10.0004
  22346760.4794   -2862822.36047  -2168977.95346                  22346768.0064
        25.0004         23.7504
  22035303.9944    5707889.46047   4374983.89546                  22035311.5104
        24.7504         23.5004
  22737029.0804    6298840.62346   4822444.20646                  22737037.6394
        17.0004         17.0004
  21948725.5184    5526284.13248   4233997.05146                  21948731.4824
        30.7504         25.0004
  21572994.0804    2134298.95447   1648892.69947                  21573001.5144
        27.7504         26.7504
 02  7  8 18 55 45.0020000  0  8G31G 3G 9G14G15G17G18G21
  23693314.0804   -1699073.71046  -1243110.67446                  23693322.5574
        13.2504         12.7504
  22100396.5334    2233181.86947   1733994.57546                  22100404.4944
        26.7504         25.5004
  24292234.2914     -54125.92045     -8092.16745                  24292243.6114
        10.7504         10.7504
  22343665.0574   -2879090.33047  -2181654.25446                  22343672.5494
        25.0004         23.5004
  22046166.0964    5764969.37947   4419461.73346                  22046174.0214
        24.5004         23.7504
  22748774.3144    6360562.42546   4870539.06446                  22748783.4594
        16.7504         16.7504
  21958971.6114    5580127.70448   4275953.07646                  21958977.5294
        30.2504         25.2504
  21577725.1974    2159160.47647   1668265.32447                  21577732.5964
        27.7504         26.7504
 02  7  8 18 56  0.0020000  0  8G31G 3G 9G14G15G17G18G21
  23692393.3774   -1703910.90846  -1246879.92346                  23692401.2094
        13.5004         13.0004
  22106251.9084    2263951.79647   1757971.12046                  22106259.7994
        27.2504         25.5004
  24294044.1664     -44614.51145      -680.64445                  24294052.8774
        10.5004         10.2504
  22340593.4084   -2895231.59547  -2194231.83746                  22340601.0294
        25.0004         23.7504
  22057049.4794    5822163.23847   4464028.34746                  22057057.4164
        24.2504         23.5004
  22760539.5104    6422390.87746   4918717.03046                  22760549.1464
        17.2504         17.0004
  21969232.9394    5634051.47248   4317971.57846                  21969238.9984
        30.2504         25.2504
  21582472.2054    2184106.73548   1687703.96747                  21582479.3114
        28.0004         26.7504
 02  7  8 18 56 15.0020000  0  8G31G 3G 9G14G15G17G18G21
  23691501.9324   -1708596.19746  -1250530.76446                  23691509.7874
        13.0004         12.7504
  22112140.7134    2294897.72147   1782084.81147                  22112148.6624
        27.5004         25.7504
  24295884.5574     -34945.77345      6853.45045                  24295892.3894
        11.5004         10.2504
  22337546.0804   -2911244.57747  -2206709.44446                  22337553.7364
        25.0004         24.2504
  22067955.2524    5879472.39347   4508684.80646                  22067963.5184
        24.0004         23.2504
  22772326.0884    6484327.29046   4966979.11346                  22772335.2094
        17.7504         17.0004
  21979509.6824    5688056.50048   4360053.41346                  21979515.6354
        29.7504         25.2504
  21587235.6274    2209138.88948   1707209.55147                  21587242.8144
        28.0004         26.5004
 02  7  8 18 56 30.0020000  0  8G31G 3G 9G14G15G17G18G21
  23690640.9004   -1713120.92846  -1254056.51846                  23690648.7094
        13.7504         12.7504
  22118064.3774    2326027.88247   1806342.07446                  22118072.4084
        27.0004         25.2504
  24297756.0494     -25111.11345     14516.85345                  24297764.8074
        11.7504         11.0004
  22334525.0804   -2927120.71347  -2219080.41546                  22334532.8424
        25.0004         24.2504
  22078884.2914    5936905.14447   4553437.57246                  22078892.6274
        23.7504         23.5004
  22784134.5964    6546379.98846   5015331.81946                  22784143.7754
        17.7504         17.2504
  21989803.6114    5742151.05748   4402205.00846                  21989809.4824
        29.7504         25.0004
  21592017.0884    2234265.14048   1726788.45647                  21592024.2294
        28.0004         26.5004
 02  7  8 18 56 45.0020000  0  8G31G 3G 9G14G15G17G18G21
  23689807.4474   -1717499.84946  -1257468.65146                  23689815.1394
        14.0004         12.7504
  22124020.5964    2357327.28547   1830731.20546                  22124028.4164
        27.2504         25.2504
  24299656.6824     -15125.31546     22298.01645                  24299666.9634
        12.2504         11.2504
  22331526.7914   -2942874.75547  -2231356.26246                  22331534.4364
        23.7504         23.5004
  22089834.3304    5994446.43047   4598274.91446                  22089842.4324
        24.5004         23.2504
  22795961.7834    6608533.89546   5063763.38146                  22795971.1154
        18.0004         17.7504
  22000111.4864    5796320.03048   4444414.58046                  22000117.4754
        29.5004         25.2504
  21596813.4394    2259470.41848   1746428.94047                  21596820.7214
        28.2504         26.7504
 02  7  8 18 57  0.0020000  0  8G31G 3G 9G14G15G17G18G21
  23689003.7134   -1721723.39946  -1260759.70646                  23689012.0844
        14.5004         13.0004
  22130010.6044    2388805.10447   1855259.36146                  22130018.4124
        26.5004         25.0004
  24301587.1664      -4978.83346     30204.38845                  24301596.4284
        12.7504         10.7504
  22328553.9554   -2958497.11847  -2243529.49646                  22328561.7174
        24.2504         23.5004
  22100806.2684    6052105.45347   4643203.99646                  22100814.6394
        24.2504         23.5004
  22807810.3854    6670798.30746   5112281.04846                  22807819.4944
        17.7504         17.5004
  22010435.7054    5850572.54648   4486689.26946                  22010441.7644
        29.2504         25.0004
  21601626.8694    2284763.89548   1766138.15047                  21601633.9514
        28.5004         26.7504
 02  7  8 18 57 15.0020000  0  8G31G 3G 9G14G15G17G18G21
  23688230.7524   -1725786.75246  -1263925.95246                  23688238.9594
        14.5004         13.0004
  22136035.6974    2420465.88347   1879930.08146                  22136043.4004
        27.2504         25.2504
  24303549.4324       5333.27546     38239.84545                  24303558.7404
        12.5004         11.2504
  22325607.1744   -2973982.82047  -2255596.23746                  22325614.6544
        24.7504         23.7504
  22111801.5104    6109886.85747   4688228.43746                  22111809.8694
        24.5004         23.2504
  22819680.9474    6733177.72746   5160888.31546                  22819690.0924
        16.7504         16.7504
  22020776.0964    5904913.13948   4529032.57046                  22020782.2134
        29.0004         25.2504
  21606457.3074    2310150.16448   1785919.65947                  21606464.3544
        28.2504         26.7504
 02  7  8 18 57 30.0020000  0  8G31G 3G 9G14G15G17G18G21
  23687486.9394   -1729695.40546  -1266971.66146                  23687494.7014
        14.7504         13.0004
  22142094.0104    2452303.88347   1904738.89646                  22142101.6434
        26.7504         25.5004
  24305541.9864      15805.38046     46399.92845                  24305550.6864
        12.7504         11.5004
  22322685.0724   -2989337.47147  -2267560.86746                  22322692.6824
        24.5004         23.7504
  22122819.2214    6167784.77047   4733343.66146                  22122827.3934
        24.2504         23.0004
  22831572.3774    6795666.38046   5209580.71446                  22831581.6394
        16.2504         16.5004
  22031132.3774    5959335.72548   4571439.77846                  22031138.3544
        28.7504         25.2504
  21611304.9394    2335623.42148   1805768.95547                  21611312.0334
        28.0004         26.5004
 02  7  8 18 57 45.0020000  0  8G31G 3G 9G14G15G17G18G21
  23686773.9474   -1733443.64246  -1269892.35346                  23686782.0144
        14.2504         12.7504
  22148187.4394    2484324.47547   1929689.98246                  22148195.5534
        26.7504         25.5004
  24307566.1274      26443.41646     54689.36145                  24307575.1784
        13.0004         11.5004
  22319789.3224   -3004555.31747  -2279418.89246                  22319796.9084
        25.2504         24.0004
  22133859.9164    6225804.59147   4778553.88046                  22133867.9714
        24.2504         23.0004
  22843485.3224    6858269.56346   5258362.37646                  22843493.8694
        16.0004         16.2504
  22041505.3384    6013845.80748   4613915.16046                  22041511.3504
        28.2504         25.2504
  21616169.9944    2361189.05448   1825690.23447                  21616177.1234
        28.0004         26.7504
 02  7  8 18 58  0.0020000  0  8G31G 3G 9G14G15G17G18G21
  23686089.2754   -1737040.00346  -1272694.67946                  23686097.5884
        15.0004         13.0004
  22154313.9794    2516518.73447   1954776.39447                  22154322.2564
        27.5004         26.0004
  24309620.8224      37238.71146     63101.30445                  24309631.2564
        12.7504         11.5004
  22316918.0724   -3019644.89147  -2291176.96946                  22316925.5884
        25.7504         24.2504
  22144922.6044    6283937.54847   4823852.25446                  22144930.3304
        24.5004         22.5004
  22855418.1504    6920978.59046   5307226.49146                  22855427.0144
        15.7504         15.7504
  22051893.1354    6068434.34048   4656451.67046                  22051899.1004
        28.2504         25.5004
  21621050.6744    2386838.13648   1845676.53947                  21621057.9674
        28.2504         26.7504
 02  7  8 18 58 15.0020000  0  8G31G 3G 9G14G15G17G18G21
  23685434.3544   -1740481.71446  -1275376.52046                  23685442.2914
        14.2504         12.5004
  22160473.6584    2548889.14447   1980000.07547                  22160481.9474
        27.2504         25.7504
  24311704.8144      48194.14945     71638.03345                  24311715.2254
        11.5004         11.2504
  22314071.2834   -3034603.32147  -2302832.85646                  22314078.7174
        25.7504         24.0004
  22156006.7994    6342186.18847   4869240.77246                  22156014.5614
        24.7504         22.7504
  22867372.0254    6983795.94446   5356175.03046                  22867381.1234
        16.2504         15.7504
  22062296.4324    6123103.79848   4699051.24746                  22062302.6784
        28.2504         25.5004
  21625947.8544    2412573.17048   1865729.81647                  21625955.0184
        28.7504         27.0004
 02  7  8 18 58 30.0020000  0  8G31G 3G 9G14G15G17G18G21
  23684807.7294   -1743773.84946  -1277941.81746                  23684816.5574
        14.5004         12.7504
  22166666.2524    2581430.42347   2005356.89547                  22166674.2134
        27.0004         25.7504
  24313819.3694      59304.66246     80295.61245                  24313828.1504
        12.0004         10.7504
  22311248.8934   -3049435.72547  -2314390.53946                  22311256.1044
        26.2504         24.2504
  22167112.3304    6400545.04047   4914715.16546                  22167119.8934
        25.2504         23.0004
  22879345.7444    7046716.12446   5405203.68746                  22879354.2564
        16.2504         16.0004
  22072714.0024    6177848.63748   4741709.55346                  22072720.0374
        28.2504         25.5004
  21630860.4944    2438388.95148   1885846.01247                  21630867.7294
        28.5004         26.7504
 02  7  8 18 58 45.0020000  0  8G31G 3G 9G14G15G17G18G21
  23684209.9084   -1746915.64246  -1280389.94846                  23684218.6434
        12.7504         13.0004
  22172891.0804    2614142.79147   2030847.03946                  22172899.1354
        26.7504         25.5004
  24315963.1974      70570.96746     89074.56645                  24315972.5884
        12.5004         11.0004
  22308450.3934   -3064141.31447  -2325849.40846                  22308457.6394
        26.0004         24.2504
  22178239.1354    6459014.62147   4960275.83946                  22178246.6154
        26.2504         23.2504
  22891338.4554    7109739.67146   5454312.89446                  22891347.3654
        16.7504         16.0004
  22083146.1584    6232669.22448   4784426.88647                  22083152.4044
        28.5004         25.7504
  21635788.5414    2464285.78648   1906025.36847                  21635795.7054
        28.2504         26.2504
 02  7  8 18 59  0.0020000  0  8G31G 3G 9G14G15G17G18G21
  23683642.3304   -1749898.17146  -1282713.99846                  23683650.3964
        13.5004         12.5004
  22179150.1274    2647034.92247   2056477.25946                  22179158.0644
        26.2504         25.2504
  24318138.5804      82002.10746     97981.96645                  24318148.1234
        12.2504         11.0004
  22305677.9554   -3078711.06847  -2337202.43146                  22305685.3184
        26.0004         24.0004
  22189388.1584    6517603.69347   5005929.62946                  22189395.6154
        26.7504         23.5004
  22903352.4634    7172875.28246   5503509.41746                  22903361.7834
        17.0004         16.2504
  22093594.2294    6287574.11848   4827209.91846                  22093600.4284
        28.7504         25.5004
  21640733.4944    2490272.17248   1926274.51547                  21640740.6464
        28.7504         26.5004
 02  7  8 18 59 15.0020000  0  8G31G 3G 9G14G15G17G18G21
  23683103.9164   -1752726.07246  -1284917.52046                  23683110.9754
        14.0004         12.5004
  22185442.3774    2680101.88347   2082243.70046                  22185450.4554
        26.2504         25.5004
  24320344.6744      93593.30046    107014.06845                  24320355.0724
        12.7504         11.0004
  22302930.5964   -3093149.68047  -2348453.27646                  22302937.9124
        26.0004         24.0004
  22200558.9004    6576307.22447   5051672.60746                  22200566.8034
        26.5004         23.5004
  22915387.8934    7236117.93546   5552789.34946                  22915396.6974
        16.7504         16.2504
  22104057.3074    6342558.27748   4870054.70947                  22104063.4244
        29.7504         25.7504
  21645694.7834    2516343.21748   1946589.61547                  21645701.8184
        29.0004         26.2504
 02  7  8 18 59 30.0020000  0  8G31G 3G 9G14G15G17G18G21
  23682595.0804   -1755402.24246  -1287002.85546                  23682603.2294
        14.2504         12.5004
  22191767.9714    2713340.54547   2108143.93347                  22191776.0024
        27.0004         25.7504
  24322580.3074     105341.66746    116168.65345                  24322588.7834
        13.0004         10.5004
  22300207.0884   -3107459.98947  -2359604.13746                  22300214.2994
        25.2504         24.0004
  22211751.0644    6635121.99347   5097502.26046                  22211759.0494
        26.2504         23.7504
  22927441.6894    7299464.41246   5602150.17446                  22927450.9164
        16.2504         16.0004
  22114535.0414    6397618.39148   4912958.67747                  22114541.2294
        30.0004         25.7504
  21650671.1974    2542495.52748   1966968.03547                  21650678.1864
        28.5004         26.5004
 02  7  8 18 59 45.0020000  0  8G31G 3G 9G14G15G17G18G21
  23682115.2994   -1757923.22346  -1288967.25746                  23682122.8964
        14.5004         12.5004
  22198126.2834    2746753.97647   2134180.35647                  22198134.1274
        27.7504         25.7504
  24324845.9864     117250.70146    125448.42545                  24324853.9474
        12.7504         11.0004
  22297509.0334   -3121638.52047  -2370652.30846                  22297516.4554
        25.5004         24.2504
  22222964.8464    6694051.21347   5143421.09146                  22222972.9714
        25.7504         23.7504
  22939516.7054    7362917.98046   5651594.46546                  22939526.0964
        15.7504         16.0004
  22125027.5644    6452757.59348   4955924.29447                  22125033.7054
        30.2504         26.0004
  21655664.0184    2568732.46948   1987412.41147                  21655670.9244
        28.2504         26.0004
 02  7  8 19  0  0.0020000  0  8G31G 3G 9G14G15G17G18G21
  23681664.5184   -1760292.43346  -1290813.37646                  23681672.5254
        15.0004         12.7504
  22204517.1664    2780338.43347   2160350.03247                  22204524.9514
        27.7504         25.7504
  24327142.2994     129317.03546    134850.79345                  24327150.2954
        13.0004         11.0004
  22294835.6114   -3135688.59247  -2381600.38646                  22294842.9044
        25.2504         24.0004
  22234199.7684    6753091.14547   5189426.19746                  22234208.0684
        25.5004         23.5004
  22951611.2834    7426474.88846   5701119.26546                  22951621.0144
        15.2504         16.0004
  22135534.7364    6507972.05848   4998948.53747                  22135540.4794
        30.2504         26.0004
  21660672.0644    2595050.30048   2007919.81647                  21660679.1934
        28.2504         26.0004
 02  7  8 19  0 15.0020000  0  8G31G 3G 9G14G15G17G18G21
  23681243.0184   -1762506.89646  -1292538.92446                  23681251.4124
        14.2504         13.0004
  22210941.0964    2814096.47947   2186654.98546                  22210948.8814
        27.5004         25.0004
  24329468.7294     141543.62846    144378.02545                  24329476.9244
        12.7504         11.0004
  22292186.7754   -3149607.28947  -2392446.08346                  22292194.2094
        25.2504         24.0004
  22245456.2994    6812244.58047   5235519.74546                  22245464.2604
        25.7504         23.2504
  22963725.6824    7490137.80346   5750726.68746                  22963735.1894
        14.7504         15.7504
  22146056.3694    6563264.42148   5042033.48947                  22146062.5104
        30.2504         25.7504
  21665696.1114    2621451.66548   2028492.31047                  21665703.0184
        28.0004         26.0004
 02  7  8 19  0 30.0020000  0  8G31G 3G 9G14G15G17G18G21
  23680850.7444   -1764567.84046  -1294144.85546                  23680859.1974
        14.2504         13.0004
  22217397.9244    2848026.73747   2213094.11546                  22217405.5804
        27.0004         25.0004
  24331826.1824     153929.44846    154029.33645                  24331834.1894
        12.5004         10.2504
  22289562.8694   -3163395.82247  -2403190.36346                  22289570.1504
        25.5004         24.2504
  22256734.2134    6871509.98447   5281700.54246                  22256742.1044
        26.0004         23.5004
  22975860.4634    7553905.27746   5800415.57546                  22975869.4904
        15.0004         15.5004
  22156592.7834    6618633.14048   5085177.93247                  22156598.7954
        30.2504         25.7504
  21670735.7214    2647934.97048   2049128.65447                  21670742.8144
        28.0004         26.2504
 02  7  8 19  0 45.0020000  0  8G31G 3G 9G14G15G17G18G21
  23680488.2364   -1766472.11046  -1295628.66946                  23680497.5104
        13.2504         12.5004
  22223888.0804    2882132.03547   2239669.65746                  22223895.5024
        27.2504         25.0004
  24334213.5104     166477.43046    163806.98745                  24334222.3614
        12.2504         10.2504
  22286964.4004   -3177050.97747  -2413830.70946                  22286971.8344
        26.2504         24.7504
  22268034.1824    6930890.13347   5327970.74946                  22268042.2014
        26.2504         23.2504
  22988015.4164    7617780.12146   5850188.11646                  22988025.3934
        16.0004         16.0004
  22167144.1664    6674080.88648   5128383.96047                  22167150.1434
        30.5004         25.7504
  21675791.4794    2674503.20848   2069831.18247                  21675798.7364
        28.0004         26.2504
 02  7  8 19  1  0.0020000  0  8G31G 3G 9G14G15G17G18G21
  23680155.6744   -1768219.67546  -1296990.38246                  23680164.6074
        13.0004         12.7504
  22230411.2604    2916411.89847   2266381.22246                  22230418.6824
        27.2504         25.0004
  24336631.7524     179187.62246    173711.03645                  24336639.8774
        12.0004         10.2504
  22284391.2604   -3190572.80247  -2424367.17146                  22284398.6934
        26.0004         25.0004
  22279355.5024    6990384.70047   5374330.11046                  22279363.4044
        26.2504         23.7504
  23000191.2604    7681761.96846   5900044.05746                  23000200.0764
        16.7504         16.5004
  22177710.4634    6729607.30148   5171651.28946                  22177716.5214
        30.7504         25.5004
  21680863.4084    2701156.04147   2090599.62947                  21680870.7254
        27.5004         26.2504
 02  7  8 19  1 15.0020000  0  8G31G 3G 9G14G15G17G18G21
  23679851.5884   -1769817.91946  -1298235.75846                  23679860.3344
        13.2504         13.0004
  22236966.2214    2950858.75547   2293222.90946                  22236973.9474
        27.2504         25.2504
  24339079.7214     192052.69845    183735.78445                  24339088.9244
        11.2504         10.2504
  22281842.0724   -3203968.55447  -2434805.38946                  22281849.5414
        26.0004         25.0004
  22290697.2054    7049986.10747   5420772.72046                  22290705.4594
        26.2504         23.7504
  23012385.1894    7745843.26346   5949977.47246                  23012394.1114
        17.0004         16.2504
  22188290.2914    6785204.60748   5214973.84446                  22188296.2564
        31.2504         25.2504
  21685949.9244    2727885.71847   2111427.95247                  21685957.3814
        27.2504         26.5004
 02  7  8 19  1 30.0020000  0  8G31G 3G 9G14G15G17G18G21
  23679577.1504   -1771260.47846  -1299359.81346                  23679586.1544
        13.5004         12.7504
  22243554.0494    2985478.58947   2320199.38146                  22243561.7994
        27.2504         25.2504
  24341558.7294     205079.01645    193886.14845                  24341568.5764
        10.5004          9.5004
  22279318.0254   -3217231.92747  -2445140.44846                  22279325.3774
        26.5004         25.5004
  22302060.6354    7109700.41147   5467303.30746                  22302068.8424
        25.7504         23.7504
  23024600.2604    7810029.96446   5999993.01946                  23024609.0884
        16.5004         16.2504
  22198884.8774    6840878.82448   5258356.34046                  22198890.8074
        30.7504         25.0004
  21691052.1354    2754698.36347   2132320.92247                  21691059.4864
        27.0004         26.2504
 02  7  8 19  1 45.0020000  0  8G31G 3G 9G14G15G17G18G21
  23679331.7134   -1772548.56346  -1300363.50946                  23679339.8384
        14.7504         13.0004
  22250174.7054    3020269.91847   2347309.49346                  22250182.4904
        27.0004         25.5004
  24344068.6894     218265.49145    204161.35945                  24344078.9594
        11.0004          9.7504
  22276818.9244   -3230364.01447  -2455373.21246                  22276826.5334
        26.0004         25.2504
  22313445.0334    7169526.09047   5513920.67446                  22313453.0184
        25.7504         23.5004
  23036833.7604    7874320.79746   6050089.71246                  23036843.3034
        16.0004         16.2504
  22209493.5724    6896628.28748   5301797.46446                  22209499.5614
        30.7504         25.0004
  21696169.8464    2781592.41347   2153277.32847                  21696177.1624
        27.2504         26.2504
 02  7  8 19  2  0.0020000  0  8G31G 3G 9G14G15G17G18G21
  23679115.6664   -1773685.13946  -1301249.13146                  23679122.9364
        14.7504         13.0004
  22256827.2294    3055229.36747   2374550.60546                  22256834.9324
        27.0004         25.2504
  24346607.6274     231609.06345    214558.92645                  24346617.2754
        11.2504         10.5004
  22274344.4004   -3243367.84747  -2465506.03146                  22274352.0804
        25.7504         25.0004
  22324850.1974    7229459.92647   5560622.33346                  22324858.2404
        25.7504         23.7504
  23049087.1354    7938712.32046   6100264.86946                  23049096.4434
        15.7504         15.7504
  22220115.9944    6952449.73448   5345294.68146                  22220122.0064
        30.7504         24.7504
  21701302.4634    2808564.66747   2174294.67347                  21701309.6274
        27.2504         26.2504
 02  7  8 19  2 15.0020000  0  8G31G 3G 9G14G15G17G18G21
  23678928.9164   -1774666.46246  -1302013.80046                  23678936.3854
        15.0004         13.2504
  22263512.5644    3090360.42247   2401925.43547                  22263520.4084
        27.7504         25.7504
  24349177.3544     245113.47545    225081.83745                  24349187.1074
        11.7504         10.0004
  22271895.0104   -3256239.63647  -2475535.96646                  22271902.5374
        25.7504         24.5004
  22336276.3934    7289505.40647   5607410.98446                  22336284.1074
        25.5004         23.5004
  23061360.0254    8003207.97446   6150521.16446                  23061369.5214
        14.7504         15.7504
  22230752.9084    7008346.51448   5388850.60146                  22230758.8734
        30.2504         24.2504
  21706450.7134    2835618.59947   2195375.66247                  21706457.8894
        27.2504         26.2504
 02  7  8 19  2 30.0020000  0  8G31G 3G 9G14G15G17G18G21
  23678771.2834   -1775494.95846  -1302659.35146                  23678778.7294
        14.5004         13.5004
  22270229.9164    3125660.32947   2429431.83747                  22270238.0884
        27.0004         25.7504
  24351777.6504     258776.29846    235728.22045                  24351787.9204
        12.5004         11.0004
  22269470.2684   -3268981.75247  -2485464.85346                  22269477.6784
        25.5004         24.7504
  22347723.3614    7349659.80947   5654284.50746                  22347731.4864
        24.7504         23.7504
  23073652.6044    8067805.07646   6200856.52846                  23073662.9324
        14.2504         15.2504
  22241403.3774    7064315.83448   5432463.02746                  22241409.1894
        30.2504         24.2504
  21711613.8544    2862751.47147   2216518.16347                  21711621.0064
        27.2504         26.2504
 02  7  8 19  2 45.0020000  0  8G31G 3G 9G14G15G17G18G21
  23678644.8544   -1776160.45246  -1303177.92546                  23678653.0144
        14.5004         13.5004
  22276981.4084    3161138.86247   2457077.42847                  22276989.6154
        27.5004         25.7504
  24354409.9474     272607.68046    246505.91745                  24354420.2644
        12.5004         11.0004
  22267072.0804   -3281584.09347  -2495284.81846                  22267079.5844
        26.0004         25.0004
  22359193.0724    7409933.02647   5701250.62146                  22359201.4554
        24.2504         23.5004
  23085966.4864    8132513.55746   6251278.65846                  23085976.8734
        14.5004         16.0004
  22252069.7134    7120367.63348   5476139.73746                  22252075.7014
        29.5004         23.7504
  21716793.9164    2889972.94947   2237729.70547                  21716801.3034
        27.2504         26.5004
 02  7  8 19  3  0.0020000  0  8G31G 3G 9G14G15G17G18G21
  23678546.8694   -1776674.46146  -1303578.42246                  23678555.7094
        14.2504         13.7504
  22283764.4794    3196784.17047   2484852.97447                  22283772.5804
        27.7504         25.7504
  24357071.6664     286596.09346    257406.00745                  24357081.2914
        12.7504         11.0004
  22264698.4084   -3294057.97447  -2505004.69446                  22264706.0064
        26.5004         25.5004
  22370682.9864    7470313.21747   5748300.08146                  22370691.1934
        24.7504         23.5004
  23098298.8934    8197321.58646   6301778.36546                  23098309.3144
        15.0004         15.7504
  22262749.4244    7176489.90948   5519871.37546                  22262755.4004
        28.7504         23.5004
  21721988.7604    2917271.24147   2259001.10947                  21721996.1584
        27.2504         26.2504
 02  7  8 19  3 15.0020000  0  8G31G 3G 9G14G15G17G18G21
  23678476.8544   -1777042.17746  -1303864.95746                  23678484.9794
        14.2504         13.5004
  22290578.0414    3232590.83047   2512754.24446                  22290586.1434
        27.2504         25.2504
  24359762.6894     300736.38946    268424.42345                  24359771.9514
        13.0004         10.5004
  22262348.0184   -3306408.65947  -2514628.57347                  22262355.3344
        26.7504         26.0004
  22382192.2134    7530794.92447   5795428.64346                  22382200.5374
        24.5004         23.7504
  23110649.6664    8262223.72746   6352351.40846                  23110659.6194
        15.2504         16.2504
  22273441.4394    7232677.11648   5563653.58946                  22273447.3814
        28.2504         23.5004
  21727196.9554    2944640.96247   2280328.16047                  21727204.4474
        27.0004         26.5004
 02  7  8 19  3 30.0020000  0  8G31G 3G 9G14G15G17G18G21
  23678436.4324   -1777253.88546  -1304029.90346                  23678445.6584
        14.5004         14.2504
  22297424.5104    3268568.21547   2540788.54646                  22297432.5884
        27.0004         25.0004
  24362483.7444     315038.29846    279568.79545                  24362493.6044
        13.2504         10.7504
  22260023.2134   -3318626.45147  -2524148.88947                  22260030.6004
        27.0004         26.0004
  22393722.6584    7591387.54447   5842643.63446                  22393730.7484
        24.5004         23.2504
  23123019.6744    8327229.45446   6403005.16046                  23123029.7324
        16.0004         15.7504
  22284147.6744    7288938.54547   5607493.65046                  22284153.7684
        27.2504         23.0004
  21732420.5574    2972091.58747   2301718.26447                  21732427.9904
        27.0004         26.5004
 02  7  8 19  3 45.0020000  0  8G31G 3G 9G14G15G17G18G21
  23678427.0884   -1777304.22446  -1304069.11046                  23678436.3264
        14.7504         14.5004
  22304304.1664    3304721.30347   2568959.76346                  22304312.1744
        27.2504         25.0004
  24365237.6974     329507.25646    290843.32245                  24365247.7444
        13.0004         10.5004
  22257724.4244   -3330706.00847  -2533561.50247                  22257731.7644
        27.2504         26.0004
  22405275.1194    7652096.13347   5889948.99446                  22405283.4794
        24.2504         23.5004
  23135410.6664    8392343.60446   6453743.40146                  23135420.5374
        16.2504         16.2504
  22294868.8544    7345279.19347   5651395.43646                  22294875.0644
        26.7504         23.0004
  21737660.7444    2999628.08647   2323175.27347                  21737668.1664
        27.5004         26.5004
 02  7  8 19  4  0.0020000  0  8G31G 3G 9G14G15G17G18G21
  23678446.8074   -1777200.75446  -1303988.45546                  23678455.5064
        15.0004         14.5004
  22311215.8854    3341042.24247   2597261.76846                  22311223.5764
        27.7504         25.2504
  24368020.7914     344135.72646    302242.14345                  24368029.9944
        13.0004         11.0004
  22255450.7134   -3342654.69147  -2542872.13147                  22255458.0644
        26.5004         26.0004
  22416848.3464    7712912.98347   5937338.70446                  22416856.8574
        23.2504         23.2504
  23147821.0574    8457558.54146   6504560.17946                  23147831.1394
        16.0004         16.5004
  22305603.8224    7401691.24547   5695352.86246                  22305610.1624
        26.2504         22.7504
  21742915.5184    3027242.58447   2344693.06747                  21742922.6114
        27.2504         26.2504
 02  7  8 19  4 15.0020000  0  8G31G 3G 9G14G15G17G18G21
  23678497.0104   -1776937.45646  -1303783.27746                  23678505.7914
        14.7504         14.0004
  22318160.5644    3377536.73048   2625699.01646                  22318168.3144
        28.0004         25.5004
  24370836.1044     358929.63446    313769.86745                  24370845.2714
        13.0004         11.2504
  22253203.0884   -3354466.50947  -2552076.10847                  22253210.4984
        26.0004         25.7504
  22428442.8934    7773843.80547   5984817.23346                  22428451.5104
        22.7504         23.0004
  23160251.3614    8522879.98446   6555459.93946                  23160261.7714
        16.0004         16.5004
  22316353.1744    7458180.24847   5739370.24846                  22316359.7834
        25.5004         22.7504
  21748186.1894    3054940.88148   2366276.16147                  21748193.1664
        28.0004         26.5004
 02  7  8 19  4 30.0020000  0  8G31G 3G 9G14G15G17G18G21
  23678576.5884   -1776517.03646  -1303455.65246                  23678585.2644
        14.7504         14.0004
  22325137.6044    3414201.67247   2654269.07846                  22325145.2364
        27.7504         25.2504
  24373682.4714     373886.29446    325424.41845                  24373692.3184
        12.7504         11.2504
  22250980.3074   -3366144.23447  -2561175.60446                  22250987.8224
        25.0004         25.2504
  22440058.9324    7834885.63447   6032382.26446                  22440067.7954
        22.7504         22.7504
  23172700.9714    8588304.88746   6606440.31246                  23172711.3344
        15.0004         16.0004
  22327116.6274    7514743.22447   5783445.28546                  22327123.1894
        25.0004         22.7504
  21753472.5574    3082720.06848   2387922.27547                  21753479.6044
        28.0004         26.5004
 02  7  8 19  4 45.0020000  0  8G31G 3G 9G14G15G17G18G21
  23678686.9244   -1775938.11446  -1303004.53746                  23678694.8264
        15.0004         14.2504
  22332147.3384    3451038.25147   2682972.88546                  22332155.2294
        27.7504         25.2504
  24376559.3074     389007.01246    337206.81745                  24376568.7794
        13.2504         11.5004
  22248784.2524   -3377686.46447  -2570169.51246                  22248791.7564
        25.5004         25.5004
  22451696.1114    7896039.53647   6080034.61746                  22451705.1744
        22.7504         23.2504
  23185170.9944    8653834.28246   6657502.11546                  23185180.4904
        15.0004         15.5004
  22337894.6194    7571381.20247   5827578.75546                  22337900.7604
        25.5004         23.0004
  21758774.3224    3110581.23948   2409632.28747                  21758781.5684
        28.0004         26.7504
 02  7  8 19  5  0.0020000  0  8G31G 3G 9G14G15G17G18G21
  23678826.7294   -1775202.29146  -1302431.16346                  23678833.8574
        15.7504         13.7504
  22339189.6434    3488044.47947   2711808.87946                  22339197.3574
        27.7504         25.2504
  24379468.1974     404290.28046    349115.85445                  24379477.4824
        14.0004         11.7504
  22246613.1584   -3389094.66547  -2579058.97847                  22246620.7094
        26.5004         25.7504
  22463354.2294    7957303.68947   6127772.89146                  22463363.1864
        22.5004         23.0004
  23197660.4084    8719466.43646   6708643.99246                  23197670.1154
        14.5004         15.0004
  22348686.3544    7628092.13047   5871769.07946                  22348692.6934
        25.7504         23.2504
  21764091.4244    3138522.34148   2431404.57647                  21764098.3184
        28.0004         26.5004
 02  7  8 19  5 15.0020000  0  8G31G 3G 9G14G15G17G18G21
  23678995.5724   -1774314.89446  -1301739.66946                  23679003.3574
        14.5004         13.5004
  22346262.6824    3525214.65348   2740772.63246                  22346270.4674
        28.0004         25.2504
  24382406.1744     419730.82146    361147.44946                  24382415.6464
        13.5004         12.0004
  22244466.6974   -3400374.09147  -2587848.11047                  22244474.2254
        26.5004         25.7504
  22475032.4944    8018672.46347   6175592.67446                  22475041.1934
        23.0004         23.0004
  23210168.1504    8785195.71046   6759861.55346                  23210177.3654
        14.5004         15.2504
  22359491.0884    7684870.45147   5916011.91646                  22359497.1584
        26.5004         23.7504
  21769422.5334    3166537.82747   2453234.82947                  21769429.7094
        27.7504         26.7504
 02  7  8 19  5 30.0020000  0  8G31G 3G 9G14G15G17G18G21
  23679194.7914   -1773268.51646  -1300924.29746                  23679202.0844
        14.5004         13.7504
  22353368.6664    3562555.91248   2769869.70146                  22353376.2054
        28.0004         25.2504
  24385375.7754     435336.03046    373307.34346                  24385385.8574
        13.5004         12.0004
  22242346.3074   -3411517.39247  -2596531.16647                  22242353.6354
        27.2504         26.2504
  22486731.7914    8080152.94347   6223499.51746                  22486740.3144
        23.5004         23.0004
  23222695.7994    8851029.10846   6811160.23446                  23222705.8344
        14.5004         15.0004
  22370309.5574    7741723.23647   5960312.78246                  22370315.6154
        27.7504         24.0004
  21774769.2214    3194634.90948   2475128.66247                  21774776.3384
        28.5004         26.7504
 02  7  8 19  5 45.0020000  0  8G31G 3G 9G14G15G17G18G21
  23679423.0644   -1772071.28946  -1299991.40746                  23679431.1664
        14.5004         13.7504
  22360505.5024    3600059.63647   2799093.35946                  22360513.4284
        27.2504         25.5004
  24388375.6974     451097.65846    385589.12546                  24388384.9824
        14.5004         12.0004
  22240250.1354   -3422532.74447  -2605114.53147                  22240257.2644
        27.0004         26.2504
  22498450.9394    8141736.67047   6271486.79746                  22498459.4754
        23.5004         23.0004
  23235242.0414    8916958.25746   6862533.53346                  23235251.5614
        14.5004         14.5004
  22381141.1114    7798641.78548   6004664.87646                  22381147.1464
        28.5004         24.7504
  21780129.7834    3222804.91548   2497079.31647                  21780136.9714
        28.2504         26.5004
 02  7  8 19  6  0.0020000  0  8G31G 3G 9G14G15G17G18G21
  23679678.9084   -1770724.13046  -1298941.64346                  23679686.3774
        13.7504         13.2504
  22367672.9554    3637724.65547   2828442.71446                  22367680.7524
        27.2504         25.5004
  24391404.7134     467014.83646    397992.13246                  24391413.7754
        14.7504         12.7504
  22238178.1744   -3433420.95747  -2613598.82447                  22238185.2684
        26.5004         26.0004
  22510189.2604    8203422.54047   6319553.67246                  22510197.5844
        23.0004         22.7504
  23247805.7684    8982982.08346   6913980.62046                  23247815.7914
        14.7504         15.2504
  22391984.7054    7855624.97148   6049067.35346                  22391990.7994
        29.2504         25.0004
  21785504.2214    3251046.84648   2519086.02447                  21785511.2684
        28.5004         26.5004
 02  7  8 19  6 15.0020000  0  8G31G 3G 9G14G15G17G18G21
  23679965.2294   -1769221.25346  -1297770.55846                  23679973.4594
        14.2504         14.0004
  22374872.0184    3675556.38147   2857921.96346                  22374880.0494
        27.0004         25.2504
  24394464.0724     483093.37346    410520.88846                  24394473.4284
        14.2504         12.7504
  22236131.3614   -3444176.26647  -2621979.55247                  22236138.9244
        25.5004         26.0004
  22521948.1114    8265216.13147   6367704.48946                  22521956.3774
        23.0004         22.5004
  23260388.8224    9049105.92346   6965505.65046                  23260398.2014
        15.0004         15.5004
  22402841.6114    7912678.31348   6093524.48646                  22402847.6234
        30.2504         25.5004
  21790893.0724    3279366.08348   2541152.97047                  21790900.1894
        28.7504         26.5004
 02  7  8 19  6 30.0020000  0  8G31G 3G 9G14G15G17G18G21
  23680279.9244   -1767565.83246  -1296480.59646                  23680288.2364
        13.5004         13.2504
  22382102.1194    3713551.30147   2887528.38246                  22382110.2684
        26.5004         25.2504
  24397553.8614     499330.15746    423172.94046                  24397563.4984
        14.7504         12.7504
  22234109.1434   -3454801.88147  -2630259.21647                  22234117.0214
        25.5004         26.2504
  22533727.1044    8327113.85647   6415936.44146                  22533735.2294
        22.7504         22.2504
  23272990.3934    9115326.30046   7017105.87446                  23272999.7134
        14.7504         15.0004
  22413711.2364    7969798.15748   6138033.43547                  22413717.1784
        31.0004         26.0004
  21796296.1434    3307759.30248   2563277.55347                  21796303.1194
        28.5004         26.5004
 02  7  8 19  6 45.0020000  0  8G31G 3G 9G14G15G17G18G21
  23680625.3854   -1765749.62746  -1295065.36046                  23680634.1784
        14.0004         13.2504
  22389364.8384    3751717.40547   2917268.18346                  22389372.8934
        27.2504         25.0004
  24400675.0644     515733.37446    435954.69246                  24400684.3144
        14.5004         12.5004
  22232113.6044   -3465289.39647  -2638431.26947                  22232121.4364
        26.7504         26.2504
  22545527.1044    8389123.69747   6464255.76346                  22545535.2294
        22.0004         22.2504
  23285611.0644    9181651.39946   7068787.71046                  23285621.6044
        14.5004         14.7504
  22424594.9944    8026992.46148   6182600.41747                  22424601.0534
        31.5004         26.2504
  21801714.8384    3336234.54248   2585466.05747                  21801721.8854
        28.7504         26.5004
 02  7  8 19  7  0.0020000  0  8G31G 3G 9G14G15G17G18G21
  23681000.8614   -1763775.07546  -1293526.73446                  23681009.7364
        14.7504         13.5004
  22396659.7364    3790051.88147   2947139.18146                  22396667.3814
        27.5004         25.0004
  24403827.3614     532300.66746    448864.26446                  24403837.1864
        13.5004         12.7504
  22230143.8934   -3475641.27647  -2646497.64947                  22230151.5374
        26.5004         26.5004
  22557348.0804    8451242.93947   6512660.32446                  22557356.7214
        22.7504         22.2504
  23298252.2214    9248078.32946   7120548.88146                  23298262.0454
        14.5004         15.0004
  22435492.2214    8084258.36448   6227223.19047                  22435498.1624
        31.0004         26.2504
  21807148.5104    3364788.95848   2607716.24947                  21807155.5684
        28.5004         26.2504
 02  7  8 19  7 15.0030000  0  8G31G 3G 9G14G15G17G18G21
  23681406.5774   -1761645.81146  -1291867.54746                  23681414.7614
        15.0004         13.5004
  22403986.2104    3828553.23647   2977140.22546                  22403993.9014
        27.7504         25.0004
  24407010.9444     549029.34546    461899.61346                  24407021.1554
        13.2504         12.5004
  22228198.7804   -3485861.93447  -2654461.76347                  22228206.3084
        26.5004         26.2504
  22569190.0774    8513471.71247   6561150.24546                  22569198.6944
        23.5004         22.7504
  23310912.2804    9314607.58046   7172389.79146                  23310921.7764
        14.5004         14.7504
  22446403.1874    8141595.75948   6271901.66347                  22446409.1404
        31.2504         26.5004
  21812596.8584    3393420.47948   2630026.52847                  21812603.9874
        28.0004         26.0004
 02  7  8 19  7 30.0030000  0  8G31G 3G 9G14G15G17G18G21
  23681840.7724   -1759361.36146  -1290087.45246                  23681849.5774
        14.2504         13.7504
  22411343.6474    3867216.77947   3007267.63846                  22411351.6904
        26.2504         24.7504
  24410224.2494     565917.93246    475059.56346                  24410234.6014
        12.5004         12.5004
  22226279.1164   -3495949.15947  -2662321.91547                  22226286.5734
        26.2504         26.2504
  22581051.2104    8575802.20247   6609719.41046                  22581059.4874
        25.0004         22.7504
  23323590.1404    9381230.66546   7224303.81846                  23323599.7534
        14.7504         14.2504
  22457326.3584    8198997.26148   6316630.08847                  22457332.6044
        30.7504         26.2504
  21818059.2654    3422125.69748   2652394.23047                  21818066.5464
        28.0004         26.0004
 02  7  8 19  7 45.0030000  0  8G31G 3G 9G14G15G17G18G21
  23682304.5154   -1756925.65846  -1288189.50346                  23682313.2374
        14.2504         13.7504
  22418731.6474    3906040.53347   3037519.89646                  22418739.5034
        27.0004         24.7504
  24413467.8904     582963.38646    488341.74846                  24413479.4954
        12.2504         12.7504
  22224384.2884   -3505907.77747  -2670081.83947                  22224391.7454
        26.5004         26.2504
  22592931.9214    8638234.17247   6658367.66946                  22592939.9994
        26.0004         23.2504
  23336286.2804    9447947.62946   7276291.01846                  23336296.0694
        14.2504         14.7504
  22468261.7334    8256462.19148   6361407.93847                  22468268.1204
        30.2504         26.0004
  21823535.3744    3450902.05848   2674817.37247                  21823542.6444
        28.5004         26.0004
 02  7  8 19  8  0.0030000  0  8G31G 3G 9G14G15G17G18G21
  23682797.2264   -1754336.91446  -1286172.28646                  23682805.6084
        14.7504         13.2504
  22426150.1324    3945026.07147   3067898.22046                  22426157.9404
        27.0004         25.0004
  24416741.6714     600167.56746    501747.60746                  24416752.5264
        12.0004         12.2504
  22222513.9294   -3515735.95547  -2677740.12747                  22222521.1874
        26.7504         26.5004
  22604831.8514    8700769.24947   6707096.26246                  22604840.2224
        26.0004         23.2504
  23349000.4524    9514760.02346   7328352.54346                  23349010.3004
        14.5004         14.2504
  22479209.2654    8313992.08148   6406236.40247                  22479215.8624
        29.5004         25.7504
  21829025.0304    3479750.91548   2697296.99347                  21829032.3004
        28.0004         26.0004
 02  7  8 19  8 15.0030000  0  8G31G 3G 9G14G15G17G18G21
  23683319.4834   -1751591.03146  -1284032.63046                  23683328.0654
        14.7504         13.7504
  22433600.4604    3984177.23447   3098405.60746                  22433608.5154
        26.2504         24.7504
  24420046.6404     617534.58645    515280.34946                  24420057.5544
        11.7504         12.0004
  22220669.4054   -3525429.49147  -2685293.49847                  22220676.7804
        27.0004         26.7504
  22616752.0624    8763411.24947   6755908.17346                  22616760.4564
        25.2504         23.0004
  23361732.8044    9581671.68346   7380491.43446                  23361741.9724
        14.5004         14.2504
  22490169.9374    8371590.75748   6451118.46646                  22490176.4404
        29.0004         25.2504
  21834529.4684    3508676.46448   2719836.38747                  21834536.3744
        28.0004         25.7504
 02  7  8 19  8 30.0030000  0  8G31G 3G 9G14G15G17G18G21
  23683871.8904   -1748690.02046  -1281772.09346                  23683880.0154
        14.5004         13.7504
  22441081.7184    4023491.62247   3129040.17646                  22441090.2064
        26.0004         25.0004
  24423382.2884     635062.39646    528938.39446                  24423393.1554
        12.2504         12.5004
  22218849.8354   -3534990.49247  -2692743.59747                  22218857.2224
        27.2504         26.5004
  22628692.2574    8826157.87547   6804801.60946                  22628700.7804
        25.0004         22.7504
  23374484.5854    9648680.38346   7432705.93746                  23374493.8354
        15.0004         14.7504
  22501143.2334    8429255.85048   6496052.28846                  22501149.5624
        28.5004         24.5004
  21840048.0224    3537676.45148   2742433.77847                  21840054.7724
        28.0004         25.7504
 02  7  8 19  8 45.0030000  0  8G31G 3G 9G14G15G17G18G21
  23684453.9054   -1745631.81446  -1279389.06446                  23684461.9134
        15.5004         13.7504
  22448594.5694    4062970.86147   3159803.19546                  22448602.9174
        26.2504         25.0004
  24426748.3354     652753.04046    542723.30646                  24426758.5464
        12.2504         12.2504
  22217056.0624   -3544416.74847  -2700088.70647                  22217063.4484
        26.7504         26.5004
  22640652.8354    8889010.92447   6853777.97146                  22640661.3004
        24.5004         22.2504
  23387254.9764    9715787.88146   7484997.43746                  23387264.1554
        15.5004         14.5004
  22512129.3974    8486989.06248   6541039.19246                  22512135.9484
        28.0004         24.0004
  21845580.8744    3566752.55447   2765090.48147                  21845587.7574
        27.7504         25.7504
 02  7  8 19  9  0.0030000  0  8G31G 3G 9G14G15G17G18G21
  23685064.6714   -1742420.34146  -1276886.63046                  23685071.8124
        15.5004         14.0004
  22456137.6554    4102610.69047   3190691.35746                  22456146.2614
        26.0004         25.0004
  24430145.0304     670602.64346    556632.10046                  24430155.5224
        12.5004         12.2504
  22215287.1874   -3553712.19847  -2707331.88447                  22215294.5974
        26.2504         26.5004
  22652632.8124    8951966.16547   6902833.95946                  22652641.5814
        24.5004         22.2504
  23400043.0624    9782989.86546   7537362.56746                  23400052.3474
        15.7504         14.2504
  22523127.7574    8544786.12547   6586075.83946                  22523134.0504
        27.0004         23.2504
  21851127.6084    3595900.59348   2787803.23747                  21851134.5734
        28.2504         25.7504
 02  7  8 19  9 15.0030000  0  8G31G 3G 9G14G15G17G18G21
  23685706.3354   -1739046.79546  -1274257.87146                  23685713.6164
        15.2504         13.7504
  22463713.1084    4142419.63947   3221711.30646                  22463721.3864
        26.7504         25.2504
  24433573.4914     688619.96646    570671.60246                  24433583.5624
        12.5004         12.5004
  22213544.6874   -3562868.10147  -2714466.31547                  22213551.9564
        27.0004         26.5004
  22664634.0224    9015032.08447   6951976.20046                  22664642.8514
        24.7504         22.0004
  23412850.8744    9850294.94546   7589808.02646                  23412860.4764
        16.0004         15.0004
  22534140.0154    8602655.57247   6631168.91846                  22534146.4134
        26.7504         22.7504
  21856689.6404    3625129.29247   2810578.85246                  21856696.3434
        27.7504         25.5004
 02  7  8 19  9 30.0030000  0  8G31G 3G 9G14G15G17G18G21
  23686378.2804   -1735520.06446  -1271509.76846                  23686386.5814
        16.0004         14.2504
  22471318.8434    4182388.41947   3252855.78746                  22471326.7104
        27.0004         25.0004
  24437032.4374     706796.12446    584834.85745                  24437043.3044
        13.0004         11.7504
  22211827.3974   -3571893.32547  -2721498.93247                  22211834.5034
        27.0004         26.5004
  22676654.3354    9078199.49647   7001197.50846                  22676662.3784
        24.7504         21.7504
  23425676.7264    9917694.01246   7642326.71946                  23425686.1634
        16.0004         14.7504
  22545164.0224    8660588.17447   6676311.18346                  22545170.3394
        26.0004         22.0004
  21862265.3664    3654429.28447   2833410.01146                  21862272.2724
        27.2504         25.5004
 02  7  8 19  9 45.0030000  0  8G31G 3G 9G14G15G17G18G21
  23687079.5774   -1731833.79846  -1268637.35746                  23687088.5224
        16.5004         15.0004
  22478956.4684    4222523.12747   3284129.57746                  22478964.3704
        27.0004         25.0004
  24440522.9054     725137.57846    599126.90446                  24440532.9524
        12.7504         12.0004
  22210136.1014   -3580781.35647  -2728424.63847                  22210143.2654
        27.0004         26.0004
  22688695.4294    9141474.64047   7050502.78346                  22688703.6944
        25.0004         21.7504
  23438521.0694    9985193.16446   7694923.39946                  23438530.5424
        15.7504         14.5004
  22556201.5074    8718590.02047   6721507.41246                  22556207.4724
        26.0004         21.2504
  21867855.5694    3683806.66847   2856301.47946                  21867862.4874
        27.7504         25.5004
 02  7  8 19 10  0.0030000  0  8G31G 3G 9G14G15G17G18G21
  23687811.6474   -1727986.58946  -1265639.52246                  23687819.9134
        17.0004         14.7504
  22486625.4764    4262824.74447   3315533.42246                  22486633.4014
        26.7504         24.5004
  24444044.4764     743645.54246    613548.70545                  24444054.8624
        12.2504         11.7504
  22208470.9684   -3589530.80447  -2735242.35647                  22208478.3544
        26.7504         26.5004
  22700757.0774    9204858.59047   7099892.82846                  22700765.1904
        24.7504         22.0004
  23451385.2334   10052793.43246   7747598.88746                  23451394.4014
        15.0004         14.5004
  22567252.1554    8776662.04847   6766758.32246                  22567258.0504
        26.0004         21.2504
  21873460.7574    3713262.59147   2879254.14346                  21873467.8624
        27.5004         25.5004
 02  7  8 19 10 15.0030000  0  8G31G 3G 9G14G15G17G18G21
  23688572.2494   -1723988.85146  -1262524.39046                  23688580.4684
        16.5004         15.2504
  22494324.3584    4303282.54547   3347058.95646                  22494332.4134
        26.7504         25.0004
  24447595.9444     762309.68945    628092.20145                  24447606.0264
        11.5004         11.7504
  22206830.5774   -3598152.00247  -2741960.14047                  22206837.9764
        26.7504         26.5004
  22712837.2264    9268340.62947   7149359.30946                  22712845.2804
        25.2504         21.7504
  23464266.3194   10120484.16646   7800344.84046                  23464275.7574
        15.0004         14.2504
  22578314.2494    8834793.50247   6812055.54146                  22578320.0264
        25.2504         21.0004
  21879079.1014    3742786.20247   2902259.54946                  21879086.0304
        26.7504         25.5004
 02  7  8 19 10 30.0030000  0  8G31G 3G 9G14G15G17G18G21
  23689363.7264   -1719831.65946  -1259285.02046                  23689372.2144
        16.5004         15.5004
  22502054.6014    4343905.05247   3378712.82746                  22502062.3744
        27.0004         24.7504
  24451179.4294     781138.86945    642764.30445                  24451190.2614
        11.2504         11.2504
  22205215.9054   -3606636.05247  -2748571.05847                  22205223.2804
        26.7504         26.5004
  22724937.9214    9331929.43347   7198908.98246                  22724945.8004
        25.7504         21.7504
  23477165.8664   10188273.99646   7853168.01546                  23477175.4794
        14.7504         14.0004
  22589389.4134    8892993.01447   6857405.78646                  22589395.1674
        25.5004         21.0004
  21884711.8044    3772386.23347   2925324.50447                  21884719.0854
        27.0004         25.7504
 02  7  8 19 10 45.0030000  0  8G31G 3G 9G14G15G17G18G21
  23690184.7184   -1715515.29346  -1255921.61846                  23690193.3944
        16.5004         15.5004
  22509816.3584    4384691.86247   3410494.73746                  22509823.9914
        27.2504         24.5004
  24454793.8744     800132.91945    657564.88045                  24454804.0974
        11.2504         11.0004
  22203627.3744   -3614983.16047  -2755075.26347                  22203634.7264
        26.7504         26.7504
  22737058.4524    9395624.47747   7248541.45446                  22737066.3314
        25.2504         21.5004
  23490084.8584   10256162.34746   7906067.96746                  23490094.0624
        15.2504         13.7504
  22600477.2024    8951260.09347   6902808.70046                  22600483.2844
        26.2504         21.5004
  21890358.8274    3802062.20247   2948448.63747                  21890365.8744
        26.7504         25.7504
 02  7  8 19 11  0.0030000  0  8G31G 3G 9G14G15G17G18G21
  23691035.1874   -1711043.87046  -1252437.37346                  23691043.6874
        15.7504         15.7504
  22517607.9914    4425638.35147   3442401.06446                  22517615.5774
        27.2504         24.5004
  24458438.5384     819287.60645    672490.60445                  24458448.2574
        10.7504         10.7504
  22202064.3044   -3623197.40347  -2761475.94747                  22202071.5504
        26.2504         26.5004
  22749198.6324    9459421.34347   7298253.25746                  22749206.6284
        24.5004         21.0004
  23503021.9214   10324144.98246   7959041.37046                  23503030.9604
        15.5004         14.2504
  22611577.0854    9009590.18747   6948260.69946                  22611583.1904
        27.2504         21.5004
  21896019.5464    3831809.63247   2971628.44947                  21896026.6284
        27.0004         25.7504
 02  7  8 19 11 15.0030000  0  8G31G 3G 9G14G15G17G18G21
  23691916.4524   -1706415.09446  -1248830.52146                  23691925.1284
        16.0004         16.0004
  22525430.4294    4466746.45247   3474433.34246                  22525437.8154
        26.5004         24.0004
  24462114.2024     838605.18545    687543.26345                  24462124.1794
        10.5004         10.2504
  22200526.9914   -3631276.47547  -2767771.29447                  22200534.3664
        26.5004         26.5004
  22761358.3904    9523322.11747   7348046.03046                  22761366.4094
        23.5004         20.5004
  23515976.9374   10392223.74646   8012089.70546                  23515985.7414
        15.5004         14.5004
  22622689.2264    9067985.41248   6993763.45846                  22622695.2144
        28.0004         22.0004
  21901694.4214    3861630.85047   2994865.76146                  21901701.2924
        27.2504         25.5004
 02  7  8 19 11 30.0030000  0  8G31G 3G 9G14G15G17G18G21
  23692827.5384   -1701627.07446  -1245099.60446                  23692836.2964
        15.2504         15.2504
  22533284.0304    4508017.79747   3506592.80746                  22533291.7454
        26.0004         24.0004
  24465821.7184     858087.71845    702724.48445                  24465831.4374
        10.2504         10.2504
  22199015.5854   -3639218.47147  -2773959.83247                  22199022.9134
        26.5004         26.5004
  22773538.5774    9587328.38947   7397921.00546                  22773546.7024
        23.5004         20.5004
  23528950.5464   10460400.49446   8065214.37546                  23528959.6444
        15.2504         14.5004
  22633814.3744    9126447.26248   7039318.12546                  22633820.3624
        28.5004         22.7504
  21907383.4054    3891527.62347   3018161.94747                  21907390.4874
        27.0004         26.0004
 02  7  8 19 11 45.0030000  0  8G31G 3G 9G14G15G17G18G21
  23693768.7184   -1696681.09746  -1241245.58246                  23693777.7694
        15.7504         15.5004
  22541168.5384    4549450.77747   3538878.22246                  22541176.1124
        25.2504         23.7504
  24469560.6014     877733.75045    718033.08845                  24469571.5384
        11.0004         10.7504
  22197530.0774   -3647024.65847  -2780042.54547                  22197537.3474
        26.7504         26.2504
  22785738.3584    9651438.59947   7447876.97046                  22785746.3434
        24.2504         20.7504
  23541942.2574   10528673.42546   8118413.99846                  23541951.9404
        14.7504         14.2504
  22644951.7024    9184974.12748   7084923.46246                  22644957.7964
        28.5004         23.0004
  21913086.8274    3921498.35847   3041515.76147                  21913093.6474
        27.0004         26.0004
 02  7  8 19 12  0.0030000  0  8G31G 3G 9G14G15G17G18G21
  23694739.2654   -1691581.12746  -1237271.57246                  23694747.6364
        16.0004         15.2504
  22549082.9214    4591041.02047   3571286.17946                  22549090.7184
        26.2504         24.2504
  24473329.5384     897539.32845    733466.02045                  24473339.9374
        11.7504         11.0004
  22196069.7184   -3654698.94947  -2786022.48547                  22196076.9404
        26.5004         26.7504
  22797957.0384    9715648.56247   7497910.66446                  22797965.2574
        23.7504         20.7504
  23554951.9374   10597038.43546   8171685.36246                  23554961.5154
        14.5004         14.5004
  22656100.6164    9243561.79548   7130576.16646                  22656106.7334
        28.7504         23.5004
  21918803.1474    3951538.54747   3064923.69847                  21918810.1244
        27.2504         26.0004
 02  7  8 19 12 15.0030000  0  8G31G 3G 9G14G15G17G18G21
  23695739.7804   -1686321.55646  -1233173.18646                  23695748.0814
        16.5004         15.2504
  22557028.6244    4632793.85147   3603820.83546                  22557036.3514
        27.7504         24.7504
  24477130.5384     917510.24446    749027.81045                  24477140.1754
        12.2504         11.0004
  22194635.6874   -3662235.66947  -2791895.21947                  22194642.9334
        26.7504         26.7504
  22810195.8124    9779963.53447   7548026.18246                  22810204.2764
        22.7504         20.7504
  23567979.4374   10665500.78546   8225032.59546                  23567989.8584
        13.7504         14.0004
  22667262.1014    9302215.55248   7176280.37046                  22667268.3704
        29.0004         24.2504
  21924534.0304    3981653.65647   3088390.01347                  21924540.9484
        27.7504         26.2504
 02  7  8 19 12 30.0030000  0  8G31G 3G 9G14G15G17G18G21
  23696772.0154   -1680898.96046  -1228947.79446                  23696780.4794
        15.2504         15.2504
  22565005.2264    4674712.36347   3636484.58546                  22565012.9644
        27.2504         24.7504
  24480962.4054     937649.77646    764720.95045                  24480971.7494
        13.0004         11.2504
  22193228.1244   -3669631.39847  -2797658.10147                  22193235.4524
        27.2504         26.7504
  22822455.2654    9844386.74347   7598226.03646                  22822464.3154
        22.2504         20.2504
  23581026.7184   10734063.72846   8278458.19046                  23581037.7724
        13.7504         13.5004
  22678436.7654    9360938.41048   7222038.41846                  22678442.9294
        29.5004         24.5004
  21930279.6324    4011846.79348   3111917.12247                  21930286.5854
        28.2504         26.2504
 02  7  8 19 12 45.0030000  0  8G31G 3G 9G14G15G17G18G21
  23697834.4524   -1675316.02946  -1224597.45846                  23697843.0584
        15.7504         15.2504
  22573012.9834    4716793.53747   3669275.09846                  22573020.6284
        26.7504         24.5004
  24484826.3434     957955.23746    780543.39645                  24484835.3944
        13.2504         11.5004
  22191846.8744   -3676888.75247  -2803313.15247                  22191853.9094
        27.7504         27.0004
  22834734.5624    9908915.38047   7648508.05146                  22834743.7064
        21.2504         20.2504
  23594092.7024   10802724.28846   8331959.86246                  23594102.9954
        13.2504         13.5004
  22689623.8354    9419727.40948   7267848.01346                  22689630.0464
        30.0004         25.0004
  21936039.4134    4042115.21948   3135502.90347                  21936046.3434
        28.2504         26.5004
 02  7  8 19 13  0.0030000  0  8G31G 3G 9G14G15G17G18G21
  23698927.0694   -1669573.16546  -1220122.49246                  23698934.7144
        15.5004         14.7504
  22581051.5774    4759036.59147   3702191.72646                  22581059.4334
        25.5004         24.0004
  24488722.1404     978426.22246    796494.82445                  24488731.8004
        12.5004         11.2504
  22190492.4134   -3684008.08947  -2808860.65647                  22190499.1984
        27.7504         26.7504
  22847033.9294    9973548.70347   7698871.63646                  22847042.6514
        21.2504         19.7504
  23607176.6084   10871481.78746   8385537.06146                  23607186.8194
        13.5004         13.2504
  22700823.6324    9478581.84748   7313708.59146                  22700829.9484
        30.0004         25.2504
  21941813.3904    4072458.15548   3159146.74947                  21941820.4604
        28.5004         26.5004
 02  7  8 19 13 15.0030000  0  8G31G 3G 9G14G15G17G18G21
  23700049.1474   -1663676.57946  -1215527.76146                  23700056.9914
        15.2504         14.7504
  22589119.8044    4801434.92947   3735229.36946                  22589127.7294
        25.7504         23.7504
  24492647.8124     999056.44046    812570.32245                  24492657.8124
        12.2504         11.0004
  22189162.6634   -3690995.68747  -2814305.50747                  22189169.5934
        27.2504         27.0004
  22859351.8434   10038280.01347   7749311.58546                  22859360.7184
        21.2504         19.7504
  23620278.2574   10940329.59346   8439184.63346                  23620287.9644
        13.7504         13.7504
  22712034.4444    9537495.10148   7359615.00546                  22712040.5734
        30.0004         25.2504
  21947600.3514    4102869.06248   3182843.55747                  21947607.5384
        28.7504         26.7504
 02  7  8 19 13 30.0030000  0  8G31G 3G 9G14G15G17G18G21
  23701202.4444   -1657616.80546  -1210805.84046                  23701209.7494
        16.2504         15.0004
  22597219.4054    4843997.76047   3768395.18746                  22597227.3194
        26.0004         23.7504
  24496605.6164    1019855.41446    828777.34945                  24496614.4684
        12.2504         10.7504
  22187859.8664   -3697841.96747  -2819640.23547                  22187866.8784
        27.2504         27.0004
  22871690.2024   10103118.69647   7799835.19846                  22871698.6444
        21.5004         19.5004
  23633398.5384   11009277.09246   8492909.88246                  23633407.6594
        14.2504         13.5004
  22723258.2724    9596476.53048   7405574.54546                  22723264.9294
        29.0004         25.0004
  21953401.9444    4133357.17648   3206600.52247                  21953409.0384
        28.5004         27.0004
 02  7  8 19 13 45.0030000  0  8G31G 3G 9G14G15G17G18G21
  23702384.5304   -1651403.74646  -1205964.50046                  23702392.9834
        15.2504         14.7504
  22605348.1874    4886714.80947   3801681.16846                  22605356.1714
        25.0004         23.7504
  24500593.6944    1040813.28046    845108.15045                  24500602.5224
        12.5004         11.0004
  22186582.0624   -3704556.80848  -2824872.55147                  22186588.9794
        28.2504         27.2504
  22884047.4764   10168054.58847   7850434.56146                  22884055.6014
        21.5004         20.0004
  23646536.0154   11078314.12646   8546704.90146                  23646545.1594
        14.0004         14.0004
  22734492.8974    9655515.86948   7451579.20146                  22734499.4014
        28.5004         24.7504
  21959216.6244    4163912.44748   3230409.82547                  21959223.5304
        28.7504         27.0004
 02  7  8 19 14  0.0030000  0  8G31G 3G 9G14G15G17G18G21
  23703596.4054   -1645036.04546  -1201002.65046                  23703604.9764
        15.2504         15.2504
  22613506.5384    4929587.02947   3835088.07346                  22613514.7224
        25.7504         24.0004
  24504612.5694    1061931.25746    861563.73045                  24504622.7804
        12.5004         10.7504
  22185329.5544   -3711138.86848  -2830001.40147                  22185336.5424
        28.0004         27.0004
  22896422.8354   10233088.79247   7901110.51946                  22896431.1944
        21.5004         20.0004
  23659690.0384   11147441.61846   8600570.41046                  23659699.8154
        13.2504         13.7504
  22745738.7264    9714614.13547   7497629.78446                  22745745.0894
        27.2504         24.0004
  21965044.0854    4194536.02348   3254272.34947                  21965050.9444
        29.2504         27.2504
 02  7  8 19 14 15.0030000  0  8G31G 3G 9G14G15G17G18G21
  23704837.6404   -1638512.41646  -1195919.30246                  23704846.2224
        15.2504         15.2504
  22621694.4444    4972615.44747   3868616.69346                  22621702.6754
        26.2504         24.2504
  24508661.5694    1083210.82246    878145.23245                  24508670.7024
        12.5004         10.7504
  22184102.4054   -3717586.70748  -2835025.66147                  22184109.4294
        28.0004         27.2504
  22908817.6404   10298222.46147   7951863.98846                  22908826.1164
        22.0004         20.2504
  23672862.2884   11216660.84846   8654507.41146                  23672872.4174
        13.0004         13.5004
  22756996.3514    9773772.41447   7543727.12646                  22757002.8664
        26.2504         23.2504
  21970884.8824    4225228.88148   3278188.85847                  21970891.8004
        29.2504         27.0004
 02  7  8 19 14 30.0030000  0  8G31G 3G 9G14G15G17G18G21
  23706109.6324   -1631827.07346  -1190709.93546                  23706118.3194
        15.7504         15.2504
  22629913.1324    5015805.35447   3902271.13446                  22629921.5384
        26.0004         24.2504
  24512743.3664    1104657.64346    894857.04045                  24512751.4094
        12.5004         10.0004
  22182902.2264   -3723894.66847  -2839940.92947                  22182909.4604
        27.5004         27.2504
  22921232.0304   10363460.96847   8002699.14546                  22921240.4724
        22.0004         20.2504
  23686052.6874   11285977.17846   8708520.07046                  23686062.8154
        12.7504         13.0004
  22768266.2654    9832996.05047   7589875.40346                  22768272.6984
        26.0004         23.2504
  21976739.5774    4255996.50948   3302163.63147                  21976746.5544
        29.2504         27.2504
 02  7  8 19 14 45.0030000  0  8G31G 3G 9G14G15G17G18G21
  23707411.8744   -1624985.47246  -1185378.81746                  23707421.2764
        16.0004         15.5004
  22638161.5224    5059151.18347   3936047.08346                  22638169.8944
        25.5004         23.7504
  24516855.5544    1126266.29046    911694.96345                  24516863.9604
        12.5004         10.5004
  22181727.3274   -3730067.98447  -2844751.27447                  22181734.3744
        27.7504         27.2504
  22933665.2334   10428798.81147   8053611.70846                  22933673.9914
        21.7504         20.0004
  23699260.3974   11355384.98146   8762603.99446                  23699270.4564
        12.2504         13.0004
  22779547.3584    9892279.40047   7636070.20846                  22779553.6634
        25.0004         22.2504
  21982607.6874    4286833.30148   3326192.29747                  21982614.6984
        29.0004         27.2504
 02  7  8 19 15  0.0030000  0  8G31G 3G 9G14G15G17G18G21
  23708744.4834   -1617981.91446  -1179921.48346                  23708752.9014
        16.5004         15.5004
  22646440.9134    5102658.21347   3969948.63746                  22646449.2724
        26.0004         23.7504
  24520999.3194    1148042.44746    928663.42845                  24521007.6554
        13.2504         11.0004
  22180579.3274   -3736100.99447  -2849452.28747                  22180586.1594
        27.7504         27.5004
  22946118.6404   10494241.31747   8104605.83346                  22946127.6084
        21.2504         20.2504
  23712487.0934   11424889.61946   8816763.37846                  23712497.8434
        12.7504         13.2504
  22790840.8194    9951627.80047   7682315.69846                  22790847.3124
        24.5004         22.0004
  21988489.8974    4317744.73748   3350279.13147                  21988496.9334
        29.0004         27.2504
 02  7  8 19 15 15.0030000  0  8G31G 3G 9G14G15G17G18G21
  23710106.5384   -1610824.71346  -1174344.43146                  23710115.2374
        16.7504         15.7504
  22654748.9914    5146317.82147   4003969.08446                  22654757.1984
        26.2504         24.2504
  24525173.2184    1169977.73346    945755.88445                  24525181.0264
        14.0004         11.2504
  22179456.1944   -3742002.03648  -2854050.46947                  22179463.0774
        28.2504         27.2504
  22958590.3824   10559779.80847   8155674.73546                  22958599.9724
        20.2504         20.5004
  23725730.4054   11494482.57446   8870991.59646                  23725741.1084
        13.0004         13.2504
  22802145.2334   10011032.67347   7728605.19246                  22802151.4794
        24.0004         21.2504
  21994384.8124    4348722.35948   3374417.53947                  21994391.7184
        29.0004         27.0004
 02  7  8 19 15 30.0030000  0  8G31G 3G 9G14G15G17G18G21
  23711498.9134   -1603508.18146  -1168643.22946                  23711507.5774
        17.0004         15.5004
  22663087.4054    5190135.27847   4038112.52846                  22663095.2374
        27.0004         24.2504
  24529378.5774    1192077.85546    962976.80445                  24529385.5774
        13.7504         11.2504
  22178359.5304   -3747765.38748  -2858541.36047                  22178366.2694
        28.7504         28.0004
  22971081.0464   10625419.74547   8206822.69646                  22971090.9294
        20.2504         20.0004
  23738991.6164   11564169.14746   8925292.74646                  23739001.6044
        13.7504         13.5004
  22813461.4054   10070499.35247   7774942.83946                  22813467.8274
        24.5004         21.0004
  22000293.2654    4379771.49648   3398611.66647                  22000300.4764
        29.0004         27.2504
 02  7  8 19 15 45.0030000  0  8G31G 3G 9G14G15G17G18G21
  23712922.0154   -1596029.89546  -1162815.98446                  23712930.0344
        17.7504         15.7504
  22671455.7654    5234112.62847   4072380.58046                  22671463.7264
        26.0004         24.2504
  24533616.0224    1214345.28946    980328.07645                  24533624.4644
        14.0004         11.5004
  22177289.8044   -3753388.42348  -2862922.91147                  22177296.6124
        29.0004         28.0004
  22983591.7184   10691163.39247   8258051.47446                  22983601.2724
        20.7504         20.5004
  23752270.4914   11633951.58246   8979668.60246                  23752279.8354
        14.0004         13.7504
  22824789.9134   10130030.05947   7821330.38346                  22824796.2184
        25.5004         21.0004
  22006215.8744    4410894.37048   3422863.25947                  22006222.9444
        28.7504         27.0004
 02  7  8 19 16  0.0030000  0  8G31G 3G 9G14G15G17G18G21
  23714375.1324   -1588394.04046  -1156865.97546                  23714383.5034
        17.7504         16.2504
  22679853.8974    5278245.34147   4106769.68146                  22679861.8234
        25.2504         24.0004
  24537884.0934    1236775.80046    997806.41045                  24537893.0854
        13.5004         11.5004
  22176245.2724   -3758875.54848  -2867198.55847                  22176252.0464
        28.0004         27.2504
  22996121.2724   10757006.24947   8309357.55346                  22996130.7334
        21.5004         20.7504
  23765567.5384   11703825.41846   9034115.67446                  23765576.8124
        14.0004         13.7504
  22836129.8744   10189620.28547   7867764.29546                  22836135.8394
        26.2504         21.2504
  22012151.4764    4442086.59248   3447168.88247                  22012158.4404
        28.7504         27.2504
 02  7  8 19 16 15.0030000  0  8G31G 3G 9G14G15G17G18G21
  23715857.7884   -1580602.14146  -1150794.36046                  23715865.2224
        18.0004         15.7504
  22688281.2724    5322531.51947   4141278.35846                  22688289.0114
        25.2504         23.5004
  24542183.2414    1259367.80146   1015410.58845                  24542191.6364
        12.7504         11.5004
  22175226.7104   -3764228.01847  -2871369.28547                  22175233.5194
        27.7504         27.5004
  23008669.4294   10822946.63447   8360739.62546                  23008678.4444
        22.7504         21.0004
  23778880.8974   11773788.94746   9088632.64246                  23778890.8154
        13.7504         13.7504
  22847480.4294   10249268.30847   7914243.24746                  22847486.4874
        27.2504         21.2504
  22018100.0384    4473346.32548   3471527.11747                  22018107.1904
        28.5004         27.0004
 02  7  8 19 16 30.0030000  0  8G31G 3G 9G14G15G17G18G21
  23717370.7964   -1572651.98646  -1144599.43146                  23717379.0034
        16.7504         15.7504
  22696738.2024    5366973.09247   4175908.12846                  22696746.1044
        25.0004         23.5004
  24546513.2334    1282123.50046   1033142.33645                  24546522.4484
        12.2504         11.7504
  22174234.1084   -3769443.72448  -2875433.43747                  22174240.9914
        28.2504         27.7504
  23021236.3744   10888986.46047   8412199.19546                  23021244.7924
        22.7504         21.0004
  23792212.1404   11843844.00846   9143220.92746                  23792223.2064
        13.2504         13.0004
  22858842.3904   10308975.90148   7960768.62446                  22858848.2494
        28.0004         21.5004
  22024061.6634    4504675.67648   3495939.59847                  22024068.7804
        28.7504         27.0004
 02  7  8 19 16 45.0030000  0  8G31G 3G 9G14G15G17G18G21
  23718914.5074   -1564539.37846  -1138277.92946                  23718922.9954
        17.0004         16.0004
  22705225.5854    5411573.99347   4210662.05346                  22705233.2884
        25.0004         23.2504
  24550875.4834    1305047.18945   1051004.96445                  24550884.5224
        11.7504         11.5004
  22173268.6014   -3774518.40748  -2879387.70847                  22173275.5304
        28.2504         28.0004
  23033823.2184   10955129.71647   8463739.34946                  23033831.6244
        22.2504         20.7504
  23805560.9604   11913994.72746   9197883.74146                  23805572.0504
        12.7504         13.7504
  22870216.5624   10368747.04948   8007343.50946                  22870222.4684
        28.7504         21.7504
  22030037.5304    4536078.50548   3520409.33047                  22030044.6474
        28.7504         26.7504
 02  7  8 19 17  0.0030000  0  8G31G 3G 9G14G15G17G18G21
  23720488.6794   -1556267.78346  -1131832.50446                  23720496.8744
        17.0004         15.7504
  22713742.6084    5456330.49347   4245537.22946                  22713750.1474
        26.2504         23.0004
  24555268.6874    1328135.30145   1068995.71545                  24555277.4684
        11.5004         11.5004
  22172329.0934   -3779455.39448  -2883234.68047                  22172336.1044
        28.2504         27.7504
  23046428.8274   11021372.68847   8515357.20946                  23046437.0694
        22.0004         20.5004
  23818928.0774   11984237.29546   9252618.13646                  23818938.8744
        12.7504         13.5004
  22881602.0384   10428578.08448   8053965.06246                  22881608.1324
        29.0004         22.0004
  22036026.5464    4567551.21048   3544933.51647                  22036033.7454
        28.0004         26.7504
 02  7  8 19 17 15.0030000  0  8G31G 3G 9G14G15G17G18G21
  23722092.4684   -1547838.92146  -1125264.54446                  23722101.1674
        16.0004         15.5004
  22722288.8664    5501240.36647   4280531.90946                  22722296.1124
        26.2504         23.5004
  24559693.4834    1351386.10345   1087113.22745                  24559703.1324
        11.2504         10.7504
  22171415.7024   -3784256.49448  -2886975.76047                  22171422.7844
        28.7504         28.0004
  23059052.9684   11087713.28547   8567051.13446                  23059061.6554
        21.2504         20.2504
  23832311.6084   12054569.67246   9307422.51246                  23832322.3004
        12.7504         13.2504
  22892998.5544   10488466.84648   8100631.60446                  22893004.7764
        30.0004         22.0004
  22042028.6084    4599091.76248   3569510.56647                  22042035.5854
        28.0004         26.5004
 02  7  8 19 17 30.0030000  0  8G31G 3G 9G14G15G17G18G21
  23723726.1164   -1539253.64946  -1118574.72746                  23723734.3004
        16.7504         16.2504
  22730863.5854    5546302.47247   4315645.21246                  22730870.8664
        26.5004         23.2504
  24564148.1794    1374798.73945   1105356.84845                  24564158.3664
        10.0004         11.2504
  22170527.4684   -3788922.40148  -2890611.49747                  22170534.1834
        28.7504         28.0004
  23071695.4294   11154150.44147   8618820.30846                  23071704.0814
        21.5004         20.5004
  23845712.4914   12124990.86146   9362296.07346                  23845722.7494
        13.2504         13.2504
  22904406.2184   10548412.37048   8147342.36246                  22904412.1014
        30.7504         22.7504
  22048043.3434    4630699.17648   3594139.71947                  22048050.3664
        28.0004         26.2504
 02  7  8 19 17 45.0030000  0  8G31G 3G 9G14G15G17G18G21
  23725390.4524   -1530507.08646  -1111759.20846                  23725399.3044
        15.7504         16.0004
  22739468.6474    5591521.28647   4350880.62646                  22739476.1164
        25.7504         23.2504
  24568635.7184    1398378.07945   1123730.35545                  24568646.4564
        11.2504         11.0004
  22169665.9994   -3793448.28448  -2894138.12447                  22169672.7964
        28.0004         28.0004
  23084357.0304   11220688.86947   8670668.39646                  23084365.9764
        21.2504         20.2504
  23859130.6474   12195505.36846   9417242.38846                  23859140.0734
        13.2504         13.0004
  22915824.9054   10608419.15048   8194100.86946                  22915830.9054
        30.7504         23.2504
  22054071.4524    4662378.35948   3618824.79847                  22054078.3474
        28.2504         26.2504
 02  7  8 19 18  0.0030000  0  8G31G 3G 9G14G15G17G18G21
  23727085.2884   -1521601.22046  -1104819.57646                  23727093.9764
        16.7504         16.0004
  22748102.8124    5636894.41347   4386236.28346                  22748110.5264
        25.7504         23.5004
  24573154.1874    1422122.08345   1142232.18545                  24573163.7414
        11.5004         11.5004
  22168831.2104   -3797836.08047  -2897557.14647                  22168838.2334
        27.2504         28.0004
  23097038.2414   11287326.35547   8722593.66146                  23097047.3274
        21.7504         20.7504
  23872567.8194   12266110.99246   9472259.68446                  23872577.7614
        13.5004         12.5004
  22927254.9054   10668484.95748   8240905.37046                  22927260.9524
        29.7504         23.2504
  22060113.1474    4694126.78848   3643563.83047                  22060120.0304
        28.2504         26.2504
 02  7  8 19 18 15.0030000  0  8G31G 3G 9G14G15G17G18G21
  23728810.1874   -1512536.12446  -1097755.84646                  23728818.7334
        16.2504         15.7504
  22756766.5464    5682421.58047   4421711.96746                  22756775.0114
        25.7504         24.0004
  24577703.7574    1446030.67145   1160862.26145                  24577713.3584
        11.2504         11.2504
  22168022.4834   -3802085.94047  -2900868.69147                  22168029.5304
        27.7504         28.0004
  23109737.8904   11354062.47547   8774595.78446                  23109746.7764
        22.5004         20.5004
  23886020.5464   12336807.41546   9527347.70946                  23886029.6204
        13.0004         12.7504
  22938696.2334   10728609.46648   8287755.61646                  22938702.5384
        28.7504         23.5004
  22066167.8124    4725944.21948   3668356.62947                  22066174.7884
        28.0004         26.0004
 02  7  8 19 18 30.0030000  0  8G31G 3G 9G14G15G17G18G21
  23730566.6794   -1503307.80046  -1090564.93346                  23730574.8154
        16.7504         16.0004
  22765460.0934    5728106.42247   4457310.51946                  22765468.3584
        26.0004         24.0004
  24582285.0464    1470107.87245   1179623.72145                  24582295.0344
        11.0004         11.5004
  22167240.6324   -3806193.72148  -2904069.52047                  22167247.7024
        28.0004         28.2504
  23122456.8744   11420901.00547   8826677.71746                  23122465.8784
        22.7504         21.2504
  23899491.6244   12407598.30946   9582509.37046                  23899501.0624
        13.2504         13.0004
  22950149.3584   10788796.31548   8334654.43846                  22950155.8974
        28.0004         23.5004
  22072236.2184    4757834.35948   3693206.09347                  22072242.9794
        28.0004         25.7504
 02  7  8 19 18 45.0030000  0  8G31G 3G 9G14G15G17G18G21
  23732353.7264   -1493915.39146  -1083246.16046                  23732361.6284
        17.0004         16.5004
  22774183.6404    5773949.51747   4493032.40346                  22774192.1164
        25.5004         23.7504
  24586899.3744    1494354.56445   1198517.24945                  24586909.7264
        11.0004         11.5004
  22166486.3274   -3810158.37948  -2907158.82547                  22166493.1874
        28.5004         28.0004
  23135195.2264   11487842.66947   8878839.99946                  23135204.1474
        23.2504         21.2504
  23912980.7184   12478484.58746   9637745.36546                  23912990.4724
        13.7504         13.0004
  22961614.6404   10849046.19847   8381602.38146                  22961621.4134
        27.2504         23.5004
  22078318.7804    4789798.14647   3718112.93647                  22078325.7334
        27.7504         25.7504
 02  7  8 19 19  0.0030000  0  8G31G 3G 9G14G15G17G18G21
  23734170.3044   -1484368.80646  -1075807.25546                  23734178.5224
        17.0004         16.2504
  22782935.3974    5819940.58547   4528869.57746                  22782943.8044
        25.2504         23.7504
  24591543.7494    1518760.63545   1217534.98945                  24591553.6084
        11.7504         11.5004
  22165757.3354   -3813989.85948  -2910144.36347                  22165764.1084
        28.5004         28.2504
  23147951.6944   11554877.22247   8931074.67746                  23147960.9214
        22.5004         21.0004
  23926486.2104   12549455.70846   9693047.46046                  23926496.7264
        14.5004         13.2504
  22973089.8434   10909348.85147   8428591.44146                  22973096.4524
        26.5004         23.2504
  22084413.1554    4821825.28947   3743069.15747                  22084420.2964
        27.7504         25.7504
 02  7  8 19 19 15.0030000  0  8G31G 3G 9G14G15G17G18G21
  23736016.8904   -1474663.58046  -1068244.71946                  23736025.7064
        16.7504         16.5004
  22791716.1324    5866083.72447   4564825.25446                  22791724.9954
        25.0004         23.7504
  24596219.3274    1543330.67446   1236680.47445                  24596229.7374
        12.0004         11.7504
  22165054.2104   -3817683.74448  -2913022.68147                  22165060.9484
        28.2504         28.0004
  23160726.4214   11622008.87147   8983385.00546                  23160735.4014
        22.0004         20.7504
  23940008.7964   12620516.16046   9748419.16546                  23940018.8544
        14.5004         13.2504
  22984575.7964   10969708.57347   8475624.97746                  22984582.4524
        26.0004         23.0004
  22090520.7414    4853919.99747   3768078.01946                  22090527.9524
        27.2504         25.5004
 02  7  8 19 19 30.0030000  0  8G31G 3G 9G14G15G17G18G21
  23737894.8354   -1464797.86146  -1060557.15246                  23737903.8624
        16.5004         16.2504
  22800526.2264    5912380.42247   4600900.57046                  22800534.8664
        25.0004         24.0004
  24600925.7724    1568066.49245   1255955.13146                  24600935.6794
        11.7504         12.0004
  22164377.6874   -3821238.06848  -2915792.25047                  22164384.5304
        28.2504         27.7504
  23173519.8824   11689239.19447   9035772.23446                  23173529.0264
        22.0004         20.7504
  23953548.0304   12691667.26446   9803861.52046                  23953557.8544
        14.0004         13.2504
  22996072.7654   11030126.94547   8522704.21646                  22996079.3274
        26.0004         23.0004
  22096641.4764    4886084.00447   3793140.88546                  22096648.5224
        27.5004         25.2504
 02  7  8 19 19 45.0030000  0  8G31G 3G 9G14G15G17G18G21
  23739802.1794   -1454773.77646  -1052746.17046                  23739811.0424
        17.7504         16.5004
  22809365.0464    5958828.28347   4637093.68646                  22809373.7924
        26.0004         24.2504
  24605664.9374    1592965.98746   1275357.35645                  24605675.0544
        12.0004         11.0004
  22163727.4054   -3824654.96548  -2918454.73647                  22163734.2884
        28.5004         28.0004
  23186331.6944   11756565.89647   9088234.55146                  23186340.7224
        22.0004         20.2504
  23967104.4374   12762907.01546   9859372.92846                  23967114.7414
        13.2504         12.5004
  23007580.9374   11090601.52647   8569827.25346                  23007587.5114
        25.2504         22.5004
  22102774.5854    4918314.91547   3818255.87846                  22102781.6204
        27.2504         25.2504
 02  7  8 19 20  0.0030000  0  8G31G 3G 9G14G15G17G18G21
  23741738.8514   -1444595.77746  -1044815.24046                  23741746.9294
        17.7504         16.7504
  22818231.6084    6005422.40847   4673400.76246                  22818240.0154
        26.0004         24.2504
  24610432.9604    1618024.65545   1294883.59145                  24610443.6634
        11.7504         11.5004
  22163102.4524   -3827938.80448  -2921013.54047                  22163109.2144
        28.2504         28.0004
  23199161.0154   11823984.32347   9140768.35246                  23199170.2414
        22.0004         20.5004
  23980676.9684   12834230.61046   9914949.68246                  23980687.7764
        12.7504         12.2504
  23019098.6404   11151127.60147   8616990.41446                  23019105.3314
        25.2504         22.5004
  22108919.7964    4950608.00647   3843419.33246                  22108926.8544
        27.2504         25.2504
 02  7  8 19 20 15.0030000  0  8G31G 3G 9G14G15G17G18G21
  23743705.5774   -1434260.94446  -1036762.12946                  23743713.6324
        17.7504         16.7504
  22827126.3124    6052165.43347   4709823.87546                  22827134.6124
        25.5004         23.7504
  24615231.9604    1643245.44545   1314536.14245                  24615242.3234
        10.7504         11.7504
  22162503.6164   -3831086.62248  -2923466.34447                  22162510.5694
        28.2504         28.0004
  23212008.4134   11891497.10047   9193375.66846                  23212017.5344
        22.0004         20.2504
  23994265.6554   12905640.58646   9970593.74546                  23994276.2534
        12.5004         12.0004
  23030626.8904   11211707.87547   8664195.80346                  23030633.3944
        25.0004         22.5004
  22115077.3194    4982966.17747   3868633.49246                  22115084.2374
        27.2504         25.2504
 02  7  8 19 20 30.0030000  0  8G31G 3G 9G14G15G17G18G21
  23745703.5694   -1423763.08946  -1028581.97346                  23745712.3044
        17.0004         16.2504
  22836050.8434    6099063.20647   4746367.57246                  22836058.6634
        24.7504         23.5004
  24620063.7574    1668634.54145   1334319.86245                  24620074.7184
        10.0004         11.5004
  22161931.4294   -3834092.27048  -2925808.37147                  22161938.3354
        28.5004         28.2504
  23224874.8904   11959110.22947   9246061.17746                  23224883.9764
        22.2504         20.2504
  24007872.6014   12977142.94846  10026309.79045                  24007883.2804
        12.0004         11.5004
  23042166.3124   11272348.32547   8711448.08346                  23042173.0154
        25.2504         22.2504
  22121248.3514    5015395.36147   3893902.98546                  22121255.3514
        26.5004         24.7504
 02  7  8 19 20 45.0030000  0  8G31G 3G 9G14G15G17G18G21
  23747730.8744   -1413108.98346  -1020280.07246                  23747738.8354
        17.7504         16.5004
  22845003.2654    6146108.58247   4783026.28246                  22845011.2494
        25.0004         23.5004
  24624926.0854    1694185.14545   1354229.40345                  24624937.1984
        10.5004         11.7504
  22161385.4214   -3836962.40148  -2928044.80247                  22161391.9954
        28.5004         28.0004
  23237759.1164   12026816.65147   9298819.38246                  23237767.5344
        22.0004         20.0004
  24021495.1014   13048730.59845  10082092.28545                  24021505.9794
        11.7504         11.2504
  23053715.9914   11333041.84247   8758741.71146                  23053722.6014
        26.0004         22.2504
  22127431.6634    5047888.43147   3919222.26046                  22127438.4604
        26.7504         24.7504
 02  7  8 19 21  0.0040000  0  8G31G 3G 9G14G15G17G18G21
  23749788.1994   -1402295.64446  -1011854.08746                  23749795.9494
        17.7504         16.0004
  22853984.8484    6193306.64647   4819803.96946                  22853992.8554
        25.2504         23.5004
  24629819.2384    1719901.20145   1374267.89445                  24629830.1524
        10.5004         11.7504
  22160865.5744   -3839694.86548  -2930173.95647                  22160872.0664
        28.7504         28.2504
  23250662.2694   12094623.04447   9351655.48846                  23250670.8054
        21.7504         20.2504
  24035135.5124   13120410.58645  10137946.73945                  24035146.0044
        11.5004         11.5004
  23065276.9344   11393794.44047   8806081.37746                  23065283.3674
        27.0004         22.2504
  22133627.7934    5080449.84647   3944594.79246                  22133634.7344
        26.7504         24.5004
 02  7  8 19 21 15.0040000  0  8G31G 3G 9G14G15G17G18G21
  23751876.4494   -1391323.49146  -1003304.35046                  23751884.7384
        17.7504         15.7504
  22862994.2774    6240651.65447   4856696.15546                  22863002.2504
        25.2504         23.5004
  24634744.0124    1745780.24445   1394433.36446                  24634754.9734
        10.5004         12.0004
  22160371.9024   -3842288.32248  -2932194.80047                  22160378.5124
        28.5004         28.5004
  23263582.9414   12162520.98747   9404562.93146                  23263591.6174
        21.7504         19.7504
  24048791.4964   13192173.81646  10193866.04846                  24048801.4494
        12.2504         12.0004
  23076847.6294   11454598.78447   8853461.35746                  23076853.9224
        27.7504         22.0004
  22139836.5594    5113075.96747   3970017.74846                  22139843.5944
        26.7504         24.5004
 02  7  8 19 21 30.0040000  0  8G31G 3G 9G14G15G17G18G21
  23753993.9184   -1380194.21446   -994632.19646                  23754001.7504
        18.2504         16.0004
  22872031.7154    6288144.17447   4893703.29946                  22872039.6874
        25.0004         23.5004
  24639699.5904    1771821.69445   1414725.41746                  24639709.8124
        11.2504         12.0004
  22159904.2074   -3844745.27148  -2934109.26747                  22159911.0394
        28.2504         28.5004
  23276521.1294   12230512.54747   9457543.32446                  23276529.9694
        20.5004         19.5004
  24062464.5274   13264022.71146  10249852.10746                  24062475.4184
        12.5004         12.2504
  23088428.6214   11515456.42548   8900882.86846                  23088435.0084
        28.5004         22.0004
  22146057.2384    5145766.47947   3995490.87146                  22146064.2274
        26.7504         24.7504
 02  7  8 19 21 45.0040000  0  8G31G 3G 9G14G15G17G18G21
  23756142.5744   -1368901.86346   -985832.95546                  23756149.9494
        17.7504         16.0004
  22881098.4734    6335789.75147   4930829.69446                  22881106.7034
        25.2504         24.0004
  24644687.5274    1798031.37045   1435148.53846                  24644697.4804
        11.5004         12.0004
  22159463.9654   -3847059.66548  -2935912.65947                  22159470.9884
        28.2504         28.5004
  23289478.2624   12298603.31247   9510601.02346                  23289487.3594
        21.0004         19.2504
  24076154.1994   13335962.81846  10305909.26346                  24076165.4884
        12.5004         12.5004
  23100020.4734   11576372.94048   8948350.25946                  23100026.7304
        28.2504         21.5004
  22152291.1764    5178526.98947   4021018.54246                  22152298.3284
        27.0004         24.7504
 02  7  8 19 22  0.0040000  0  8G31G 3G 9G14G15G17G18G21
  23758323.6684   -1357442.22746   -976903.38446                  23758330.9844
        17.7504         16.0004
  22890195.0514    6383592.23947   4968078.36446                  22890203.5044
        25.2504         24.0004
  24649708.2234    1824413.44646   1455705.97246                  24649717.8944
        12.0004         12.5004
  22159051.4414   -3849227.29648  -2937601.68947                  22159058.1914
        28.5004         28.0004
  23302455.1764   12366797.25947   9563739.11646                  23302464.6604
        20.7504         19.7504
  24089861.7624   13407998.10346  10362040.56546                  24089872.3014
        12.7504         12.5004
  23111624.4414   11637352.25847   8995866.57046                  23111630.6994
        27.7504         21.5004
  22158539.5904    5211361.49647   4046603.86846                  22158546.7424
        26.0004         24.5004
 02  7  8 19 22 15.0040000  0  8G31G 3G 9G14G15G17G18G21
  23760534.2774   -1345825.73246   -967851.56046                  23760542.3914
        18.2504         16.0004
  22899319.4414    6431540.88547   5005440.92446                  22899327.7424
        25.5004         24.5004
  24654759.5044    1850957.48946   1476389.64846                  24654769.3754
        12.5004         12.5004
  22158664.7624   -3851258.58148  -2939184.48647                  22158671.3714
        28.2504         28.2504
  23315449.6524   12435083.79547   9616949.37446                  23315459.0314
        21.0004         19.2504
  24103586.0434   13480117.92146  10418237.75846                  24103596.6644
        12.7504         12.2504
  23123238.2624   11698383.87647   9043423.64846                  23123244.3554
        27.7504         21.5004
  22164799.8714    5244259.54447   4072238.71046                  22164807.0234
        26.2504         24.5004
 02  7  8 19 22 30.0040000  0  8G31G 3G 9G14G15G17G18G21
  23762774.2154   -1334053.21346   -958678.17646                  23762782.1644
        17.5004         16.2504
  22908471.2074    6479634.56147   5042916.49546                  22908479.6844
        25.2504         24.2504
  24659840.8554    1877662.65646   1497198.86946                  24659850.8094
        12.2504         12.0004
  22158303.8634   -3853154.25047  -2940661.59647                  22158310.5664
        27.7504         28.0004
  23328461.7624   12503461.85047   9670230.91446                  23328471.4804
        21.5004         19.5004
  24117325.5194   13552321.30046  10474500.06846                  24117336.1644
        12.0004         12.2504
  23134862.1764   11759466.73747   9091020.65046                  23134868.4804
        27.7504         21.0004
  22171072.1134    5277220.15847   4097922.30446                  22171079.1484
        26.7504         24.5004
 02  7  8 19 22 45.0040000  0  8G31G 3G 9G14G15G17G18G21
  23765044.7234   -1322122.06646   -949381.18246                  23765052.8484
        17.5004         16.2504
  22917651.1844    6527875.45647   5080506.77546                  22917659.5554
        25.2504         24.0004
  24664954.1054    1904531.42845   1518135.56146                  24664963.1684
        11.7504         12.0004
  22157969.4414   -3854911.76148  -2942031.05047                  22157976.1214
        28.0004         28.0004
  23341491.2934   12571933.72847   9723585.58746                  23341500.5314
        21.2504         19.5004
  24131081.8404   13624610.44445  10530829.19045                  24131093.4924
        11.5004         11.7504
  23146495.9964   11820603.02447   9138659.28546                  23146502.2424
        27.2504         21.0004
  22177356.5824    5310245.60247   4123656.41146                  22177363.6414
        26.7504         24.5004
 02  7  8 19 23  0.0040000  0  8G31G 3G 9G14G15G17G18G21
  23767346.4184   -1310027.48946   -939956.82746                  23767355.1054
        18.0004         16.5004
  22926860.0514    6576268.12747   5118215.32946                  22926868.2344
        25.5004         24.0004
  24670099.2304    1931568.71946   1539203.61146                  24670109.1954
        12.7504         12.2504
  22157662.3244   -3856526.17248  -2943289.00247                  22157668.7694
        28.2504         28.2504
  23354540.0984   12640504.06847   9777016.97146                  23354549.3944
        20.7504         19.2504
  24144854.7464   13696990.02245  10587228.78046                  24144866.6564
        11.7504         12.0004
  23158140.8794   11881797.33347   9186343.12846                  23158146.9494
        26.0004         20.7504
  22183654.2694    5343340.58647   4149444.71246                  22183661.3164
        27.0004         24.5004
 02  7  8 19 23 15.0040000  0  8G31G 3G 9G14G15G17G18G21
  23769679.1604   -1297769.50846   -930405.15646                  23769687.3204
        17.7504         16.7504
  22936097.5984    6624812.17947   5156041.83746                  22936105.7584
        25.7504         24.0004
  24675275.8244    1958774.59046   1560403.00045                  24675284.6764
        13.0004         11.5004
  22157382.3554   -3857997.44848  -2944435.42247                  22157388.9064
        28.7504         28.5004
  23367607.1134   12709172.58147   9830524.85646                  23367616.2584
        20.5004         19.0004
  24158645.4024   13769459.75045  10643698.60345                  24158656.1764
        11.2504         11.7504
  23169796.7624   11943049.37447   9234071.96746                  23169802.9844
        25.5004         21.0004
  22189965.4884    5376504.96247   4175287.07846                  22189972.3324
        27.2504         24.7504
 02  7  8 19 23 30.0040000  0  8G31G 3G 9G14G15G17G18G21
  23772041.5044   -1285353.74946   -920730.53646                  23772050.0984
        18.0004         16.5004
  22945363.0044    6673501.68647   5193981.69846                  22945371.1994
        25.2504         23.5004
  24680483.8164    1986143.23746   1581729.21645                  24680492.5394
        12.7504         11.0004
  22157128.5194   -3859331.14348  -2945474.63647                  22157135.3164
        28.5004         28.5004
  23380691.9024   12777933.52646   9884104.77646                  23380700.6954
        19.7504         18.5004
  24172452.8014   13842013.78445  10700234.11945                  24172463.3874
        11.7504         11.0004
  23181462.3094   12004353.37347   9281841.30046                  23181469.0124
        24.7504         21.0004
  22196288.4024    5409732.93447   4201179.00646                  22196295.1414
        27.0004         24.7504
 02  7  8 19 23 45.0040000  0  8G31G 3G 9G14G15G17G18G21
  23774434.4104   -1272779.27646   -910932.24246                  23774443.9304
        17.5004         17.2504
  22954655.9654    6722337.20647   5232035.33346                  22954664.1724
        25.0004         23.7504
  24685723.3244    2013675.55946   1603182.98445                  24685730.7584
        12.2504         11.0004
  22156901.0594   -3860526.43848  -2946406.00147                  22156907.8554
        28.5004         28.7504
  23393794.3634   12846787.48346   9937757.16746                  23393803.1804
        19.2504         18.2504
  24186275.5594   13914652.80045  10756835.86145                  24186285.2664
        11.7504         10.7504
  23193138.0274   12065709.94447   9329651.58946                  23193144.8124
        24.5004         21.0004
  22202623.5664    5443025.09147   4227120.94946                  22202630.4104
        27.0004         24.7504
 02  7  8 19 24  0.0040000  0  8G31G 3G 9G14G15G17G18G21
  23776857.6914   -1260045.99846   -901010.21446                  23776867.3054
        17.0004         17.2504
  22963976.7304    6771318.44447   5270202.51746                  22963985.2664
        24.5004         23.7504
  24690993.8404    2041371.74646   1624764.44745                  24691002.2934
        12.7504         10.7504
  22156699.8324   -3861583.08448  -2947229.33447                  22156706.6644
        28.0004         28.5004
  23406914.6994   12915734.39147   9991481.98846                  23406923.1764
        20.0004         18.0004
  24200114.1294   13987376.70845  10813503.77445                  24200123.8124
        11.5004         10.7504
  23204823.9574   12127119.12247   9377502.87046                  23204830.4264
        24.5004         21.2504
  22208971.4184    5476381.53747   4253112.98346                  22208978.3124
        27.2504         24.7504
 02  7  8 19 24 15.0040000  0  8G31G 3G 9G14G15G17G18G21
  23779311.1444   -1247151.55346   -890962.58746                  23779320.2544
        16.7504         16.7504
  22973325.8324    6820447.46047   5308484.84246                  22973334.4374
        24.7504         23.7504
  24696295.5124    2069234.04145   1646475.31245                  24696304.2234
        11.7504         10.7504
  22156525.4414   -3862498.67447  -2947942.74947                  22156532.3244
        27.7504         28.5004
  23420052.9574   12984776.38147  10045280.90146                  23420061.6684
        21.0004         18.2504
  24213969.6294   14060187.56745  10870239.39945                  24213979.5124
        10.7504         11.2504
  23216520.1604   12188582.91547   9425396.72046                  23216526.9224
        24.2504         21.2504
  22215331.2154    5509804.25947   4279156.65746                  22215338.0744
        27.5004         24.5004
 02  7  8 19 24 30.0040000  0  8G31G 3G 9G14G15G17G18G21
  23781795.2774   -1234096.36346   -880789.71446                  23781804.1644
        17.0004         16.5004
  22982702.7304    6869723.44747   5346881.69846                  22982711.3014
        25.2504         24.2504
  24701629.0274    2097262.04745   1668315.32745                  24701637.5394
        11.7504         11.2504
  22156378.2304   -3863273.51748  -2948546.49247                  22156385.1604
        28.2504         28.5004
  23433209.3484   13053912.75647  10099153.36146                  23433217.5784
        21.0004         18.5004
  24227841.6524   14133084.80545  10927042.38545                  24227852.5434
        11.0004         11.2504
  23228226.4344   12250100.62147   9473332.57946                  23228233.2544
        24.5004         21.5004
  22221704.1134    5543292.70747   4305251.55846                  22221710.7694
        27.0004         24.5004
 02  7  8 19 24 45.0040000  0  8G31G 3G 9G14G15G17G18G21
  23784309.2774   -1220885.90746   -870495.84746                  23784318.1174
        18.0004         17.2504
  22992106.7774    6919140.73547   5385388.65146                  22992115.2544
        25.5004         24.0004
  24706993.0194    2125450.38046   1690280.27845                  24707002.3524
        12.0004         11.0004
  22156256.6134   -3863912.99448  -2949044.75847                  22156263.3164
        28.5004         28.5004
  23446382.4964   13123137.96647  10153095.03646                  23446391.2074
        21.0004         18.2504
  24241728.7854   14206062.71645  10983908.19345                  24241740.6024
        11.0004         11.0004
  23239942.2074   12311666.68047   9521306.10846                  23239948.9924
        25.0004         22.2504
  22228088.0594    5576841.43547   4331393.41446                  22228094.6334
        26.7504         24.5004
 02  7  8 19 25  0.0040000  0  8G31G 3G 9G14G15G17G18G21
  23786853.1764   -1207516.96146   -860078.48546                  23786862.0744
        17.0004         17.0004
  23001538.0354    6968701.97847   5424007.78246                  23001546.3834
        26.0004         24.2504
  24712388.4184    2153802.14046   1712372.58245                  24712395.7464
        12.7504         11.0004
  22156161.2624   -3864414.13448  -2949435.22647                  22156167.7774
        28.5004         28.2504
  23459573.0194   13192454.79347  10207108.09046                  23459581.7664
        20.5004         18.0004
  24255632.3554   14279124.26145  11040839.18245                  24255643.5744
        10.7504         11.2504
  23251667.6294   12373284.00047   9569319.59146                  23251674.2974
        25.5004         22.5004
  22234484.2154    5610453.31447   4357584.49246                  22234490.9304
        27.0004         24.5004
 02  7  8 19 25 15.0040000  0  8G31G 3G 9G14G15G17G18G21
  23789427.8404   -1193989.37046   -849537.51346                  23789435.8944
        18.0004         17.0004
  23010996.5594    7018407.08447   5462739.02446                  23011004.6484
        25.5004         24.0004
  24717814.7304    2182317.33046   1734592.22245                  24717823.0314
        13.2504         11.5004
  22156092.1294   -3864776.48948  -2949717.55347                  22156098.6214
        28.2504         28.5004
  23472781.1214   13261863.19147  10261192.51146                  23472790.2304
        20.5004         18.5004
  24269550.8404   14352269.36045  11097835.28645                  24269562.3634
        10.5004         11.2504
  23263402.8164   12434952.44247   9617372.89746                  23263409.3444
        25.5004         22.5004
  22240892.3714    5644128.33647   4383824.77446                  22240899.3484
        27.0004         24.7504
 02  7  8 19 25 30.0040000  0  8G31G 3G 9G14G15G17G18G21
  23792031.8094   -1180305.52546   -838874.77646                  23792039.9104
        18.2504         17.5004
  23020482.0434    7068253.33847   5501580.24746                  23020490.1334
        25.0004         23.2504
  24723271.5904    2210993.73046   1756937.47145                  24723279.8554
        13.0004         11.5004
  22156049.0354   -3865002.36548  -2949893.52747                  22156055.7034
        28.0004         28.5004
  23486005.7384   13331360.72847  10315346.38346                  23486014.9774
        20.0004         18.7504
  24283486.2544   14425495.42245  11154894.44945                  24283497.1214
        10.7504         11.5004
  23275147.2934   12496669.64347   9665464.20146                  23275153.8204
        26.5004         22.5004
  22247312.0124    5677863.92247   4410112.23546                  22247318.8324
        27.7504         24.7504
 02  7  8 19 25 45.0040000  0  8G31G 3G 9G14G15G17G18G21
  23794666.4024   -1166459.20346   -828085.44246                  23794674.7154
        18.2504         17.5004
  23029995.1764    7118246.63747   5540536.03946                  23030003.3714
        24.5004         23.0004
  24728760.6214    2239837.41146   1779413.07545                  24728768.5354
        14.0004         11.7504
  22156032.9964   -3865085.63148  -2949958.37447                  22156039.8554
        28.0004         29.0004
  23499248.9344   13400953.31446  10369574.32146                  23499258.1024
        19.5004         18.2504
  24297436.3554   14498808.37945  11212021.34145                  24297446.6844
        10.7504         11.5004
  23286902.1054   12558441.48347   9713598.08146                  23286908.9494
        27.2504         22.7504
  22253744.3404    5711666.25847   4436451.71546                  22253751.0084
        27.5004         25.0004
 02  7  8 19 26  0.0040000  0  8G31G 3G 9G14G15G17G18G21
  23797332.7304   -1152448.66846   -817168.14846                  23797340.9964
        18.2504         17.2504
  23039536.7694    7168388.26247   5579607.42046                  23039544.8714
        23.7504         22.5004
  24734281.5274    2268850.02546   1802020.32046                  24734289.6994
        14.0004         12.2504
  22156044.6844   -3865024.53048  -2949910.72947                  22156051.3054
        28.0004         28.7504
  23512510.6844   13470642.53147  10423877.56946                  23512519.6524
        20.0004         18.5004
  24311404.9414   14572209.81645  11269217.17245                  24311416.4884
        11.2504         11.0004
  23298667.6994   12620269.35947   9761775.61746                  23298674.4374
        27.7504         22.7504
  22260189.7074    5745536.78247   4462844.33346                  22260196.4344
        27.0004         25.0004
 02  7  8 19 26 15.0040000  0  8G31G 3G 9G14G15G17G18G21
  23800028.2624   -1138282.39846   -806129.48746                  23800036.1644
        18.0004         17.0004
  23049105.3014    7218669.50647   5618787.58646                  23049113.3094
        24.5004         22.7504
  24739832.2694    2298023.23846   1824752.71946                  24739841.4734
        13.2504         12.2504
  22156082.1914   -3864827.42948  -2949757.11347                  22156088.8484
        28.0004         28.7504
  23525788.7384   13540419.70447  10478249.34546                  23525797.7544
        20.0004         17.7504
  24325388.0194   14645690.92745  11326475.09745                  24325398.6174
        11.0004         11.0004
  23310442.1294   12682144.54548   9809990.02046                  23310448.5744
        28.0004         22.2504
  22266646.5274    5779467.05047   4489283.49646                  22266653.5044
        27.5004         25.0004
 02  7  8 19 26 30.0040000  0  8G31G 3G 9G14G15G17G18G21
  23802753.4264   -1123963.82246   -794972.17346                  23802761.4454
        18.2504         17.0004
  23058699.3714    7269086.58947   5658073.61046                  23058707.9064
        25.0004         23.5004
  24745413.9574    2327353.60546   1847607.55845                  24745423.2894
        13.2504         11.5004
  22156144.9414   -3864497.63147  -2949500.09747                  22156151.7274
        27.7504         29.0004
  23539082.9344   13610281.10646  10532686.75546                  23539091.7154
        19.7504         17.2504
  24339385.2074   14719248.27045  11383792.41445                  24339395.0664
        11.0004         11.0004
  23322224.9654   12744063.54747   9858238.57246                  23322231.2934
        26.7504         22.0004
  22273113.7774    5813453.15447   4515766.16946                  22273120.5624
        27.7504         25.0004
 02  7  8 19 26 45.0040000  0  8G31G 3G 9G14G15G17G18G21
  23805510.6604   -1109474.71146   -783681.94546                  23805517.7424
        19.0004         17.2504
  23068322.5824    7319657.51047   5697479.49846                  23068331.5744
        24.5004         23.7504
  24751028.4734    2356859.34146   1870599.07145                  24751038.3674
        13.0004         11.7504
  22156236.4414   -3864016.96748  -2949125.52147                  22156243.5004
        28.2504         29.2504
  23552396.6604   13680244.70546  10587203.80646                  23552405.5354
        19.7504         17.5004
  24353400.5194   14792899.58145  11441182.97645                  24353411.9734
        10.5004         11.2504
  23334019.4884   12806044.47347   9906535.37046                  23334025.6874
        26.7504         21.5004
  22279595.2694    5847513.31947   4542306.55246                  22279602.0084
        27.5004         25.2504
 02  7  8 19 27  0.0040000  0  8G31G 3G 9G14G15G17G18G21
  23808297.9414   -1094824.41646   -772266.14546                  23808305.9964
        18.0004         16.7504
  23077973.3634    7370372.50647   5736997.64546                  23077982.1444
        24.7504         23.7504
  24756674.8874    2386531.02546   1893719.87445                  24756683.4924
        13.0004         11.5004
  22156354.8014   -3863394.69548  -2948640.60747                  22156361.7544
        28.2504         29.2504
  23565728.3874   13750300.87547  10641792.97146                  23565736.4184
        21.0004         17.7504
  24367432.6524   14866635.45045  11498639.40145                  24367443.8014
        10.7504         11.2504
  23345823.9734   12868077.70447   9954872.92546                  23345830.2194
        26.2504         21.2504
  22286089.0824    5881638.04047   4568897.23946                  22286095.9264
        27.7504         25.2504
 02  7  8 19 27 15.0040000  0  8G31G 3G 9G14G15G17G18G21
  23811115.5984   -1080016.99546   -760727.89546                  23811123.1724
        18.2504         16.7504
  23087650.8634    7421227.15447   5776624.62846                  23087659.2934
        24.2504         23.7504
  24762352.1844    2416364.56346   1916966.78945                  24762362.7584
        12.5004         10.7504
  22156499.3714   -3862634.77748  -2948048.43247                  22156506.0864
        28.2504         29.2504
  23579076.0274   13820445.50347  10696451.07446                  23579084.1994
        20.5004         17.7504
  24381479.3874   14940451.56545  11556158.34345                  24381490.1374
        11.0004         11.0004
  23357637.7854   12930158.99547  10003247.92846                  23357643.9844
        25.0004         20.2504
  22292594.4804    5915823.17048   4595534.99946                  22292601.1604
        28.0004         25.2504
 02  7  8 19 27 30.0040000  0  8G31G 3G 9G14G15G17G18G21
  23813962.7234   -1065056.93846   -749070.69746                  23813971.1524
        16.2504         16.7504
  23097353.8874    7472216.61447   5816356.65146                  23097362.3524
        24.5004         23.7504
  24768058.9104    2446355.42146   1940336.30745                  24768068.3124
        12.0004         11.2504
  22156669.2694   -3861741.74647  -2947352.53147                  22156675.8094
        27.7504         29.0004
  23592440.4494   13890673.94147  10751174.49146                  23592448.8914
        20.2504         18.0004
  24395540.9024   15014343.28745  11613736.22645                  24395552.2154
        11.2504         11.7504
  23369459.5664   12992283.49547  10051656.60246                  23369465.6254
        25.0004         20.0004
  22299110.0594    5950064.06248   4622216.21546                  22299116.7974
        28.2504         25.2504
 02  7  8 19 27 45.0040000  0  8G31G 3G 9G14G15G17G18G21
  23816840.5124   -1049933.55046   -737286.25146                  23816849.0354
        16.7504         16.5004
  23107084.3944    7523351.30647   5856201.84346                  23107093.0004
        25.0004         23.5004
  24773797.4024    2476514.24145   1963836.71945                  24773806.7694
        11.5004         10.7504
  22156866.6764   -3860704.82347  -2946544.50747                  22156873.2384
        27.5004         28.7504
  23605821.9884   13960996.58447  10805971.29546                  23605830.7934
        20.0004         18.2504
  24409618.5984   15088320.96746  11671381.07045                  24409629.2774
        12.0004         11.2504
  23381291.7154   13054461.74047  10100107.15746                  23381298.1024
        24.7504         19.7504
  22305638.4964    5984371.31448   4648949.13646                  22305645.3914
        28.2504         25.2504
 02  7  8 19 28  0.0040000  0  8G31G 3G 9G14G15G17G18G21
  23819748.2384   -1034652.13846   -725378.65746                  23819756.8324
        17.2504         16.7504
  23116841.3874    7574625.48947   5896155.73546                  23116850.4264
        23.7504         23.2504
  24779567.9884    2506835.75545   1987463.86145                  24779577.1094
        11.2504         11.0004
  22157090.2774   -3859529.26648  -2945628.45547                  22157096.8524
        28.2504         29.0004
  23619220.7234   14031407.84747  10860837.16846                  23619230.0664
        20.0004         18.2504
  24423711.1914   15162379.19245  11729088.67445                  24423721.7544
        11.7504         11.0004
  23393133.0354   13116688.23047  10148595.30146                  23393139.4344
        24.0004         19.5004
  22312178.5904    6018739.50948   4675729.53846                  22312185.6134
        28.0004         25.5004
 02  7  8 19 28 15.0040000  0  8G31G 3G 9G14G15G17G18G21
  23822686.5124   -1019211.44946   -713346.93646                  23822695.0944
        16.0004         16.0004
  23126625.1684    7626040.23947   5936219.15546                  23126634.1604
        23.5004         23.2504
  24785368.9574    2537321.30845   2011218.85645                  24785378.2194
        11.2504         10.5004
  22157340.7464   -3858213.62448  -2944603.25047                  22157347.2624
        28.5004         29.2504
  23632636.5984   14101908.85346  10915772.96846                  23632646.7034
        19.7504         18.5004
  24437819.5594   15236518.96245  11786859.83445                  24437830.2624
        11.2504         10.5004
  23404983.5354   13178964.11847  10197121.95546                  23404990.2154
        23.2504         19.0004
  22318730.4804    6053169.77448   4702558.31246                  22318737.3404
        28.0004         25.5004
 02  7  8 19 28 30.0040000  0  8G31G 3G 9G14G15G17G18G21
  23825655.1994   -1003612.09246   -701191.60346                  23825664.1564
        15.7504         16.2504
  23136435.6844    7677594.48547   5976391.27446                  23136444.3124
        23.7504         23.0004
  24791201.1054    2567970.07045   2035101.03045                  24791210.2274
        11.2504         10.5004
  22157617.6524   -3856758.53648  -2943469.38847                  22157624.1914
        28.5004         29.5004
  23646069.5434   14172498.73447  10970778.02446                  23646079.3794
        20.2504         17.7504
  24451943.3014   15310739.46845  11844693.92445                  24451954.8014
        11.0004         10.7504
  23416843.4734   13241288.45147  10245686.34246                  23416849.9774
        23.0004         19.2504
  22325293.9654    6087661.25048   4729434.78747                  22325300.9304
        28.2504         25.7504
 02  7  8 19 28 45.0040000  0  8G31G 3G 9G14G15G17G18G21
  23828654.4024    -987848.87046   -688908.56646                  23828663.5944
        16.0004         16.5004
  23146273.5904    7729293.10747   6016675.89346                  23146282.0084
        24.2504         22.7504
  24797065.8404    2598787.36145   2059114.53745                  24797076.2034
        11.7504         11.2504
  22157921.8484   -3855158.75448  -2942222.76947                  22157928.5864
        28.2504         29.5004
  23659520.0824   14243182.61847  11025856.33246                  23659529.8364
        20.0004         18.2504
  24466083.1374   15385045.72145  11902594.80045                  24466095.9614
        10.7504         10.5004
  23428713.5904   13303666.32047  10294292.45746                  23428720.2584
        23.0004         19.2504
  22331870.0984    6122218.98248   4756362.88347                  22331877.1444
        28.7504         26.0004
 02  7  8 19 29  0.0040000  0  8G31G 3G 9G14G15G17G18G21
  23831685.1374    -971923.90146   -676499.49746                  23831694.3754
        15.7504         16.2504
  23156138.6844    7781133.60947   6057071.05246                  23156147.2894
        23.7504         23.0004
  24802961.9024    2629770.97745   2083257.61445                  24802972.1024
        11.5004         11.5004
  22158253.6294   -3853416.39448  -2940865.05447                  22158260.6414
        28.0004         29.2504
  23672988.4574   14313958.11546  11081006.02346                  23672997.6724
        19.7504         17.7504
  24480239.1134   15459435.28745  11960560.58945                  24480251.4804
        10.5004         10.2504
  23440593.7464   13366095.37947  10342938.45246                  23440600.3094
        23.2504         19.2504
  22338458.3794    6156840.55348   4783340.72347                  22338465.2234
        28.7504         26.0004
 02  7  8 19 29 15.0040000  0  8G31G 3G 9G14G15G17G18G21
  23834745.3244    -955842.84146   -663968.80246                  23834754.2344
        17.2504         16.5004
  23166029.6444    7833110.11347   6097572.18946                  23166038.4844
        24.7504         23.7504
  24808888.3404    2660915.15245   2107525.81445                  24808898.9144
        11.7504         11.5004
  22158611.0124   -3851537.04847  -2939400.59447                  22158618.0944
        27.7504         29.0004
  23686473.3714   14384819.32047  11136222.49346                  23686482.3284
        20.0004         17.7504
  24494409.8484   15533902.37345  12018586.79245                  24494421.6294
        11.0004         10.0004
  23452481.8874   13428569.79547  10391619.79446                  23452488.3554
        23.0004         19.2504
  22345057.5664    6191520.25648   4810363.86747                  22345064.7424
        28.7504         26.0004
 02  7  8 19 29 30.0040000  0  8G31G 3G 9G14G15G17G18G21
  23837835.1914    -939604.64646   -651315.65346                  23837843.8324
        17.5004         17.0004
  23175946.5124    7885223.30047   6138179.84346                  23175954.5194
        25.2504         23.2504
  24814845.4494    2692220.93545   2131919.93945                  24814855.2624
        11.5004         11.7504
  22158994.8714   -3849519.62748  -2937828.54747                  22159001.7154
        28.2504         29.0004
  23699974.3404   14455767.05247  11191506.39146                  23699983.1684
        20.5004         17.7504
  24508595.5194   15608447.73745  12076673.99445                  24508606.5514
        11.2504         10.5004
  23464379.2694   13491090.40147  10440337.13346                  23464386.1134
        22.2504         20.0004
  22351668.3404    6226259.16248   4837433.14447                  22351675.3754
        28.5004         26.0004
 02  7  8 19 29 45.0040000  0  8G31G 3G 9G14G15G17G18G21
  23840956.3634    -923203.56646   -638535.60646                  23840965.4494
        17.0004         17.2504
  23185890.5274    7937478.67447   6178898.28946                  23185898.3364
        24.7504         22.7504
  24820834.3874    2723694.16146   2156444.55246                  24820844.1414
        12.2504         12.0004
  22159406.3874   -3847358.25748  -2936144.33947                  22159412.8444
        28.7504         29.2504
  23713492.8714   14526806.96647  11246862.12346                  23713501.2774
        20.5004         17.5004
  24522797.7464   15683077.02645  12134826.57345                  24522808.9414
        11.5004         10.5004
  23476286.4414   13553662.77847  10489094.80846                  23476293.3244
        23.2504         20.2504
  22358291.2074    6261063.01148   4864553.02347                  22358298.4184
        28.5004         26.0004
 02  7  8 19 30  0.0040000  0  8G31G 3G 9G14G15G17G18G21
  23844108.4964    -906641.42146   -625630.03846                  23844117.4414
        18.0004         17.2504
  23195860.6914    7989873.85647   6219725.68146                  23195868.1844
        24.2504         22.5004
  24826855.3874    2755332.85246   2181098.09446                  24826865.6094
        12.2504         12.0004
  22159844.6684   -3845054.79948  -2934349.40747                  22159851.0904
        28.2504         29.0004
  23727028.0744   14597936.91447  11302288.00646                  23727036.6564
        20.0004         17.5004
  24537014.3714   15757788.11645  12193042.92045                  24537025.6484
        11.0004         11.0004
  23488202.9804   13616284.86747  10537891.22446                  23488210.0864
        24.5004         20.5004
  22364926.1994    6295929.63048   4891721.81747                  22364933.4804
        28.5004         26.2504
 02  7  8 19 30 15.0040000  0  8G31G 3G 9G14G15G17G18G21
  23847291.0514    -889915.44846   -612596.80646                  23847299.2934
        18.7504         17.7504
  23205858.2624    8042411.32147   6260663.94646                  23205866.2934
        24.5004         22.7504
  24832908.3244    2787139.82546   2205882.75046                  24832918.0904
        12.0004         12.0004
  22160310.3874   -3842606.41748  -2932441.55247                  22160316.9494
        28.2504         29.0004
  23740581.5194   14669159.57147  11357786.12246                  23740590.0664
        20.2504         17.5004
  24551247.6444   15832583.55745  12251324.99945                  24551258.8874
        11.2504         10.7504
  23500129.7234   13678959.28247  10586728.40246                  23500136.7464
        24.2504         20.7504
  22371573.3094    6330861.66248   4918941.57847                  22371580.6374
        28.7504         26.2504
 02  7  8 19 30 30.0040000  0  8G31G 3G 9G14G15G17G18G21
  23850504.1054    -873032.29846   -599441.11746                  23850512.3944
        19.0004         18.2504
  23215881.7544    8095084.28447   6301707.80046                  23215890.0784
        24.2504         23.0004
  24838990.7624    2819108.49945   2230793.43845                  24839001.0664
        11.7504         11.7504
  22160802.7074   -3840019.68048  -2930425.88047                  22160809.0944
        28.0004         28.7504
  23754151.2154   14740468.05347  11413351.14346                  23754160.4414
        20.2504         17.7504
  24565495.6214   15907456.64145  12309667.57945                  24565506.5474
        11.2504         10.7504
  23512064.8874   13741679.21547  10635601.05946                  23512071.9344
        25.0004         21.0004
  22378231.9804    6365852.29448   4946207.00547                  22378239.3794
        28.2504         26.2504
 02  7  8 19 30 45.0040000  0  8G31G 3G 9G14G15G17G18G21
  23853747.3794    -855987.10946   -586159.15146                  23853755.3284
        19.5004         17.7504
  23225931.5274    8147897.11547   6342860.62646                  23225940.0164
        24.7504         23.2504
  24845106.5274    2851243.64045   2255833.80445                  24845116.6214
        10.7504         11.7504
  22161322.2624   -3837289.62047  -2928298.52547                  22161328.8124
        27.5004         28.5004
  23767737.5824   14811867.05346  11468986.67446                  23767746.9024
        19.5004         17.5004
  24579759.0824   15982411.81645  12368074.11945                  24579769.9264
        11.5004         10.0004
  23524009.7854   13804449.40647  10684512.86946                  23524016.6174
        24.7504         21.5004
  22384902.5434    6400906.33547   4973521.84147                  22384909.9414
        27.7504         26.2504
 02  7  8 19 31  0.0040000  0  8G31G 3G 9G14G15G17G18G21
  23857022.4024    -838776.54446   -572748.31646                  23857030.3054
        18.7504         17.7504
  23236008.8014    8200852.79047   6384124.77846                  23236017.7814
        25.0004         23.7504
  24851253.2934    2883548.46245   2281006.40845                  24851264.1024
        11.2504         11.7504
  22161869.5594   -3834412.84848  -2926056.85047                  22161876.0394
        28.0004         28.5004
  23781342.4884   14883359.71046  11524695.20246                  23781352.2304
        19.0004         17.5004
  24594038.7304   16057452.37845  12426547.18745                  24594049.6444
        11.5004         10.2504
  23535964.7854   13867272.96547  10733466.28346                  23535971.7854
        24.5004         21.2504
  22391585.5194    6436026.98247   5000888.58547                  22391593.0704
        27.2504         26.2504
